     2.11           OBSERVATION DATA    G (GPS)             RINEX VERSION / TYPE
teqc 2010Oct21 OPUS Account 20111027 21:04:54UTC            PGM / RUN BY / DATE
V 1526                                                      MARKER NAME
3056                                                        MARKER NUMBER
CSMIDDLETON NGS                                             OBSERVER / AGENCY
0220390624 TRIMBLE R7 2.32                                  REC # / TYPE / VERS
60125046 TRM41249.00 NONE                                   ANT # / TYPE
  -744139.4187 -5577424.2896  2993131.9389                  APPROX POSITION XYZ
        2.0040        0.0000        0.0000                  ANTENNA: DELTA H/E/N
     1     1                                                WAVELENGTH FACT L1/2
     5    L1    L2    C1    P1    P2                        # / TYPES OF OBSERV
    15                                                      LEAP SECONDS
  2011     8    20    16    52    0.0000000     GPS         TIME OF FIRST OBS
                                                            END OF HEADER
 11  8 20 16 52  0.0000000  0 10G03G06G07G08G10G11G13G19G23G28
     33897.50457     25201.10254  22165358.2504                   22165358.0164
     73048.18856     53151.40253  24159695.2114                   24159694.2504
   -592601.07058   -445194.52055  21334453.9534                   21334451.9964
   -686453.60257   -496630.60554  23010156.4614                   23010155.5824
   -141591.34455   -101429.46153  24436910.5474                   24436911.7424
   -716817.82056   -496306.56253  23551894.1174                   23551893.8204
   -161033.02058   -121156.02756  20348652.7274                   20348650.5004
   -269691.61358   -203790.96956  21000582.8834                   21000579.5314
     57297.34058     42825.68055  21569395.5784                   21569392.2274
   -606900.97756   -425724.35253  23654883.1174                   23654881.8244
 11  8 20 16 52 30.0000000  0 11G03G06G07G08G10G11G13G16G19G23G28
     41130.13347     30836.84444  22166734.9064                   22166733.8324
     89174.89146     65717.47343  24162764.3834                   24162764.9574
   -720673.47347   -544991.18745  21310082.3364                   21310080.2424
   -836159.97747   -613284.90644  22981668.5164                   22981667.3594
   -174238.18046   -126868.61343  24430698.1414                   24430699.3484
   -872612.69546   -617705.12543  23522247.3444                   23522246.6954
   -195209.65248   -147787.21146  20342148.8914                   20342146.9144
     15512.74656     10192.43053  24716404.5784                   24716405.3244
   -327034.32848   -248473.63746  20989671.0314                   20989667.3524
     69515.23048     52346.03945  21571720.8204                   21571717.3634
   -739812.50046   -529291.69543  23629590.9304                   23629589.2774
 11  8 20 16 53  0.0000000  0 11G03G06G07G08G10G11G13G16G19G23G28
     48487.27347     36569.57844  22168134.5784                   22168133.6054
    105269.01246     78258.19943  24165827.1954                   24165827.4454
   -848883.03947   -644894.74645  21285685.0314                   21285682.7234
   -986159.19946   -730167.40644  22953124.1644                   22953123.8634
   -206885.57046   -152308.26243  24424486.6334                   24424487.2304
  -1028604.35946   -739257.02743  23492563.9144                   23492563.1254
   -229078.54348   -174178.59446  20335704.2344                   20335701.7894
     22783.15246     15857.59442  24717787.9304                   24717788.8244
   -384026.79747   -292883.37546  20978826.0784                   20978822.2074
     81841.52347     61950.86745  21574066.6024                   21574063.1954
   -872763.70346   -632890.00843  23604290.9064                   23604290.4734
 11  8 20 16 53 30.0000000  0 11G03G06G07G08G10G11G13G16G19G23G28
     55958.60247     42391.32844  22169556.9924                   22169556.2034
    121320.71946     90765.93843  24168881.2734                   24168882.1994
   -977235.61748   -744909.77045  21261260.3134                   21261258.3914
  -1136457.72346   -847283.11344  22924523.2344                   22924523.1414
   -239543.19546   -177755.78943  24418270.8914                   24418272.7504
  -1184797.34846   -860965.80143  23462840.5634                   23462840.3244
   -262647.80948   -200336.50846  20329315.9774                   20329313.7194
     29692.41445     21241.28942  24719102.8984                   24719103.7194
   -440676.88747   -337026.33646  20968045.9924                   20968041.7304
     94266.36747     71632.48445  21576430.8524                   21576427.3134
  -1005762.11347   -736525.12943  23578981.8284                   23578981.9184
 11  8 20 16 54  0.0000000  0 11G03G06G07G08G10G11G13G16G19G23G28
     63559.51247     48314.03944  22171003.3444                   22171002.4494
    137345.37946    103252.60543  24171930.4304                   24171932.0594
  -1105711.29747   -845020.67645  21236812.4534                   21236809.6414
  -1287036.11747   -964616.90644  22895870.1334                   22895868.8594
   -272195.51646   -203199.21143  24412057.2194                   24412059.1914
  -1341170.79346   -982815.20343  23433083.6414                   23433083.0084
   -295901.15248   -226248.23846  20322988.4384                   20322985.8284
     36257.77046     26357.05942  24720352.5164                   24720353.2584
   -496967.46147   -380889.13746  20957333.6094                   20957330.6954
    106805.12948     81402.87145  21578817.0704                   21578813.4924
  -1138789.79746   -840183.04744  23553668.0084                   23553667.5784
 11  8 20 16 54 30.0000000  0 11G03G06G07G08G10G11G13G16G19G23G28
     71304.35946     54348.89544  22172476.8754                   22172476.6604
    153357.82046    115729.71143  24174978.2504                   24174978.8984
  -1234291.55947   -945213.13745  21212344.6954                   21212342.1054
  -1437876.85546  -1082155.19544  22867165.0634                   22867164.4494
   -304828.34046   -228627.49643  24405849.0864                   24405850.0204
  -1497704.57846  -1104789.55943  23403296.3834                   23403295.4264
   -328822.58248   -251901.39146  20316723.5394                   20316721.1684
     42495.691 6                  24721539.117
   -552881.84447   -424458.84446  20946693.6414                   20946690.4804
    119472.21947     91273.20345  21581227.4694                   21581223.8674
  -1271830.20347   -943850.90244  23528351.3054                   23528350.3914
 11  8 20 16 55  0.0000000  0 11G03G06G07G08G10G11G13G16G19G23G28
     79205.77347     60505.73844  22173980.5944                   22173980.8484
    169370.91846    128207.36743  24178025.4224                   24178026.5164
  -1362959.43448  -1045473.82045  21187859.6954                   21187857.2234
  -1588963.35947  -1199884.92644  22838414.8134                   22838413.6374
   -337428.97346   -254030.71943  24399644.7814                   24399645.8794
  -1654379.97746  -1226874.23843  23373481.3594                   23373481.0084
   -361397.99648   -277284.87146  20310524.4694                   20310522.4694
     48421.145 6                  24722666.492
   -608405.84447   -467724.32046  20936128.1644                   20936124.3714
    132280.72747    101253.77345  21583664.7344                   21583661.7424
  -1404868.11747  -1047516.76244  23503034.3834                   23503034.2034
 11  8 20 16 55 30.0000000  0 11G03G06G07G08G10G11G13G16G19G23G28
     87272.88746     66791.69944  22175515.3364                   22175515.4534
    185393.80546    140692.64843  24181074.1644                   24181075.2034
  -1491701.32847  -1145792.15645  21163360.6334                   21163358.3914
  -1740283.07847  -1317796.38744  22809619.1804                   22809619.0824
   -369988.05546   -279401.55143  24393450.3284                   24393449.7034
  -1811182.52046  -1349057.99843  23343643.2504                   23343643.1024
   -393616.84448   -302390.49646  20304393.4304                   20304391.5984
     54044.965 6                  24723737.078
   -663528.03147   -510676.68746  20925638.5164                   20925634.9184
    145239.72747    111351.62145  21586130.8134                   21586128.0084
  -1537892.21547  -1151171.89144  23477721.4534                   23477720.6254
 11  8 20 16 56  0.0000000  0 11G03G06G07G08G10G11G13G16G19G23G28
     95511.03546     73210.95744  22177083.5004                   22177082.9224
    201432.46546    153190.20743  24184126.4224                   24184127.8524
  -1620507.44148  -1246160.57045  21138849.9844                   21138847.3094
  -1891826.40247  -1435882.09044  22780781.6024                   22780780.9144
   -402499.80546   -304735.46143  24387262.7504                   24387262.6294
  -1968100.98446  -1471332.10243  23313782.7114                   23313782.2894
   -425471.84048   -327212.61346  20298331.6334                   20298329.6374
     59374.809 6                  24724751.773
   -718241.49247   -553310.56646  20915226.8524                   20915223.6174
    158354.82047    121571.09445  21588626.6804                   21588623.3164
  -1670894.64847  -1254810.12544  23452412.2424                   23452411.4574
 11  8 20 16 56 30.0000000  0 11G03G06G07G08G10G11G13G16G19G23G28
    103914.64847     79759.12144  22178683.0554                   22178682.7384
    217481.80546    165696.02043  24187180.6884                   24187181.3914
  -1749378.93047  -1346579.91045  21114326.5864                   21114324.0904
  -2043595.16847  -1554143.44944  22751901.0554                   22751900.2384
   -434969.91046   -330036.92643  24381083.6484                   24381084.2424
  -2125134.78146  -1593696.05943  23283900.0474                   23283899.4064
   -456966.94148   -351754.29346  20292338.8284                   20292336.4104
     64407.414 6                  24725709.555
   -772549.76248   -595628.71546  20904891.9304                   20904888.8014
    171621.04347    131908.33645  21591151.2814                   21591148.1644
  -1803877.97747  -1358433.48044  23427105.7974                   23427105.1254
 11  8 20 16 57  0.0000000  0 11G03G06G07G08G10G11G13G16G19G23G28
    112491.27047     86442.12144  22180315.4614                   22180314.6684
    233549.65246    178216.27743  24190238.3984                   24190239.2384
  -1878303.82847  -1447040.86745  21089792.6094                   21089790.4844
  -2195578.07447  -1672571.65644  22722979.2504                   22722978.8164
   -467390.36346   -355299.69543  24374913.7814                   24374914.9804
  -2282270.56646  -1716139.46143  23253997.8134                   23253997.6914
   -488093.18748   -376008.53946  20286415.4844                   20286413.4104
     69152.56346     31288.78952  24726613.0164                   24726610.9614
   -826443.23448   -637623.64546  20894637.2344                   20894633.6134
    185045.76647    142369.07445  21593705.8204                   21593702.6334
  -1936832.47747  -1462034.36343  23401805.9844                   23401804.1954
 11  8 20 16 57 30.0000000  0 11G03G06G07G08G10G11G13G16G19G23G28
   1696660.07047   1320859.31344  22481772.6564                   22481772.1564
   1825055.08246   1418350.21543  24493091.4304                   24493092.3404
   -431854.28548   -319937.32445  21365042.9614                   21365040.4104
   -772346.78147   -563560.26244  22993811.3754                   22993810.3484
   1075659.50846    847076.73843  24668547.1954                   24668547.7934
   -864077.96946   -611054.26643  23523871.3834                   23523870.1414
   1056570.83248    827625.72346  20580354.9694                   20580352.7154
   1649031.51646   1262363.20343  25027254.1804                   25027253.5204
    695500.96147    548306.87946  21184252.8054                   21184249.9384
   1774048.00847   1380552.56345  21896083.1954                   21896080.0784
   -494332.16047   -338008.07443  23676303.6094                   23676302.5944
 11  8 20 16 58  0.0000000  0 10G03G06G07G08G10G11G13G19G23G28
   1705579.49647   1327809.43443  22483469.8674                   22483469.0314
   1841157.35546   1430897.31343  24496156.6644                   24496156.4614
   -560876.34847   -420474.00445  21340491.2734                   21340488.6254
   -924750.29747   -682316.23444  22964810.1564                   22964809.1684
   1043335.45346    821889.10243  24662396.5634                   24662397.1914
  -1021404.13746   -733646.03143  23493933.3674                   23493932.5204
   1026182.43448    803946.41846  20574573.2504                   20574570.4804
    642438.74248    506959.66846  21174155.8204                   21174152.3834
   1787786.71548   1391257.97345  21898697.5704                   21898694.1024
   -627225.53146   -441561.29743  23651015.1644                   23651013.2974
 11  8 20 16 58 30.0000000  0 10G03G06G07G08G10G11G13G19G23G28
   1714670.68046   1334893.40644  22485199.2194                   22485199.2894
   1857277.54346   1443458.36343  24499224.0944                   24499224.3094
   -689939.84848   -521042.96145  21315930.9774                   21315929.0274
  -1077358.16847   -801231.45344  22935769.7504                   22935769.1804
   1011060.00846    796739.31343  24656254.6724                   24656254.8444
  -1178816.41446   -856304.89843  23463978.6954                   23463977.8554
    996165.40248    780556.50046  20568860.7974                   20568858.6484
    589795.16047    465938.68046  21164138.2584                   21164134.3134
   1801683.09847   1402086.25045  21901341.9614                   21901338.8754
   -760084.28946   -545087.57843  23625732.6954                   23625732.0634
 11  8 20 16 59  0.0000000  0 10G03G06G07G08G10G11G13G19G23G28
   1723937.83646   1342114.48843  22486962.8674                   22486962.4024
   1873420.38346   1456037.02743  24502295.6254                   24502296.7664
   -819035.96948   -621637.33245  21291364.8834                   21291362.2424
  -1230161.82047   -920299.21144  22906692.3834                   22906691.0664
    978837.77746    771630.99643  24650122.5164                   24650123.7854
  -1336304.63346   -979022.96143  23434008.8674                   23434009.0944
    966525.60548    757460.51646  20563220.3674                   20563218.5824
    537576.29348    425248.61746  21154201.3444                   21154197.5704
   1815741.58647   1413040.84445  21904017.5084                   21904014.1414
   -892901.59047   -648581.52044  23600459.2814                   23600457.2034
 11  8 20 16 59 30.0000000  0 10G03G06G07G08G10G11G13G19G23G28
   1733379.77346   1349471.78544  22488759.4534                   22488759.4344
   1889584.98046   1468632.71143  24505372.3524                   24505372.4614
   -948161.85948   -722254.91045  21266792.9694                   21266790.5514
  -1383158.97747  -1039517.77344  22877577.8674                   22877577.0084
    946667.70746    746563.34843  24644000.5314                   24644002.5164
  -1493864.09046  -1101796.54343  23404026.8364                   23404025.7854
    937263.16848    734658.58646  20557651.7894                   20557649.6484
    485782.74647    384889.99246  21144345.5164                   21144341.6454
   1829960.89547   1424120.74245  21906723.2194                   21906719.9304
  -1025676.32847   -752042.32044  23575192.8134                   23575191.3054
 11  8 20 17  0  0.0000000  0 10G03G06G07G08G10G11G13G19G23G28
   1742997.41446   1356965.96944  22490589.8204                   22490590.4184
   1905772.69546   1481246.39143  24508451.8984                   24508453.9844
  -1077311.78948   -822891.21945  21242216.3834                   21242214.3284
  -1536344.45747  -1158883.07044  22848427.2974                   22848426.9024
    914550.91046    721537.19943  24637889.3204                   24637890.5434
  -1651487.79346  -1224620.14543  23374031.8134                   23374030.9964
    908380.30548    712152.41846  20552155.6254                   20552153.4184
    434417.36348    344865.00046  21134570.6334                   21134567.1524
   1844342.19147   1435326.85945  21909459.8054                   21909457.0354
  -1158405.26246   -855467.39844  23549934.5634                   23549933.7344
 11  8 20 17  0 30.0000000  0 10G03G06G07G08G10G11G13G19G23G28
   1752784.89146   1364592.51244  22492453.1094                   22492453.1724
   1921977.89846   1493873.75843  24511535.7814                   24511537.8794
  -1206487.07848   -923547.28545  21217635.1954                   21217633.0514
  -1689720.34447  -1278396.73844  22819241.4064                   22819240.6564
    882481.57846    696548.03543  24631786.8594                   24631788.0824
  -1809176.19146  -1347494.18743  23344024.8834                   23344023.7274
    879872.26648    689938.34046  20546730.4224                   20546728.5044
    383475.68048    305170.16046  21124876.8754                   21124873.2894
   1858879.75047   1446654.75045  21912226.4614                   21912223.1804
  -1291091.71546   -958859.41843  23524686.1094                   23524684.9804
 11  8 20 17  1  0.0000000  0 10G03G06G07G08G10G11G13G19G23G28
   1762740.80946   1372350.28544  22494347.7584                   22494347.1254
   1938199.51246   1506513.86343  24514623.9144                   24514624.8874
  -1335685.12548  -1024221.06645  21193049.6094                   21193047.0594
  -1843284.64847  -1398057.21144  22790018.8284                   22790017.7854
    850458.14846    671594.62542  24625693.1644                   24625694.4654
  -1966924.83646  -1470415.16043  23314006.5474                   23314005.9304
    851738.81648    668016.14146  20541376.9844                   20541375.0744
    332958.03147    265805.74646  21115263.9454                   21115259.9264
   1873572.25448   1458103.37945  21915022.3914                   21915019.3524
  -1423734.93746  -1062217.74243  23499444.1564                   23499443.5164
 11  8 20 17  1 30.0000000  0 10G03G06G07G08G10G11G13G19G23G28
   1772866.12946   1380240.05544  22496274.1174                   22496273.6954
   1954438.88346   1519167.87142  24517713.7344                   24517715.2584
  -1464899.85948  -1124907.87546  21168461.1954                   21168458.9414
  -1997032.06247  -1517860.36744  22760761.5704                   22760760.7194
    818482.16846    646678.20342  24619607.1024                   24619609.6764
  -2124726.53946  -1593377.50043  23283977.5314                   23283976.3444
    823982.57848    646387.86346  20536094.9064                   20536093.1024
    282866.93848    226773.69946  21105731.6954                   21105727.6954
   1888420.92647   1469673.69145  21917848.0704                   21917844.6994
  -1556331.46546  -1165539.65643  23474211.5784                   23474210.6134
 11  8 20 17  2  0.0000000  0 10G03G06G07G08G10G11G13G19G23G28
   1783155.76646   1388257.87944  22498232.0704                   22498232.0824
   1970691.42246   1531832.14142  24520806.1644                   24520807.7274
  -1594132.25848  -1225608.44146  21143868.8594                   21143866.6604
  -2150963.84047  -1637807.19144  22731469.3054                   22731468.2544
    786548.64846    621794.84442  24613530.3134                   24613532.7974
  -2282580.67646  -1716380.71143  23253939.3284                   23253937.4384
    796600.01648    625050.77046  20530884.5864                   20530882.6054
    233199.08248    188071.46946  21096280.2734                   21096276.6764
   1903420.80147   1481361.82445  21920702.4534                   21920699.3094
  -1688883.86746  -1268827.20743  23448987.1564                   23448987.0164
 11  8 20 17  2 30.0000000  0 10G03G06G07G08G10G11G13G19G23G28
   1793613.58646   1396406.73844  22500222.3204                   22500222.4494
   1986961.42245   1544509.94142  24523901.7734                   24523903.9064
  -1723373.63748  -1326316.00046  21119275.2344                   21119273.0784
  -2305071.86747  -1757891.32844  22702143.4844                   22702142.1764
    754661.637 6                  24607463.828
  -2440477.35947  -1839417.04343  23223892.5084                   23223890.9344
    769595.87548    604008.55546  20525745.9454                   20525743.8634
    183960.01648    149703.35546  21086910.5944                   21086906.3444
   1918575.81647   1493170.84845  21923586.9774                   21923583.3444
  -1821385.90646  -1372075.51243  23423773.8134                   23423773.2424
 11  8 20 17  3  0.0000000  0 10G03G06G07G08G10G11G13G19G23G28
   1804238.19546   1404685.54743  22502245.0864                   22502243.8834
   2003247.66845   1557200.48842  24527001.2814                   24527003.7854
  -1852620.89548  -1427028.14545  21094680.4144                   21094677.9964
  -2459354.04347  -1878111.18744  22672784.7034                   22672783.7504
    722819.793 5                  24601403.445
  -2598412.05547  -1962483.04343  23193837.7194                   23193836.8164
    742969.57048    583260.75046  20520679.1024                   20520677.2734
    135149.70748    111669.33646  21077621.6724                   21077618.0434
   1933884.71147   1505099.76645  21926499.7584                   21926496.6684
  -1953836.63346  -1475283.82443  23398569.0554                   23398567.6174
 11  8 20 17  3 30.0000000  0 10G03G06G07G08G10G11G13G19G23G28
   1815028.54747   1413093.53544  22504298.5314                   22504298.0164
   2019549.65246   1569903.19943  24530103.8444                   24530105.4454
  -1981870.50448  -1527742.12946  21070084.8594                   21070082.3404
  -2613807.17647  -1998464.24644  22643392.8594                   22643391.9774
    691022.559 5                  24595353.578
  -2756380.29747  -2085575.17243  23163777.7194                   23163776.2854
    716721.62548    562807.77046  20515684.4064                   20515682.3794
     86768.84048     73969.94946  21068415.2814                   21068411.6994
   1949346.50847   1517147.83645  21929441.7344                   21929438.8754
  -2086234.76246  -1578451.12543  23373374.7114                   23373373.0554
 11  8 20 17  4  0.0000000  0 10G03G06G07G08G10G11G13G19G23G28
   1825980.17247   1421627.22344  22506382.5864                   22506381.8094
   2035863.09446   1582614.88343  24533208.4774                   24533208.8554
  -2111122.50048  -1628457.94946  21045488.9844                   21045486.4614
  -2768431.79747  -2118950.95344  22613969.3524                   22613968.0044
    659265.098 5                  24589310.352
  -2914380.58647  -2208692.26243  23133711.4224                   23133710.4694
    690848.69148    542647.01246  20510760.7974                   20510758.5944
     38814.44948     36602.89146  21059289.6414                   21059286.1484
   1964956.93447   1529311.71545  21932412.6724                   21932409.2934
  -2218582.33647  -1681579.04344  23348189.5234                   23348188.5164
 11  8 20 17  4 30.0000000  0 10G03G06G07G08G10G11G13G19G23G28
   1837090.55947   1430284.60544  22508496.2504                   22508495.8094
   2052186.19946   1595334.09043  24536314.4454                   24536315.9184
  -2240374.94547  -1729174.14146  21020893.1094                   21020890.0004
  -2923225.90247  -2239569.71544  22584512.5004                   22584511.6024
    627545.539 5                  24583274.242
  -3072409.09446  -2331831.33243  23103639.5784                   23103638.4264
    665349.78948    522777.70746  20505908.7114                   20505906.6994
     -8714.34447      -432.55546  21050245.2584                   21050241.7304
   1980713.02047   1541589.09045  21935411.1094                   21935408.1054
  -2350879.28146  -1784667.50044  23323014.3674                   23323013.2774
 11  8 20 17  5  0.0000000  0 10G03G06G07G08G10G11G13G19G23G28
   1848357.96146   1439064.29744  22510640.8444                   22510640.1134
   2068517.05546   1608059.34443  24539422.5394                   24539423.6604
  -2369625.33248  -1829888.72746  20996297.4144                   20996294.8134
  -3078187.96947  -2360319.35544  22555024.0394                   22555023.2974
    595862.000 6                  24577246.570
  -3230462.15247  -2454989.55543  23073562.6884                   23073561.3954
    640223.70348    503198.90646  20501127.4844                   20501125.3014
    -55818.13347    -37136.81646  21041282.0474                   21041278.4494
   1996613.38747   1553978.93044  21938436.9774                   21938433.7664
  -2483125.79746  -1887716.71543  23297848.3914                   23297847.2074
 11  8 20 17  5 30.0000000  0 10G03G06G07G08G10G11G13G19G23G28
   1859781.78546   1447965.91043  22512814.6564                   22512814.2074
   2084855.83846   1620790.72343  24542531.4064                   24542533.1564
  -2498868.94548  -1930598.02346  20971703.3914                   20971700.7504
  -3233314.73847  -2481197.32044  22525504.4534                   22525503.7934
    564213.78146    594477.25052  24571223.0634                   24571225.3364
  -3388534.38747  -2578162.72343  23043482.8054                   23043481.6884
    615471.48448    483911.43846  20496416.8204                   20496414.7814
   -102495.82847    -73509.06646  21032399.2344                   21032396.0084
   2012657.93847   1566481.07445  21941490.0394                   21941486.8524
  -2615319.80546  -1990724.97743  23272692.6094                   23272691.9804
 11  8 20 17  6  0.0000000  0 10G03G06G07G08G10G11G13G19G23G28
   1871356.69547   1456985.23044  22515017.1484                   22515017.4384
   2101197.21946   1633524.20343  24545640.7424                   24545642.7154
  -2628107.14147  -2031303.10946  20947109.7504                   20947107.9344
  -3388607.42247  -2602204.58644  22495953.6884                   22495952.5554
    532595.78146    569839.72743  24565206.6804                   24565208.2774
  -3546624.94547  -2701350.15643  23013399.0474                   23013397.8834
    591088.10948    464911.37546  20491776.9454                   20491775.2424
   -148751.46547   -109552.43746  21023597.4924                   21023593.7304
   2028840.94147   1579091.14145  21944569.8984                   21944566.6134
  -2747464.29746  -2093694.66043  23247546.4614                   23247545.3164
 11  8 20 17  6 30.0000000  0 10G03G06G07G08G10G11G13G19G23G28
   1883083.72746   1466123.06644  22517248.7584                   22517249.2464
   2117543.57446   1646261.50043  24548751.2814                   24548753.4654
  -2757333.64148  -2131999.07846  20922518.8364                   20922516.5124
  -3544060.08647  -2723336.50844  22466371.9534                   22466370.5944
    501009.30546    545226.77343  24559195.6484                   24559197.9304
  -3704726.98047  -2824546.52043  22983313.3444                   22983311.9414
    567076.24648    446200.79746  20487208.1484                   20487205.5314
   -194582.12547   -145264.66446  21014876.2114                   21014872.5124
   2045163.74247   1591810.12144  21947676.4304                   21947672.9264
  -2879555.50446  -2196622.83643  23222410.7424                   23222409.4454
 11  8 20 17  7  0.0000000  0 10G03G06G07G08G10G11G13G19G23G28
   3470379.26646   2702976.67244  22819301.3674                   22819301.0554
   3709310.70745   2886599.43442  24851654.8984                   24851656.2734
  -1311123.40648  -1005082.00446  21197723.5084                   21197720.8984
  -2124247.32847  -1616988.87944  22736552.5944                   22736552.0084
   2044872.33246   1748236.85542  24852983.7114                   24852985.3984
  -2287412.54746  -1720145.65243  23253018.9384                   23253017.9734
   2118854.19548   1655378.38346  20782501.5554                   20782499.7854
   1335431.21147   1046953.49646  21306028.1254                   21306024.6524
   3637042.43447   2832235.01245  22250600.3524                   22250597.1054
  -1436170.19946  -1071906.97343  23497077.2274                   23497076.0904
 11  8 20 17  7 30.0000000  0 10G03G06G07G08G10G11G13G19G23G28
   3482402.98047   2712345.70343  22821588.8444                   22821588.8364
   3725658.95345   2899338.19942  24854766.0864                   24854767.6804
  -1440321.65648  -1105755.97346  21173137.8444                   21173135.8484
  -2280016.71147  -1738367.59844  22706911.2114                   22706910.1684
   2013341.27046   1723667.10943  24846983.1724                   24846985.1764
  -2445527.81246  -1843352.33244  23222930.7034                   23222929.9454
   2095580.25448   1637242.82046  20778072.8284                   20778070.5394
   1290445.82047   1011899.92646  21297467.1094                   21297464.1604
   3653636.70347   2845165.52044  22253758.2274                   22253754.9024
  -1568156.44547  -1174753.35944  23471961.7424                   23471960.4884
 11  8 20 17  8  0.0000000  0 10G03G06G07G08G10G11G13G19G23G28
   3494575.68846   2721830.85943  22823905.6334                   22823904.5004
   3742009.67645   2912078.95342  24857878.1414                   24857879.6484
  -1569497.60548  -1206412.54746  21148556.7974                   21148554.1764
  -2435937.09047  -1859863.98444  22677240.4224                   22677239.5824
   1981839.10946   1699119.84442  24840988.5554                   24840989.7774
  -2603639.78947  -1966556.43043  23192843.3134                   23192842.3444
   2072678.21948   1619397.04346  20773714.6254                   20773712.4304
   1245886.21947    977178.13346  21288987.9924                   21288984.8594
   3670368.06647   2858202.87145  22256942.3674                   22256939.4104
  -1700085.82447  -1277555.43744  23446855.9844                   23446854.9694
 11  8 20 17  8 30.0000000  0 10G03G06G07G08G10G11G13G19G23G28
   3506890.63746   2731426.85943  22826249.9454                   22826248.5704
   3758356.84045   2924816.84842  24860988.3364                   24860991.2074
  -1698653.60947  -1307053.58245  21123979.0864                   21123976.8834
  -2592011.44947  -1981480.33244  22647540.6724                   22647539.8284
   1950359.20746   1674589.98842  24834999.0314                   24834999.4144
  -2761749.41447  -2089758.71943  23162755.8444                   23162754.6604
   2050141.51248   1601835.95346  20769426.2034                   20769423.8404
   1201746.85247    942783.78546  21280589.1804                   21280585.2934
   3687229.53947   2871341.59845  22260150.7194                   22260148.1954
  -1831962.71546  -1380316.62144  23421761.4144                   23421759.8094
 11  8 20 17  9  0.0000000  0 10G03G06G07G08G10G11G13G19G23G28
   3519347.67646   2741133.53543  22828619.7734                   22828619.6644
   3774700.73846   2937552.35242  24864099.6884                   24864101.6804
  -1827785.06248  -1407675.48046  21099406.5314                   21099403.3754
  -2748235.87947  -2103213.62944  22617811.6334                   22617810.5944
   1918901.69146   1650077.51243  24829011.8834                   24829013.6134
  -2919850.66847  -2212954.43743  23132669.7974                   23132669.7974
   2027971.55548   1584560.63346  20765207.1334                   20765205.0004
   1158029.14547    908718.03146  21272270.0784                   21272266.2344
   3704221.18047   2884581.74244  22263384.6644                   22263381.7894
  -1963784.87147  -1483035.14544  23396676.3054                   23396674.4224
 11  8 20 17  9 30.0000000  0 10G03G06G07G08G10G11G13G19G23G28
   3531945.33646   2750949.78143  22831017.4454                   22831016.6684
   3791040.01246   2950284.20343  24867208.0314                   24867210.8634
  -1956888.97347  -1508275.90246  21074838.5084                   21074836.1254
  -2904608.01647  -2225062.02744  22588055.2734                   22588054.2234
   1887464.89146   1625581.23043  24823030.5164                   24823031.9384
  -3077939.36346  -2336140.41843  23102587.3284                   23102586.0394
   2006167.59848   1567570.50846  20761058.4144                   20761056.0084
   1114732.72347    874980.53946  21264030.5784                   21264027.2384
   3721341.37947   2897922.05945  22266642.6484                   22266639.2344
  -2095551.95746  -1585710.74644  23371601.5394                   23371599.8634
 11  8 20 17 10  0.0000000  0 10G03G06G07G08G10G11G13G19G23G28
   3544678.98446   2760872.04743  22833440.0634                   22833440.4184
   3807370.43446   2963009.11743  24870316.0234                   24870318.5004
  -2085965.40248  -1608854.93446  21050275.9224                   21050273.7034
  -3061128.09047  -2347025.69144  22558270.3444                   22558269.1804
   1856044.41846   1601097.63343  24817050.5784                   24817052.0274
  -3236014.27047  -2459315.65243  23072505.9064                   23072505.2504
   1984725.56648   1550862.40646  20756977.7584                   20756975.5824
   1071854.28947    841568.74646  21255871.0164                   21255867.6054
   3738585.38747   2911358.85544  22269923.3284                   22269920.7464
  -2227265.93047  -1688345.02044  23346536.7814                   23346534.8324
 11  8 20 17 10 30.0000000  0 10G03G06G07G08G10G11G13G19G23G28
   3557545.86346   2770898.08644  22835888.7504                   22835889.0784
   3823689.63746   2975725.30943  24873421.8284                   24873423.6174
  -2215012.47747  -1709411.09046  21025719.1174                   21025716.9964
  -3217794.89147  -2469103.69144  22528458.0234                   22528456.4924
   1824637.48446   1576624.59443  24811074.4064                   24811075.8134
  -3394072.43447  -2582477.79743  23042428.7194                   23042427.2774
   1963643.80148   1534435.03546  20752966.3984                   20752964.1764
   1029391.83647    808481.10246  21247790.8674                   21247787.4884
   3755950.39547   2924889.94944  22273228.1724                   22273225.4804
  -2358927.69147  -1790938.57844  23321482.4224                   23321480.5124
 11  8 20 17 11  0.0000000  0 10G03G06G07G08G10G11G13G19G23G28
   3570542.27747   2781025.07444  22838362.0004                   22838362.5044
   3839994.35946   2988430.22742  24876523.8284                   24876526.1334
  -2344029.26248  -1809943.64146  21001167.8674                   21001166.0164
  -3374607.67647  -2591295.46144  22498617.2734                   22498615.9574
   1793240.59846   1552159.37543  24805100.9694                   24805102.1844
  -3552111.41847  -2705625.05943  23012355.0704                   23012353.2544
   1942919.47748   1518286.18446  20749022.6024                   20749019.9494
    987343.23047    775715.93846  21239789.7274                   21239786.0274
   3773432.88747   2938512.58644  22276554.8524                   22276552.0824
  -2490538.42647  -1893492.37144  23296437.4534                   23296436.2704
 11  8 20 17 11 30.0000000  0 10G03G06G07G08G10G11G13G19G23G28
   3583669.23847   2791253.78943  22840860.5004                   22840860.2504
   3856286.11346   3001125.00443  24879625.2034                   24879625.6524
  -2473010.12547  -1910448.21146  20976623.7114                   20976621.3284
  -3531561.59047  -2713597.18744  22468750.2114                   22468748.3054
   1761854.53946   1527702.61343  24799127.6024                   24799129.3954
  -3710124.32446  -2828751.97743  22982286.1644                   22982284.5864
   1922554.43048   1502417.27746  20745146.8054                   20745145.0084
    945710.80547    743275.07046  21231866.9694                   21231863.8014
   3791033.45347   2952227.20345  22279904.6414                   22279902.0594
  -2622094.95347  -1996003.91844  23271403.0944                   23271401.9964
 11  8 20 17 12  0.0000000  0  9G03G07G08G10G11G13G19G23G28
   3596925.56646   2801583.28943  22843382.5864                   22843382.2624
  -2601951.79747  -2010922.23446  20952087.1334                   20952084.6094
  -3688653.69147  -2836006.59044  22438856.1804                   22438855.0474
   1730478.50446   1503253.65643  24793156.8444                   24793158.8094
  -3868106.50446  -2951854.96943  22952222.9534                   22952221.3134
   1902548.23048   1486828.01246  20741340.1484                   20741338.1804
    904493.83247    711157.93046  21224023.3524                   21224020.1684
   3808751.57447   2966033.44944  22283276.4304                   22283273.6374
  -2753596.25846  -2098472.44144  23246379.6094                   23246377.6844
 11  8 20 17 12 30.0000000  0  9G03G07G08G10G11G13G19G23G28
   3610304.98446   2812008.75843  22845929.1564                   22845928.3874
  -2730855.76247  -2111366.88746  20927557.1954                   20927555.1604
  -3845885.85947  -2958525.13744  22408935.2664                   22408934.8834
   1699106.10546   1478807.52043  24787187.2894                   24787188.9734
  -4026058.13346  -3074934.10543  22922165.9304                   22922164.4804
   1882895.70348   1471514.34046  20737600.6884                   20737598.5084
    863687.70747    679360.92246  21216258.3284                   21216255.1684
   3826580.84847   2979926.29344  22286669.1334                   22286666.7894
  -2885046.28947  -2200900.98444  23221365.2814                   23221362.9774
 11  8 20 17 13  0.0000000  0  9G03G07G08G10G11G13G19G23G28
   3623813.69146   2822534.90243  22848499.1334                   22848498.6334
  -2859711.01648  -2211773.56246  20903036.9304                   20903034.6914
  -4003247.64147  -3081144.69944  22378990.8754                   22378989.7424
   1667743.85246   1454369.29743  24781219.0394                   24781220.8244
  -4183967.14547  -3197980.09043  22892116.8364                   22892115.7974
   1863603.53948   1456481.44946  20733928.7034                   20733927.1954
    823299.66847    647889.70746  21208573.1334                   21208569.7234
   3844527.26247   2993910.42645  22290084.1254                   22290081.4024
  -3016436.76647  -2303283.14144  23196362.0004                   23196360.7274
 11  8 20 17 13 30.0000000  0  9G03G07G08G10G11G13G19G23G28
   3637455.24646   2833164.57043  22851095.4224                   22851095.1214
  -2988508.78948  -2312135.46546  20878527.6884                   20878525.2384
  -4160731.06247  -3203859.03144  22349023.0164                   22349021.7344
   1636395.60946   1429942.00843  24775253.5704                   24775255.8324
  -4341823.79747  -3320985.23843  22862077.9384                   22862076.5744
   1844676.45348   1441733.03146  20730327.5164                   20730325.3794
    783335.01247    616748.39846  21200967.9304                   21200964.0944
   3862594.60947   3007988.79744  22293522.3204                   22293519.7624
  -3147761.48047  -2405614.06644  23171372.6174                   23171370.9454
 11  8 20 17 14  0.0000000  0  9G03G07G08G10G11G13G19G23G28
   3651227.29746   2843895.94543  22853716.1334                   22853715.5784
  -3117247.67247  -2412451.46946  20854029.5864                   20854027.0234
  -4318334.89847  -3326667.19544  22319031.4774                   22319030.6644
   1605058.78146   1405523.62143  24769290.4454                   24769292.0704
  -4499624.63347  -3443946.91843  22832049.2584                   22832047.4734
   1826112.62148   1427267.68446  20726795.2034                   20726792.9574
    743791.90647    585935.57446  21193443.3444                   21193439.5164
   3880780.13747   3022159.23844  22296982.8834                   22296980.5124
  -3279021.06646  -2507894.25444  23146393.9614                   23146392.7854
 11  8 20 17 14 30.0000000  0  9G03G07G08G10G11G13G19G23G28
   3665126.42246   2854726.36344  22856361.3524                   22856361.3524
  -3245925.75847  -2512720.09446  20829542.8594                   20829540.2344
  -4476057.60547  -3449567.98444  22289018.5164                   22289017.0704
   1573730.50446   1381111.88743  24763329.4064                   24763331.0434
  -4657366.98847  -3566863.03144  22802032.1414                   22802030.3714
   1807909.84448   1413083.66846  20723330.9924                   20723328.5704
    704668.27347    555449.62146  21185998.5634                   21185994.4384
   3899081.02347   3036419.57444  22300465.2034                   22300462.4924
  -3410216.20346  -2610124.19944  23121428.7504                   23121427.1214
 11  8 20 17 15  0.0000000  0  9G03G07G08G10G11G13G19G23G28
   3679154.19547   2865657.01244  22859031.5944                   22859031.1994
  -3374537.21148  -2612936.80146  20805068.8984                   20805066.2194
  -4633893.84047  -3572557.24244  22258982.5704                   22258981.6564
   1542411.73846   1356707.48442  24757369.0864                   24757371.0434
  -4815043.91847  -3689728.16043  22772027.2664                   22772025.1484
   1790069.56648   1399182.12946  20719936.3754                   20719934.7344
    665966.23047    525292.14845  21178633.5164                   21178630.0514
   3917498.19947   3050770.52344  22303970.4774                   22303967.3484
  -3541343.62947  -2712301.37143  23096475.5784                   23096473.9804
 11  8 20 17 15 30.0000000  0  9G03G07G08G10G11G13G19G23G28
   3693304.55546   2876683.15243  22861723.7504                   22861724.0274
  -3503082.93047  -2713102.28946  20780607.4694                   20780604.9964
  -4791845.32847  -3695636.29344  22228925.6024                   22228924.4144
   1511096.90646   1332306.26242  24751409.5704                   24751413.1884
  -4972655.10947  -3812542.05944  22742034.1254                   22742033.1094
   1772587.10548   1385559.40246  20716609.4064                   20716607.7234
    627680.98047    495459.48446  21171348.0784                   21171344.1764
   3936026.04747   3065207.70744  22307496.4454                   22307493.4304
  -3672406.85546  -2814428.53944  23071535.9694                   23071533.5784
 11  8 20 17 16  0.0000000  0  9G03G07G08G10G11G13G19G23G28
   3707580.03947   2887806.79744  22864440.7894                   22864440.0124
  -3631556.00047  -2813211.15246  20756159.5394                   20756157.6054
  -4949905.26247  -3818799.85244  22198848.0634                   22198846.8404
   1479788.79746   1307910.22342  24745452.5474                   24745454.5354
  -5130192.16847  -3935298.18044  22712056.6094                   22712054.6644
   1755465.64548   1372217.96145  20713351.1644                   20713349.2194
    589816.14547    465954.38346  21164142.6254                   21164138.7974
   3954667.11347   3079733.13744  22311043.4454                   22311040.8164
  -3803401.30547  -2916502.09044  23046607.5394                   23046606.8954
 11  8 20 17 16 30.0000000  0  9G03G07G08G10G11G13G19G23G28
   5297396.18847   4126624.52343  23166972.7974                   23166971.7424
  -2184531.60247  -1685659.66846  21031519.2584                   21031516.8674
  -3532647.93047  -2714443.45345  22468543.3284                   22468542.0044
   3023904.66446   2511117.28142  25039288.8984                   25039290.8484
  -3712227.87147  -2830390.92644  22981885.4614                   22981883.9414
   3314122.09448   2586755.43045  21009953.9304                   21009952.0204
   2127789.85247   1664375.43446  21456808.9534                   21456805.7194
   5548836.53147   4321942.96944  22614404.4224                   22614401.4734
  -2358904.53147  -1790920.16844  23321486.2814                   23321485.0784
 11  8 20 17 17  0.0000000  0  9G03G07G08G10G11G13G19G23G28
   5311913.81647   4137936.86743  23169735.6954                   23169734.0904
  -2312853.47747  -1785650.72346  21007100.7584                   21007098.2814
  -3690919.99247  -2837772.30944  22438424.7194                   22438423.4964
   2992602.29346   2486725.64542  25033332.2814                   25033334.3794
  -3869606.95747  -2953023.95344  22951937.2894                   22951935.9614
   3297716.01248   2573971.43045  21006831.9304                   21006829.8554
   2090760.71147   1635521.54345  21449763.0784                   21449759.5354
   5567695.33247   4336638.04744  22617992.7034                   22617990.1214
  -2489762.94547  -1892887.71144  23296585.1024                   23296583.5434
 11  8 20 17 17 30.0000000  0  8G03G07G08G11G13G19G23G28
   5326554.09446   4149344.76643  23172520.6954                   23172520.2584
  -2441091.39848  -1885576.36346  20982697.6484                   20982695.1764
  -3849290.03947  -2961177.50845  22408287.8444                   22408287.0904
  -4026896.85546  -3075587.46944  22922006.1644                   22922004.7344
   3281670.10548   2561468.09445  21003778.3284                   21003776.3714
   2054152.12547   1606995.34845  21442796.4064                   21442792.7934
   5586664.15247   4351418.83644  22621602.3364                   22621600.2424
  -2620548.86347  -1994798.77044  23271697.1334                   23271696.0084
 11  8 20 17 18  0.0000000  0  8G03G07G08G11G13G19G23G28
   5341319.84446   4160850.47343  23175331.1804                   23175330.0944
  -2569237.55947  -1985430.50846  20958311.8674                   20958309.9884
  -4007751.22747  -3084653.72345  22378134.0864                   22378132.3874
  -4184088.64146  -3198074.55544  22892093.9224                   22892092.6254
   3265987.83248   2549248.10545  21000794.3754                   21000791.9264
   2017967.73447   1578799.69545  21435910.8754                   21435906.6604
   5605746.04347   4366287.73444  22625233.4454                   22625231.3164
  -2751257.16847  -2096649.35944  23246823.8984                   23246822.6484
 11  8 20 17 18 30.0000000  0  8G03G07G08G11G13G19G23G28
   5356212.76646   4172455.28143  23178165.3754                   23178164.7814
  -2697285.31247  -2085207.96946  20933945.6484                   20933943.2544
  -4166297.47347  -3208196.21544  22347963.1884                   22347962.2624
  -4341175.09446  -3320479.56243  22862200.5944                   22862199.6484
   3250671.25048   2537313.07845  20997879.6564                   20997877.5664
   1982210.05947   1550936.55145  21429106.1334                   21429102.2074
   5624942.62547   4381246.00844  22628886.8054                   22628884.2034
  -2881884.10546  -2198436.54744  23221966.5394                   23221965.2034
 11  8 20 17 19  0.0000000  0  8G03G07G08G11G13G19G23G28
   5371241.83246   4184166.13743  23181024.5554                   23181024.1134
  -2825221.34847  -2184898.37146  20909600.0474                   20909597.5354
  -4324915.29347  -3331794.48444  22317779.5394                   22317778.5784
  -4498140.75846  -3442790.44944  22832331.3834                   22832329.9654
   3235730.30548   2525670.73845  20995036.2504                   20995034.4224
   1946889.34447   1523413.89545  21422384.9844                   21422381.3094
   5644263.34447   4396301.02744  22632562.8284                   22632560.9694
  -3012418.06247  -2300151.27344  23197126.7814                   23197125.6914
 11  8 20 17 19 30.0000000  0  8G03G07G08G11G13G19G23G28
   5386417.43446   4195991.20343  23183912.1884                   23183912.1844
  -2953030.67248  -2284490.04746  20885279.2504                   20885276.7464
  -4483590.18747  -3455437.22345  22287584.3984                   22287583.2894
  -4654969.57846  -3564994.70744  22802487.6954                   22802486.9414
   3221175.76648   2514329.50445  20992266.7034                   20992264.8834
   1912016.92247   1496240.54745  21415749.1724                   21415744.8914
   5663717.90647   4411460.32844  22636265.6094                   22636262.6884
  -3142847.05947  -2401784.21544  23172306.9384                   23172305.6454
 11  8 20 17 20  0.0000000  0  8G03G07G08G11G13G19G23G28
   5401723.00446   4207917.55543  23186825.5554                   23186825.4144
  -3080724.36747  -2383991.62146  20860979.7894                   20860977.0824
  -4642334.30547  -3579133.91444  22257376.7034                   22257375.3054
  -4811671.93046  -3687100.43044  22772668.2424                   22772666.8834
   3206992.14848   2503277.29745  20989567.6334                   20989565.5634
   1877577.13747   1469404.32445  21409195.2034                   21409191.8054
   5683290.17247   4426711.35544  22639989.7194                   22639987.5984
  -3273185.09846  -2503346.27744  23147504.5234                   23147502.8754
 11  8 20 17 20 30.0000000  0  8G03G07G08G11G13G19G23G28
   5417167.25046   4219951.93043  23189763.8984                   23189764.4694
  -3208290.00847  -2483393.41846  20836704.2734                   20836702.0634
  -4801134.87947  -3702874.58245  22227158.1484                   22227157.0044
  -4968233.91046  -3809096.73844  22742874.9454                   22742873.9024
   3193187.55948   2492520.43845  20986940.7194                   20986938.7704
   1843578.70747   1442912.00045  21402725.9774                   21402722.0204
   5702988.12147   4442060.30144  22643739.0084                   22643735.9574
  -3403421.77046  -2604829.38344  23122721.3054                   23122720.0594
 11  8 20 17 21  0.0000000  0  8G03G07G08G11G13G19G23G28
   5432746.55946   4232091.57043  23192728.6174                   23192728.8834
  -3335726.53148  -2582694.62546  20812454.7344                   20812451.7384
  -4959991.27047  -3826658.75845  22196928.3134                   22196927.2114
  -5124653.31646  -3930981.96144  22713109.6484                   22713108.5944
   3179758.93848   2482056.53945  20984385.9924                   20984383.7304
   1810018.90647   1416761.46945  21396339.6334                   21396335.5204
   5722807.97347   4457504.25044  22647510.6804                   22647507.9454
  -3533558.86346  -2706234.86344  23097956.3524                   23097955.6644
 11  8 20 17 21 30.0000000  0  8G03G07G08G11G13G19G23G28
   5448454.20346   4244331.19543  23195718.4384                   23195718.8524
  -3463035.56647  -2681896.46146  20788228.2034                   20788225.7974
  -5118905.22347  -3950487.78545  22166687.8834                   22166687.5204
  -5280930.48846  -4052756.35243  22683371.2734                   22683370.3484
   3166700.41848   2471881.04345  20981900.4774                   20981899.2234
   1776892.14147   1390948.37945  21390035.7894                   21390032.3714
   5742743.32447   4473038.21144  22651303.1564                   22651301.2424
  -3663600.59047  -2807566.05944  23073210.1254                   23073209.7154
 11  8 20 17 22  0.0000000  0  8G03G07G08G11G13G19G23G28
   5464290.43846   4256671.07043  23198732.1024                   23198732.3954
  -3590211.74247  -2780994.77046  20764027.4694                   20764024.6994
  -5277872.09047  -4074358.05145  22136437.8284                   22136436.5394
  -5437058.99647  -4174414.91443  22653660.6954                   22653659.8204
   3154013.16048   2461994.83645  20979486.2664                   20979484.4144
   1744199.48447   1365473.56345  21383814.6094                   21383811.2274
   5762794.64547   4488662.52744  22655120.8204                   22655117.0474
  -3793544.39847  -2908820.92644  23048483.1804                   23048481.6454
 11  8 20 17 22 30.0000000  0  8G03G07G08G11G13G19G23G28
   5480253.58646   4269109.74643  23201769.6884                   23201769.9494
  -3717252.34847  -2879987.42646  20739852.3754                   20739849.5204
  -5436889.71547  -4198267.87545  22106177.4774                   22106176.4614
  -5593035.03547  -4295954.66844  22623980.0394                   22623978.1054
   3141695.43848   2452396.56345  20977142.0474                   20977139.9494
   1711939.92647   1340336.23445  21377675.9844                   21377672.1054
   5782959.68847   4504375.44944  22658956.6484                   22658954.6724
  -3923390.38747  -3009999.56644  23023774.3524                   23023772.7664
 11  8 20 17 23  0.0000000  0  8G03G07G08G11G13G19G23G28
   5496339.42646   4281644.11343  23204830.3054                   23204830.7384
  -3844157.04748  -2978874.19946  20715703.3754                   20715700.6454
  -5595957.70747  -4322216.93744  22075907.8364                   22075906.5204
  -5748857.05147  -4417374.41844  22594327.3914                   22594326.3954
   3129743.63748   2443083.42645  20974867.8594                   20974865.8524
   1680110.02747   1315533.68845  21371618.9064                   21371615.2384
   5803234.48047   4520173.87544  22662815.6334                   22662812.8674
  -4053140.25847  -3111103.32844  22999083.7584                   22999082.4844
 11  8 20 17 23 30.0000000  0  8G03G07G08G11G13G19G23G28
   5512552.04346   4294277.18443  23207916.2194                   23207916.0664
  -3970917.29347  -3077648.41846  20691581.0784                   20691578.9224
  -5755067.97347  -4446198.94145  22045630.2274                   22045628.6054
  -5904515.12947  -4538666.39844  22564706.7424                   22564705.9654
   3118161.90248   2434058.66045  20972664.3134                   20972662.2894
   1648713.98447   1291069.22745  21365644.4384                   21365640.9694
   5823622.38347   4536060.47344  22666694.9694                   22666692.0474
  -4182788.47346  -3212127.89844  22974412.2734                   22974410.9304
 11  8 20 17 24  0.0000000  0  8G03G07G08G11G13G19G23G28
   5528888.72346   4307006.99243  23211024.6724                   23211025.0474
  -4097530.94148  -3176308.39546  20667487.7974                   20667485.3364
  -5914218.86747  -4570212.61345  22015344.9534                   22015343.5044
  -6060006.23447  -4659828.29343  22535117.9534                   22535116.8524
   3106947.87948   2425320.41045  20970530.2974                   20970528.2384
   1617749.83647   1266941.30145  21359751.8834                   21359748.1214
   5844120.80147   4552033.15644  22670595.3444                   22670592.9884
  -4312335.15647  -3313073.35944  22949760.5004                   22949759.3054
 11  8 20 17 24 30.0000000  0  8G03G07G08G11G13G19G23G28
   5545353.62546   4319836.73843  23214157.8284                   23214158.2774
  -4223988.71547  -3274846.91846  20643423.6884                   20643421.2234
  -6073401.09847  -4694250.70345  21985053.6954                   21985051.9734
  -6215320.14147  -4780852.09444  22505562.6724                   22505561.8794
   3096106.27348   2416872.35945  20968467.0004                   20968465.3594
   1587222.74647   1243153.92645  21353942.8524                   21353939.4804
   5864734.10947   4568095.35244  22674517.9224                   22674516.1844
  -4441774.50846  -3413935.16844  22925129.7114                   22925127.4494
 11  8 20 17 25  0.0000000  0  9G03G24G07G08G11G13G19G23G28
   5561941.89846   4332762.48443  23217314.4924                   23217315.1884
   4066553.51615                  23945054.641
  -4350291.29347  -3373264.49646  20619389.1484                   20619386.0784
  -6232615.56247  -4818313.89145  21954755.5554                   21954754.3834
  -6370456.09047  -4901737.22744  22476041.4614                   22476039.9104
   3085632.35948   2408710.82845  20966474.0164                   20966472.2734
   1557128.25447   1219703.65245  21348216.8204                   21348212.8874
   5885457.01647   4584242.98444  22678462.2584                   22678459.6644
  -4571109.39547  -3514715.61344  22900517.9844                   22900516.2974
 11  8 20 17 25 30.0000000  0  9G03G24G07G08G11G13G19G23G28
   7154066.10246   5573378.72343  23520285.7584                   23520285.9844
   5481329.594 5                  24214277.211
  -2901016.41847  -2243959.39146  20895176.6254                   20895174.1414
  -4816438.99647  -3714799.66445  22224244.8914                   22224244.0474
  -4949989.62147  -3794880.21943  22746347.1954                   22746345.6954
   4650939.69948   3628430.78545  21264342.0944                   21264340.3014
   3102881.01647   2424186.29345  21642362.6334                   21642359.5594
   7481702.02047   5828070.16044  22982218.4224                   22982215.1414
  -3124920.23847  -2387814.91044  23175718.1024                   23175716.5904
 11  8 20 17 26  0.0000000  0  9G03G24G07G08G11G13G19G23G28
   7170891.20346   5586489.03943  23523487.7974                   23523488.3834
   5320590.852 5                  24183688.898
  -3027003.78547  -2342131.36746  20871202.0944                   20871199.4694
  -4975714.35547  -3838910.28545  22193936.2584                   22193935.5274
  -5104761.77047  -3915481.85544  22716894.7114                   22716893.4144
   4641192.31347   3620835.36745  21262487.8204                   21262485.6764
   3073643.40647   2401403.72345  21636799.6174                   21636796.2114
   7502633.69147   5844380.45744  22986201.3054                   22986199.0004
  -3254049.84447  -2488435.38344  23151145.9774                   23151144.2504
 11  8 20 17 26 30.0000000  0  9G03G24G07G08G11G13G19G23G28
   7187837.68446   5599694.00843  23526712.6174                   23526713.1604
   5159769.180 5                  24153086.219
  -3152823.95347  -2440173.03946  20847259.4534                   20847257.0514
  -5135010.59447  -3963037.19545  22163623.3984                   22163622.1134
  -5259340.57047  -4035932.82844  22687479.5784                   22687478.3094
   4631811.78148   3613525.82445  21260702.3984                   21260700.4654
   3044838.25047   2378958.12945  21631318.2114                   21631314.6564
   7523672.68047   5860774.35944  22990204.6094                   22990202.4774
  -3383070.94546  -2588971.30544  23126593.2974                   23126591.8164
 11  8 20 17 27  0.0000000  0  9G03G24G07G08G11G13G19G23G28
   7204902.53946   5612991.21943  23529959.1174                   23529960.6914
   4998867.219 5                  24122467.969
  -3278475.03947  -2538082.96946  20823348.5004                   20823345.9184
  -5294326.45747  -4087179.41445  22133306.2424                   22133304.8794
  -5413723.22347  -4156230.98444  22658101.6954                   22658100.2464
   4622795.18447   3606499.84845  21258986.9384                   21258984.7624
   3016462.79747   2356847.35945  21625918.2734                   21625915.1684
   7544815.94147   5877249.52044  22994227.8284                   22994225.5394
  -3511984.28147  -2689423.22744  23102062.2814                   23102060.8874
 11  8 20 17 27 30.0000000  0  9G03G24G07G08G11G13G19G23G28
   7222083.15246   5626378.65243  23533229.6644                   23533230.1684
   4837887.898 5                  24091834.141
  -3403954.66047  -2635859.28546  20799470.7114                   20799468.3594
  -5453660.27047  -4211335.61345  22102986.2734                   22102985.0554
  -5567906.11747  -4276373.45344  22628761.1484                   22628760.0514
   4614140.09447   3599755.57845  21257339.5784                   21257337.6134
   2988514.94947   2335069.78545  21620600.1564                   21620596.7424
   7566060.53547   5893803.63344  22998270.8284                   22998268.7774
  -3640790.60947  -2789791.75844  23077550.5634                   23077549.3524
 11  8 20 17 28  0.0000000  0  9G03G24G07G08G11G13G19G23G28
   7239384.29746   5639859.92243  23536521.5394                   23536522.5634
   4676842.145 5                  24061188.039
  -3529253.51647  -2733494.75046  20775627.3914                   20775624.8714
  -5613003.05947  -4335498.75845  22072664.0084                   22072662.9184
  -5721878.87947  -4396352.19944  22599461.2424                   22599459.9184
   4605851.18047   3593296.65245  21255762.1884                   21255760.7074
   2961000.11747   2313629.63745  21615364.5634                   21615360.8754
   7587411.10247   5910440.34444  23002333.2344                   23002331.4304
  -3769483.18447  -2890071.65644  23053061.8364                   23053059.9844
 11  8 20 17 28 30.0000000  0  9G03G24G07G08G11G13G19G23G28
   7256800.45346   5653430.87543  23539836.3204                   23539837.1094
   4515729.930 5                  24030529.844
  -3654372.33247  -2830989.91846  20751817.9384                   20751815.5554
  -5772355.21947  -4459669.24645  22042340.6254                   22042339.3324
  -5875641.21147  -4516166.96544  22570201.2424                   22570200.2304
   4597923.85947   3587119.47345  21254253.4694                   21254252.3094
   2933913.30147   2292522.99645  21610209.9144                   21610205.9494
   7608862.05147   5927155.26244  23006415.1954                   23006413.7664
  -3898065.64847  -2990265.74244  23028594.0554                   23028591.6684
 11  8 20 17 29  0.0000000  0  9G03G24G07G08G11G13G19G23G28
   7274332.77746   5667092.36343  23543172.6564                   23543173.4654
   4354557.770 6                  23999859.563
  -3779305.68047  -2928340.58646  20728043.7274                   20728041.6564
  -5931711.07047  -4583842.60245  22012015.8364                   22012014.5274
  -6029186.28147  -4635812.41044  22540982.5164                   22540980.9734
   4590359.11747   3581224.82845  21252814.3834                   21252812.7194
   2907255.92247   2271750.98445  21605137.3754                   21605133.3364
   7630414.30147   5943949.11744  23010516.9614                   23010515.0314
  -4026534.86347  -3090371.60944  23004146.8834                   23004144.7274
 11  8 20 17 29 30.0000000  0  9G03G24G07G08G11G13G19G23G28
   7291983.34846   5680846.03143  23546531.2424                   23546532.0664
   4193333.53946   4835109.51252  23969179.3984                   23969181.6564
  -3904046.41048  -3025541.14546  20704306.5634                   20704303.9654
  -6091064.10947  -4708013.77045  21981691.8754                   21981690.7464
  -6182506.21947  -4755282.44544  22511806.5164                   22511805.1954
   4583159.05547   3575614.33245  21251444.0784                   21251442.3674
   2881030.47347   2251315.54745  21600146.4144                   21600142.9264
   7652069.70746   5960823.34443  23014638.0314                   23014635.4654
  -4154886.80547  -3190386.07044  22979721.8914                   22979720.3404
 11  8 20 17 30  0.0000000  0  9G03G24G07G08G11G13G19G23G28
   7309748.73446   5694689.12543  23549912.5554                   23549912.9104
   4032059.39845   4709441.35242  23938489.5314                   23938493.2424
  -4028593.47747  -3122590.79746  20680605.6174                   20680603.7734
  -6250413.90647  -4832182.41045  21951368.7344                   21951367.6374
  -6335598.80147  -4874575.31644  22482673.7194                   22482672.8714
   4576320.33647   3570285.40645  21250143.3754                   21250141.3404
   2855234.03147   2231214.39145  21595237.7194                   21595234.2734
   7673824.93446   5977775.34444  23018778.2274                   23018775.9184
  -4283123.29747  -3290310.55944  22955318.9924                   22955317.4654
 11  8 20 17 30 30.0000000  0  9G03G24G07G08G11G13G19G23G28
   7327629.82846   5708622.30943  23553314.7504                   23553315.1094
   3870742.24646   4583739.78942  23907792.3444                   23907794.8954
  -4152941.24647  -3219485.15646  20656943.3204                   20656941.0704
  -6409754.43047  -4956343.82045  21921047.2194                   21921046.1604
  -6488457.46947  -4993685.91844  22453585.7584                   22453585.0044
   4569844.25047   3565239.06345  21248910.8134                   21248908.6484
   2829867.78148   2211448.45345  21590411.0944                   21590407.3404
   7695680.23047   5994805.34044  23022936.6724                   23022934.5084
  -4411241.03147  -3390142.52044  22930938.4694                   22930937.0434
 11  8 20 17 31  0.0000000  0  9G03G24G07G08G11G13G19G23G28
   7345625.16046   5722644.53543  23556740.1954                   23556740.0904
   3709385.93046   4458007.56642  23877087.0164                   23877090.2344
  -4277086.73847  -3316221.89846  20633319.0784                   20633316.8754
  -6569083.18447  -5080496.07445  21890727.7814                   21890726.8834
  -6641078.19547  -5112611.12144  22424543.2974                   22424541.8164
   4563729.23847   3560474.06345  21247747.1804                   21247745.6804
   2804930.39847   2192016.70745  21585665.4384                   21585661.9344
   7717633.81646   6011911.89143  23027114.2034                   23027112.1724
  -4539240.15647  -3489882.09444  22906581.9844                   22906579.3954
 11  8 20 17 31 30.0000000  0  9G03G24G07G08G11G13G19G23G28
   7363739.06646   5736759.09043  23560185.7974                   23560186.8634
   3548000.06646   4332252.39142  23846376.4844                   23846379.9384
  -4401020.94147  -3412793.99246  20609735.6254                   20609733.2384
  -6728391.61747  -5204632.49645  21860412.2894                   21860410.9144
  -6793451.02347  -5231343.13744  22395548.3364                   22395546.5864
   4557979.12147   3555993.41045  21246652.6564                   21246651.3634
   2780426.52747   2172922.76645  21581002.4844                   21580998.8324
   7739689.92647   6029098.35543  23031311.7584                   23031309.5554
  -4667114.30547  -3589524.25844  22882248.4534                   22882246.4024
 11  8 20 17 32  0.0000000  0  9G03G24G07G08G11G13G19G23G28
   7381971.54746   5750966.09043  23563655.3524                   23563656.9734
   3386591.15646   4206479.24642  23815662.1174                   23815664.5164
  -4524738.86747  -3509197.55946  20586192.6644                   20586190.0204
  -6887674.91447  -5328749.32045  21830101.8134                   21830100.6054
  -6945569.73047  -5349877.16444  22366600.3444                   22366599.1024
   4552594.88347   3551797.85545  21245628.2584                   21245626.5944
   2756356.84447   2154167.14145  21576421.9694                   21576418.7344
   7761848.64147   6046364.77044  23035528.8834                   23035526.1724
  -4794861.39547  -3689067.42244  22857938.3284                   22857936.6954
 11  8 20 17 32 30.0000000  0  9G03G24G07G08G11G13G19G23G28
   7400322.94946   5765265.78543  23567148.0004                   23567149.1484
   3225164.93846   4080692.64142  23784943.1174                   23784945.8754
  -4648235.89847  -3605429.01246  20562692.0394                   20562689.4884
  -7046928.32447  -5452842.86345  21799797.2584                   21799795.3874
  -7097428.59847  -5468208.69544  22337702.2894                   22337701.3594
   4547576.49247   3547887.37145  21244673.2194                   21244671.8244
   2732721.54747   2135750.00845  21571924.7344                   21571920.8164
   7784110.14546   6063711.29344  23039764.6724                   23039762.7974
  -4922479.38747  -3788509.98044  22833653.7344                   22833651.8094
 11  8 20 17 33  0.0000000  0  9G03G24G07G08G11G13G19G23G28
   7418795.48046   5779659.84043  23570662.9454                   23570664.7424
   3063729.28546   3954898.68442  23754222.7424                   23754225.8874
  -4771505.09847  -3701482.92246  20539234.4844                   20539232.1294
  -7206144.85547  -5576907.67645  21769499.2114                   21769497.6024
  -7249019.38347  -5586331.33644  22308855.3524                   22308854.5594
   4542926.29347   3544263.77345  21243788.5704                   21243786.6644
   2709523.86747   2117673.87545  21567509.9304                   21567506.5514
   7806476.37947   6081139.38344  23044021.0474                   23044019.2894
  -5049964.05947  -3887848.66844  22809394.5004                   22809392.4414
 11  8 20 17 33 30.0000000  0  9G03G24G07G08G11G13G19G23G28
   7437389.41446   5794148.51643  23574201.8364                   23574202.5984
   2902290.176 6                  23723501.656
  -4894540.96547  -3797355.02346  20515821.3524                   20515818.7734
  -7365319.62547  -5700939.96145  21739208.6724                   21739207.4654
  -7400336.26647  -5704240.55144  22280060.9534                   22280059.7774
   4538644.80548   3540927.49645  21242973.8284                   21242971.8014
   2686764.13747   2099938.99245  21563179.6954                   21563175.6294
   7828947.52347   6098649.23044  23048297.9224                   23048295.5944
  -5177312.96547  -3987081.55144  22785160.5634                   22785158.7384
 11  8 20 17 34  0.0000000  0  9G03G24G07G08G11G13G19G23G28
   7456104.77046   5808731.82843  23577762.8204                   23577764.3204
   2740853.08646   3848390.84453  23692781.9064                   23692784.5704
  -5017339.19547  -3893041.96146  20492453.4454                   20492451.1454
  -7524448.29747  -5824936.30545  21708928.3284                   21708926.7154
  -7551373.78547  -5821932.10544  22251320.1804                   22251319.0594
   4534731.71547   3537878.27745  21242229.0944                   21242227.7814
   2664442.35547   2082545.37145  21558931.6644                   21558927.8284
   7851523.01647   6116240.38344  23052593.7584                   23052591.3404
  -5304524.61747  -4086207.48844  22760952.8674                   22760951.3984
 11  8 20 17 34 30.0000000  0  9G03G24G07G08G11G13G19G23G28
   9050358.67246   7051007.51643  23881139.8134                   23881140.8524
   4154846.82446   4950204.22342  23961855.4454                   23961858.8874
  -3564473.69548  -2760938.96946  20768924.7344                   20768922.4694
  -6108103.19547  -4721290.73845  21978449.4614                   21978448.3754
  -6126703.50847  -4711799.41844  22522426.0784                   22522423.7974
   6106604.86347   4762714.45745  21541346.5634                   21541345.2384
   4217976.91447   3293091.75445  21854558.9534                   21854556.0164
   9449620.07847   7361510.68843  23356701.6094                   23356699.4884
  -3856175.16447  -2957623.48844  23036564.5084                   23036562.5704
 11  8 20 17 35  0.0000000  0  9G03G24G07G08G11G13G19G23G28
   9069320.91846   7065783.23442  23884748.1564                   23884748.3444
   3993434.66846   4824428.54342  23931139.8284                   23931142.1604
  -3686779.20347  -2856241.96546  20745651.0164                   20745648.7154
  -6267122.16447  -4845201.60545  21948188.9694                   21948187.3634
  -6277161.52047  -4829039.39544  22493794.2034                   22493792.6884
   6103432.34047   4760242.30545  21540743.0004                   21540741.8874
   4196535.20347   3276383.88745  21850479.0634                   21850475.5984
   9472407.90647   7379267.30144  23361038.0634                   23361036.3484
  -3983103.20347  -3056528.43044  23012411.1414                   23012409.3554
 11  8 20 17 35 30.0000000  0  9G03G24G07G08G11G13G19G23G28
   9088412.89846   7080660.00842  23888381.2664                   23888382.0984
   3832050.18846   4698674.41442  23900428.7344                   23900432.3014
  -3808824.78547  -2951342.40646  20722426.0084                   20722424.2544
  -6426073.22747  -4969059.53945  21917941.6484                   21917940.3134
  -6427314.56647  -4946041.73844  22465221.1564                   22465219.7234
   6100636.66447   4758063.80145  21540210.9774                   21540209.7584
   4175540.83647   3260024.60245  21846483.9694                   21846480.4064
   9495308.05947   7397111.43044  23365395.7584                   23365393.9654
  -4109879.93747  -3155315.46544  22988285.8054                   22988284.5274
 11  8 20 17 36  0.0000000  0  9G03G24G07G08G11G13G19G23G28
   9107634.46546   7095637.81342  23892039.6724                   23892039.6374
   3670698.46546   4572945.89842  23869724.9454                   23869727.6724
  -3930606.58247  -3046237.32046  20699252.2344                   20699249.6724
  -6584952.34447  -5092861.43445  21887707.7894                   21887706.4654
  -6577157.71947  -5062802.60944  22436706.7734                   22436705.1684
   6098217.23447   4756178.48845  21539750.9304                   21539749.1054
   4154993.20347   3244013.43045  21842574.1954                   21842570.1954
   9518319.78147   7415042.48843  23369775.2814                   23369773.2624
  -4236504.18047  -3253983.68444  22964189.8364                   22964188.7154
 11  8 20 17 36 30.0000000  0  9G03G24G07G08G11G13G19G23G28
   9126982.39546   7110714.02342  23895721.1174                   23895721.3054
   3509381.85946   4447244.71942  23839028.0634                   23839030.3794
  -4052123.18447  -3140925.58246  20676128.0394                   20676125.6294
  -6743758.25047  -5216606.25845  21857488.2974                   21857486.8094
  -6726688.80547  -5179320.33244  22408252.5634                   22408250.3404
   6096170.71947   4754583.75445  21539361.1644                   21539359.5704
   4134889.14547   3228347.89845  21838748.6094                   21838744.8794
   9541439.48047   7433057.71944  23374174.1414                   23374172.6604
  -4362977.42647  -3352534.24644  22940123.3204                   22940121.5944
 11  8 20 17 37  0.0000000  0  9G03G24G07G08G11G13G19G23G28
   9146458.11746   7125889.75842  23899427.5634                   23899427.7384
   3348107.99646   4321576.78543  23808338.3524                   23808340.7154
  -4173367.86748  -3235401.93746  20653056.3284                   20653054.0594
  -6902484.25447  -5340288.82845  21827283.4384                   21827282.0704
  -6875900.39847  -5295589.09044  22379858.3914                   22379856.4384
   6094498.92247   4753280.99645  21539043.1644                   21539041.5514
   4115230.69947   3213029.58645  21835007.2424                   21835003.9924
   9564669.11347   7451158.59444  23378595.6024                   23378593.7344
  -4489295.93747  -3450964.22344  22916085.6024                   22916083.6844
 11  8 20 17 37 30.0000000  0  9G03G24G07G08G11G13G19G23G28
   9166062.90246   7141166.15643  23903158.6414                   23903158.4494
   3186883.41846   4195947.36742  23777657.7664                   23777660.1564
  -4294335.22747  -3329662.21146  20630036.5864                   20630034.4574
  -7061125.19147  -5463905.13745  21797094.7424                   21797093.6724
  -7024785.97347  -5411603.81244  22351525.8284                   22351524.8594
   6093202.48447   4752270.74245  21538796.8754                   21538795.1414
   4096018.74647   3198059.20345  21831351.2584                   21831347.4654
   9588008.82847   7469345.21943  23383036.2814                   23383034.8874
  -4615457.08247  -3549271.58644  22892078.0554                   22892076.0944
 11  8 20 17 38  0.0000000  0  9G03G24G07G08G11G13G19G23G28
   9185790.89846   7156538.50843  23906912.4694                   23906912.7034
   3025707.87946   4070356.06642  23746986.7894                   23746989.6564
  -4415026.75847  -3423707.55946  20607070.2114                   20607067.6684
  -7219682.53147  -5587456.27345  21766922.9534                   21766921.3284
  -7173345.84047  -5527364.70344  22323255.1414                   22323254.8094
   6092275.23847   4751548.17645  21538620.3674                   21538618.6254
   4077247.79347   3183432.45745  21827779.5394                   21827776.1914
   9611452.66847   7487612.99243  23387497.8834                   23387496.1684
  -4741465.02347  -3647459.55944  22868099.8364                   22868097.6524
 11  8 20 17 38 30.0000000  0  9G03G24G07G08G11G13G19G23G28
   9205638.49246   7172004.09043  23910689.2664                   23910689.3524
   2864583.53146   3944804.69142  23716325.6564                   23716328.1334
  -4535441.28147  -3517537.03946  20584155.6804                   20584153.0904
  -7378154.70347  -5710941.05945  21736766.5234                   21736765.4454
  -7321577.67247  -5642870.00044  22295048.3914                   22295046.7114
   6091713.86747   4751110.68845  21538513.4534                   21538511.9534
   4058914.07047   3169146.40245  21824290.6254                   21824287.5164
   9634996.97346   7505959.04743  23391977.8284                   23391976.5594
  -4867321.37147  -3745529.42644  22844149.5314                   22844147.4344
 11  8 20 17 39  0.0000000  0  9G03G24G07G08G11G13G19G23G28
   9225603.42246   7187561.05543  23914488.5084                   23914488.8594
   2703513.56346   3819295.65643  23685676.3594                   23685677.8674
  -4655576.75847  -3611149.09846  20561295.2344                   20561292.0944
  -7536540.07847  -5834358.18745  21706626.2664                   21706625.2584
  -7469478.81247  -5758117.62544  22266903.1334                   22266901.7934
   6091515.19947   4750955.82845  21538474.9774                   21538474.3014
   4041015.39147   3155199.33645  21820884.4774                   21820881.3954
   9658638.96946   7524381.23443  23396477.1334                   23396475.6644
  -4993027.17647  -3843481.98044  22820228.6174                   22820227.0474
 11  8 20 17 39 30.0000000  0  9G03G24G07G08G11G13G19G23G28
   9245676.49246   7203202.30143  23918308.2344                   23918309.3164
   2542494.69146   3693826.47743  23655034.0944                   23655036.7584
  -4775437.12947  -3704546.78546  20538486.3364                   20538483.6174
  -7694842.77047  -5957710.91045  21676502.7424                   21676500.8914
  -7617052.65247  -5873110.22744  22238820.8984                   22238819.8714
   6091670.82047   4751077.03945  21538505.1414                   21538503.8284
   4023542.74647   3141584.25845  21817559.5234                   21817556.9614
   9682369.55147   7542872.45743  23400993.1724                   23400991.5394
  -5118589.24247  -3941322.53544  22796335.4454                   22796333.3874
 11  8 20 17 40  0.0000000  0  9G03G24G07G08G11G13G19G23G28
   9265854.90646   7218925.65643  23922148.3594                   23922149.3524
   2381529.83246   3568399.37943  23624404.0704                   23624405.8444
  -4895020.91847  -3797728.95746  20515729.9694                   20515727.5704
  -7853061.04347  -6080997.85245  21646394.7274                   21646393.5234
  -7764296.27746  -5987845.49644  22210801.6254                   22210800.1804
   6092177.50447   4751471.80545  21538602.2424                   21538600.3754
   4006493.47747   3128299.07045  21814315.7974                   21814312.0434
   9706185.62146   7561430.28143  23405525.2734                   23405524.0084
  -5244008.75447  -4039052.00044  22772468.0394                   22772467.1604
 11  8 20 17 40 30.0000000  0  9G03G24G07G08G11G13G19G23G28
   9286135.30146   7234728.43443  23926007.5314                   23926009.4064
   2220620.67646   3443015.68043  23593784.5314                   23593786.6954
  -5014327.30147  -3890694.97346  20493027.1484                   20493024.7114
  -8011194.05547  -6204218.34845  21616303.2034                   21616301.9344
  -7911208.14147  -6102322.24644  22182845.1724                   22182843.7274
   6093031.17247   4752136.94545  21538764.8134                   21538762.2894
   3989864.12147   3115341.08645  21811151.3674                   21811148.4184
   9730082.99647   7580051.49643  23410072.7814                   23410071.3324
  -5369287.77347  -4136671.98844  22748628.2504                   22748626.6994
 11  8 20 17 41  0.0000000  0  9G03G24G07G08G11G13G19G23G28
   9306515.00446   7250608.64542  23929884.8984                   23929887.3134
   2059770.44146   3317677.87543  23563175.2664                   23563177.3444
  -5133354.34447  -3983443.31246  20470376.7274                   20470374.3874
  -8169239.78947  -6327370.83245  21586227.7194                   21586226.5124
  -8057785.18047  -6216538.09844  22154952.3594                   22154951.2704
   6094229.20747   4753070.43445  21538992.5704                   21538990.8054
   3973651.87547   3102708.15245  21808066.5474                   21808063.0044
   9754059.00046   7598733.93843  23414635.2034                   23414634.2504
  -5494427.27047  -4234183.29344  22724815.7894                   22724813.6604
 11  8 20 17 41 30.0000000  0  9G03G24G07G08G11G13G19G23G28
   9326987.82846   7266561.38342  23933781.8674                   23933783.0554
   1898978.82046   3192385.73443  23532577.6414                   23532580.0554
  -5252103.62948  -4075975.22746  20447779.8204                   20447777.3014
  -8327199.72347  -6450456.47345  21556169.4144                   21556167.6914
  -8204028.29747  -6330493.73844  22127123.2194                   22127121.8874
   6095764.89547   4754267.02345  21539284.4774                   21539283.1374
   3957850.65247   3090395.48045  21805059.1094                   21805055.6994
   9778107.48446   7617472.85543  23419211.8524                   23419210.8364
  -5619431.37947  -4331589.08244  22701028.1884                   22701026.3634
 11  8 20 17 42  0.0000000  0  9G03G24G07G08G11G13G19G23G28
   9347546.80545   7282581.29342  23937694.2194                   23937695.7194
   1738244.54746   3067138.28943  23501991.1954                   23501992.5164
  -5370577.37548  -4168292.43746  20425234.6024                   20425232.3874
  -8485076.63347  -6573477.41845  21526126.0234                   21526124.8054
  -8349938.72747  -6444190.14844  22099356.7114                   22099356.2274
   6097631.12947   4755721.18445  21539639.6024                   21539638.3484
   3942453.52347   3078397.68845  21802129.7274                   21802126.0394
   9802220.81346   7636262.30143  23423800.2344                   23423799.4884
  -5744305.42247  -4428893.50444  22677265.1254                   22677263.5784
 11  8 20 17 42 30.0000000  0  9G03G24G07G08G11G13G19G23G28
   9368192.88746   7298669.09842  23941623.0004                   23941625.4454
   1577573.89846   2941940.41843  23471416.8444                   23471418.4304
  -5488770.24247  -4260390.78546  20402743.5704                   20402740.7074
  -8642864.77747  -6696429.19145  21496099.6414                   21496098.4224
  -8495510.19947  -6557622.42244  22071656.3594                   22071654.9264
   6099828.53947   4757433.38345  21540058.1644                   21540056.5044
   3927461.24647   3066715.35245  21799276.3834                   21799273.2584
   9826399.79746   7655102.91043  23428402.0234                   23428400.3874
  -5869046.93747  -4526094.66044  22653527.7584                   22653525.7584
 11  8 20 17 43  0.0000000  0  9G03G24G07G08G11G13G19G23G28
  10964341.43446   8542421.13342  24245359.4534                   24245362.0314
   2992393.96546   4044397.68043  23740647.7114                   23740650.2114
  -4031257.42647  -3124666.52046  20680099.1644                   20680096.4614
  -7225138.10547  -5591707.07445  21765884.9064                   21765883.2234
  -7065316.32447  -5443185.59044  22343813.3364                   22343811.7194
   7677772.88347   5987000.35545  21840330.6024                   21840329.5634
   5488290.25047   4282945.69945  22096292.4384                   22096288.9064
  11426059.39846   8901590.77343  23732806.9614                   23732805.9264
  -4418233.89147  -3395590.95744  22929608.4384                   22929606.6134
 11  8 20 17 43 30.0000000  0  9G03G24G07G08G11G13G19G23G28
  10985140.14146   8558627.83242  24249317.4304                   24249319.8404
   2831845.98846   3919295.40243  23710096.5554                   23710097.8834
  -4148896.37147  -3216333.22746  20657713.3054                   20657710.6604
  -7382756.82447  -5714526.84845  21735890.3054                   21735888.9144
  -7210215.55547  -5556094.06644  22316239.1414                   22316237.7894
   7680610.53547   5989211.45345  21840870.6484                   21840869.4654
   5474085.70747   4271877.19145  22093589.2504                   22093585.8554
  11450347.31346   8920516.26243  23737428.7114                   23737427.6294
  -4542726.69547  -3492598.30944  22905918.0004                   22905915.9064
 11  8 20 17 44  0.0000000  0  9G03G24G07G08G11G13G19G23G28
  11006005.04346   8574886.19542  24253287.7814                   24253289.6454
   2671357.35946   3794239.40643  23679555.6024                   23679557.7624
  -4266262.36348  -3307787.25446  20635379.0234                   20635376.2584
  -7540294.16047  -5837283.20345  21705912.0234                   21705910.2234
  -7354781.24247  -5668742.60244  22288729.1884                   22288727.7974
   7683757.27747   5991663.41445  21841469.3674                   21841468.2234
   5460264.92247   4261107.72345  22090959.3444                   22090955.8484
  11474678.73446   8939475.64143  23742059.2894                   23742058.0554
  -4667102.97747  -3589514.85544  22882250.3204                   22882248.2464
 11  8 20 17 44 30.0000000  0  9G03G24G07G08G11G13G19G23G28
  11026941.56346   8591200.23442  24257272.0944                   24257273.8324
   2510939.18046   3669238.28543  23649030.2344                   23649031.7894
  -4383345.24247  -3399020.66046  20613098.7114                   20613096.3014
  -7697740.34047  -5959968.52345  21675951.3284                   21675949.1524
  -7499002.23047  -5781122.55144  22261285.1024                   22261283.6484
   7687218.12147   5994360.11345  21842128.2584                   21842126.9304
   5446832.63747   4250640.97745  22088403.2734                   22088399.7504
  11499058.40646   8958472.62943  23746698.6564                   23746697.8674
  -4791356.01647  -3686335.37544  22858605.0004                   22858602.8054
 11  8 20 17 45  0.0000000  0  8G24G07G08G11G13G19G23G28
   2350585.85546   3544287.70743  23618515.1024                   23618517.5744
  -4500151.71147  -3490038.69546  20590871.6564                   20590868.8794
  -7855102.05147  -6082588.01245  21646006.2664                   21646005.0204
  -7642884.69147  -5893238.70744  22233905.2194                   22233903.7624
   7690981.25847   5997292.36745  21842844.5704                   21842843.1484
   5433777.73047   4240468.29745  22085918.8054                   22085915.4924
  11523475.44546   8977498.72344  23751345.8134                   23751344.6334
  -4915495.19547  -3783067.18044  22834982.0164                   22834980.6024
 11  8 20 17 45 30.0000000  0  8G24G07G08G11G13G19G23G28
   2190303.44546   3419392.36343  23588014.4144                   23588015.9734
  -4616677.18048  -3580837.75046  20568697.4614                   20568695.1604
  -8012374.27747  -6205137.78145  21616077.8444                   21616076.7584
  -7786422.62547  -6005086.41844  22206591.0234                   22206589.1094
   7695047.21147   6000460.57445  21843618.1484                   21843616.5864
   5421100.46147   4230589.87945  22083506.1644                   22083503.2234
  11547929.57447   8996553.71943  23755998.9534                   23755997.7074
  -5039518.38747  -3879708.62544  22811381.3594                   22811380.0514
 11  8 20 17 46  0.0000000  0  8G24G07G08G11G13G19G23G28
   2030098.81646   3294557.65243  23557528.2664                   23557530.3364
  -4732915.68448  -3671413.21146  20546577.4924                   20546574.9804
  -8169550.85247  -6327613.02745  21586168.6644                   21586167.0164
  -7929609.58247  -6116660.63344  22179342.8524                   22179342.0784
   7699416.87147   6003865.44545  21844449.3834                   21844448.1994
   5408802.09047   4221006.70345  22081166.5554                   22081162.9804
  11572422.25446   9015638.74243  23760660.3204                   23760658.2934
  -5163422.71147  -3976257.41844  22787803.7974                   22787801.7934
 11  8 20 17 46 30.0000000  0  8G24G07G08G11G13G19G23G28
   1869970.99246   3169782.77743  23527057.2664                   23527059.6214
  -4848869.25448  -3761766.64546  20524512.5944                   20524510.1914
  -8326633.96147  -6450015.42645  21556276.6644                   21556275.0044
  -8072447.11347  -6227962.57045  22152162.2974                   22152160.8634
   7704082.98047   6007501.32045  21845337.9454                   21845336.4104
   5396875.76247   4211713.43045  22078897.2034                   22078893.9064
  11596945.83246   9034747.83643  23765327.2974                   23765325.7504
  -5287213.18747  -4072717.50844  22764246.7814                   22764245.0394
 11  8 20 17 47  0.0000000  0  8G24G07G08G11G13G19G23G28
   1709924.45747   3045071.23443  23496601.3444                   23496603.1294
  -4964534.78147  -3851895.62946  20502502.4694                   20502499.6524
  -8483620.35247  -6572342.46545  21526403.2034                   21526401.3634
  -8214931.07447  -6338988.99244  22125048.4304                   22125046.9414
   7709043.94147   6011366.95345  21846281.7034                   21846280.4454
   5385319.95747   4202708.87545  22076697.9224                   22076694.9144
  11621499.22746   9053880.14843  23769999.0864                   23769998.7344
  -5410889.67647  -4169088.77044  22740711.6334                   22740709.4924
 11  8 20 17 47 30.0000000  0  8G24G07G08G11G13G19G23G28
   1549963.16046   2920426.12543  23466161.8524                   23466163.3524
  -5079908.94548  -3941797.57446  20480547.0944                   20480544.8594
  -8640507.10947  -6694591.86745  21496548.1564                   21496546.6844
  -8357057.34047  -6449736.69544  22098002.6174                   22098001.0354
   7714297.62947   6015460.66845  21847282.1334                   21847280.0124
   5374132.99647   4193991.74245  22074569.2504                   22074566.3134
  11646080.41446   9073034.12543  23774676.2194                   23774676.1914
  -5534451.89147  -4265371.01644  22717198.7344                   22717196.7894
 11  8 20 17 48  0.0000000  0  8G24G07G08G11G13G19G23G28
   1390090.19946   2795849.84043  23435738.5314                   23435740.8554
  -5194990.70747  -4031471.68046  20458647.8754                   20458645.4184
  -8797291.69947  -6816761.67245  21466713.4304                   21466711.6724
  -8498823.70747  -6560203.95744  22071025.2194                   22071023.7034
   7719841.43047   6019780.46145  21848336.3364                   21848335.4654
   5363312.32447   4185560.00445  22072509.8444                   22072506.6294
  11670686.41846   9092207.44943  23779359.5004                   23779359.0044
  -5657900.89847  -4361565.03544  22693707.1414                   22693705.4104
 11  8 20 17 48 30.0000000  0  8G24G07G08G11G13G19G23G28
   1230304.36346   2671341.45743  23405332.6414                   23405333.6604
  -5309781.48048  -4120919.03146  20436804.0784                   20436801.4344
  -8953975.85547  -6938853.20345  21436897.3134                   21436895.5824
  -8640231.59447  -6670391.88744  22044116.1804                   22044114.7894
   7725668.38347   6024320.85545  21849445.3284                   21849444.7854
   5352851.21147   4177408.47345  22070518.8984                   22070516.0704
  11695310.69946   9111395.00043  23784044.6804                   23784044.4104
  -5781241.27347  -4457674.39544  22670236.6024                   22670234.1914
 11  8 20 17 49  0.0000000  0  8G24G07G08G11G13G19G23G28
   1070609.02746   2546903.59443  23374943.3444                   23374944.6374
  -5424279.86748  -4210138.55546  20415015.6644                   20415013.2304
  -9110557.95747  -7060865.22345  21407100.5314                   21407099.1564
  -8781278.06247  -6780298.18745  22017275.9534                   22017274.4964
   7731775.35547   6029079.46145  21850607.5314                   21850606.2464
   5342746.75447   4169534.84445  22068596.9224                   22068593.6884
  11719950.18446   9130594.40643  23788734.8364                   23788733.6174
  -5904474.23447  -4553700.08644  22646785.2814                   22646784.0664
 11  8 20 17 49 30.0000000  0  8G24G07G08G11G13G19G23G28
    911008.34447   2422539.45743  23344572.5864                   23344573.8404
  -5538482.59848  -4299127.70346  20393283.5864                   20393281.3674
  -9267034.87947  -7182795.26245  21377323.8054                   21377322.6724
  -8921959.44147  -6889920.00844  21990505.2114                   21990504.0474
   7738160.17247   6034054.57844  21851822.9844                   21851821.1524
   5332996.97347   4161937.57845  22066741.2504                   22066737.9024
  11744603.54346   9149804.62143  23793425.5314                   23793424.8484
  -6027599.54747  -4649641.85244  22623356.0084                   22623353.8714
 11  8 20 17 50  0.0000000  0  9G17G24G07G08G11G13G19G23G28
   9183592.95356   7199403.90653  24527582.0314                   24527582.9454
    751503.13346   2298249.74243  23314219.0554                   23314220.5474
  -5652390.04348  -4387886.75046  20371607.4844                   20371604.9264
  -9423406.54747  -7304643.30945  21347567.9454                   21347566.0004
  -9062275.27747  -6999257.00044  21963803.9774                   21963802.6764
   7744817.98847   6039242.42644  21853089.6644                   21853088.2234
   5323597.15247   4154613.01245  22064952.7194                   22064949.4104
  11769265.28546   9169021.41843  23798118.7274                   23798117.7814
  -6150620.58247  -4745502.38744  22599945.8444                   22599943.6094
 11  8 20 17 50 30.0000000  0  9G17G24G07G08G11G13G19G23G28
   8989632.87546   7048266.29343  24490672.8674                   24490673.3164
    592088.96946   2174030.93843  23283883.6254                   23283885.3134
  -5766007.88748  -4476420.14546  20349986.8364                   20349984.3914
  -9579678.40647  -7426413.57445  21317830.3444                   21317828.8204
  -9202230.46147  -7108312.94544  21937171.5164                   21937169.5164
   7751737.89847   6044634.49244  21854406.6094                   21854405.1844
   5314536.96947   4147553.10245  22063228.6174                   22063225.1334
  11793925.04346   9188236.64543  23802811.8834                   23802810.9304
  -6273545.96947  -4841288.36744  22576553.6094                   22576551.8054
 11  8 20 17 51  0.0000000  0  9G17G24G07G08G11G13G19G23G28
   8795733.16846   6897175.70343  24453774.7114                   24453775.5474
    432765.14546   2049882.55143  23253565.4384                   23253566.7304
  -5879338.06248  -4564729.37146  20328421.1334                   20328418.3794
  -9735852.00447  -7548107.25845  21288111.0234                   21288109.7734
  -9341826.05147  -7217088.69544  21910607.2274                   21910605.4414
   7758913.43847   6050225.75044  21855771.7664                   21855770.8444
   5305809.99647   4140752.83645  22061567.9534                   22061565.0204
  11818576.29346   9207445.23843  23807502.4384                   23807501.9144
  -6396379.93047  -4937003.12144  22553179.3204                   22553177.1604
 11  8 20 17 51 30.0000000  0  9G17G24G07G08G11G13G19G23G28
   8601893.36346   6746131.78544  24416887.5944                   24416889.7734
    273531.88346   1925804.71143  23223264.3134                   23223265.1334
  -5992381.54748  -4652815.22346  20306909.5234                   20306907.0664
  -9891928.26247  -7669725.10945  21258410.6024                   21258409.5354
  -9481062.43747  -7325584.57045  21884111.4844                   21884109.5234
   7766338.70347   6056011.59044  21857185.1414                   21857184.1334
   5297410.62947   4134207.84045  22059969.0084                   22059966.4654
  11843213.37546   9226642.71943  23812190.8984                   23812190.7034
  -6519126.50847  -5032649.78944  22529821.0554                   22529819.0984
 11  8 20 17 52  0.0000000  0  9G17G24G07G08G11G13G19G23G28
   9983538.70346   7822738.65243  24679805.6174                   24679808.5744
   1689814.44946   3029401.55543  23492773.6884                   23492774.9924
  -4529715.73448  -3513075.62946  20585245.4224                   20585243.3754
  -8472482.64147  -6563663.57045  21528522.2814                   21528520.9064
  -8044515.38347  -6206197.21545  22157477.1414                   22157475.6094
   9349427.52747   7289587.21544  22158437.0314                   22158435.6724
   6864753.29347   5355513.78145  22358224.1414                   22358221.8444
  13443249.86746  10473424.19543  24116667.4454                   24116667.9144
  -5066365.38747  -3900628.12544  22806272.3984                   22806270.4064
 11  8 20 17 52 30.0000000  0  9G17G24G07G08G11G13G19G23G28
   9789817.48046   7671787.18043  24642941.4224                   24642944.3134
   1530764.27746   2905466.41443  23462507.8524                   23462508.9614
  -4642187.26248  -3600715.79346  20563842.8134                   20563840.4844
  -8628364.52747  -6685129.94545  21498858.6804                   21498857.4694
  -8183032.47347  -6314132.57845  22131117.6644                   22131116.8094
   9357336.28547   7295749.83244  22159941.9224                   22159940.5864
   6856993.54747   5349467.19145  22356748.0864                   22356745.3714
  13467843.27345  10492587.62543  24121347.1024                   24121347.6604
  -5188947.03947  -3996146.27344  22782945.7504                   22782943.7274
 11  8 20 17 53  0.0000000  0  9G17G24G07G08G11G13G19G23G28
   9596161.39546   7520886.39143  24606090.9224                   24606092.0864
   1371813.20346   2781608.47743  23432260.0314                   23432261.8954
  -4754367.31248  -3688128.81646  20542495.8444                   20542493.4064
  -8784143.28547  -6806515.98845  21469215.4774                   21469213.6214
  -8321183.22747  -6421782.47344  22104828.7894                   22104827.0784
   9365484.85947   7302099.28544  22161492.1644                   22161491.6414
   6849552.30547   5343668.79745  22355332.0784                   22355328.7854
  13492413.36746  10511732.95343  24126023.6484                   24126023.6174
  -5311444.78147  -4091599.03945  22759635.8054                   22759633.3794
 11  8 20 17 53 30.0000000  0  9G17G24G07G08G11G13G19G23G28
   9402568.32446   7370034.79743  24569251.8674                   24569252.4344
   1212960.09046   2657826.88743  23402031.3524                   23402033.0514
  -4866258.14148  -3775316.47746  20521203.5554                   20521200.9694
  -8939820.74647  -6927823.08645  21439591.0394                   21439589.2664
  -8458969.59047  -6529148.44944  22078609.4144                   22078607.2194
   9373866.27747   7308630.17244  22163087.8134                   22163086.8874
   6842422.41447   5338113.00045  22353975.5634                   22353971.9184
  13516953.15246  10530854.60243  24130693.3134                   24130693.9534
  -5433864.01247  -4186990.62945  22736340.1094                   22736338.1094
 11  8 20 17 54  0.0000000  0  9G17G24G07G08G11G13G19G23G28
   9209032.82646   7219228.01743  24532421.9924                   24532423.7154
   1054199.66446   2534117.49243  23371820.3134                   23371821.5664
  -4977865.78948  -3862283.48446  20499965.5164                   20499962.9414
  -9095403.01647  -7049056.00445  21409984.6644                   21409982.7544
  -8596396.89547  -6636234.64144  22052457.7344                   22052455.7774
   9382468.91047   7315333.44945  22164724.5704                   22164724.1174
   6835593.16847   5332791.48845  22352676.5234                   22352672.1054
  13541451.67246  10549944.12143  24135355.7424                   24135355.4694
  -5556213.36347  -4282327.76644  22713058.1024                   22713055.4844
 11  8 20 17 54 30.0000000  0  9G17G24G07G08G11G13G19G23G28
   9015562.17246   7068471.78143  24495606.1254                   24495607.5944
    895541.08246   2410487.48843  23341628.9064                   23341630.6334
  -5089182.75048  -3949023.97346  20478782.5314                   20478780.3874
  -9250881.93447  -7170208.38345  21380398.2424                   21380395.9924
  -8733456.61747  -6743034.40645  22026375.6954                   22026374.1294
   9391296.05147   7322211.63745  22166404.4224                   22166403.4734
   6829067.38747   5327706.41845  22351434.5634                   22351431.5864
  13565911.91446  10569003.80143  24140010.9774                   24140010.8484
  -5678488.42247  -4377607.01245  22689789.3754                   22689787.7894
 11  8 20 17 55  0.0000000  0  9G17G24G07G08G11G13G19G23G28
   8822161.14546   6917769.82843  24458803.0864                   24458804.2424
    736989.83646   2286941.12543  23311457.8754                   23311459.2584
  -5200204.84448  -4035534.70346  20457656.2504                   20457653.3244
  -9406252.99247  -7291276.72345  21350831.7114                   21350830.2034
  -8870144.34847  -6849544.28545  22000364.5554                   22000363.2074
   9400346.99247   7329264.23845  22168127.0634                   22168125.7234
   6822844.68847   5322857.53145  22350249.7344                   22350247.1334
  13590333.27746  10588033.18843  24144659.1174                   24144658.3404
  -5800687.46547  -4472827.02045  22666535.3674                   22666533.9144
 11  8 20 17 55 30.0000000  0  9G17G24G07G08G11G13G19G23G28
   8628833.22346   6767124.80543  24422013.9064                   24422015.0354
    578550.78146   2163482.18444  23281307.2034                   23281309.5944
  -5310928.41448  -4121812.81246  20436585.6484                   20436583.2704
  -9561512.10947  -7412257.83645  21321286.7814                   21321285.5204
  -9006455.35947  -6955760.61745  21974426.1254                   21974424.3674
   9409620.21147   7336490.04744  22169892.3054                   22169890.3794
   6816924.12147   5318244.04345  22349123.4304                   22349120.5744
  13614715.37147  10607031.98443  24149298.0234                   24149298.8484
  -5922809.74247  -4567987.21545  22643296.5004                   22643294.8054
 11  8 20 17 56  0.0000000  0  9G17G24G07G08G11G13G19G23G28
   8435570.71146   6616530.72743  24385237.2274                   24385237.7624
    420216.84446   2040105.12943  23251177.9384                   23251179.1994
  -5421361.82848  -4207864.82446  20415570.7344                   20415568.4224
  -9716667.32447  -7533157.98845  21291761.5784                   21291760.3954
  -9142397.26247  -7061689.35245  21948557.1414                   21948555.2464
   9419102.93847   7343879.08644  22171696.7894                   22171695.4494
   6811292.66447   5313855.84445  22348052.4454                   22348048.4224
  13639045.04346  10625989.94143  24153928.2814                   24153927.6414
  -6044866.34447  -4663096.22344  22620069.7114                   22620067.7894
 11  8 20 17 56 30.0000000  0  9G17G24G07G08G11G13G19G23G28
   8242376.48846   6465989.84443  24348473.0944                   24348473.9264
    261991.71546   1916812.91043  23221067.6954                   23221069.9344
  -5531502.46548  -4293688.70746  20394611.8914                   20394609.5904
  -9871715.65247  -7653974.85245  21262256.3984                   21262255.6054
  -9277967.07847  -7167328.14845  21922758.8754                   21922757.3634
   9428792.51647   7351429.32844  22173540.0164                   22173539.6134
   6805947.95347   5309691.09845  22347035.5784                   22347030.8794
  13663320.16046  10644905.37143  24158547.5164                   24158548.1134
  -6166857.35547  -4758154.12144  22596855.5234                   22596853.7704
 11  8 20 17 57  0.0000000  0  9G17G24G07G08G11G13G19G23G28
   8049256.79746   6315507.12143  24311723.3054                   24311725.3554
    103882.94946   1793611.33643  23190980.4844                   23190982.4734
  -5641344.28948  -4379279.75046  20373709.8914                   20373707.4844
 -10026650.55547  -7774703.34045  21232774.1174                   21232772.3094
  -9413158.27047  -7272671.91845  21897032.9534                   21897031.0164
   9438690.01247   7359141.57044  22175423.8754                   22175422.4694
   6800891.76647   5305751.18845  22346072.8284                   22346069.3444
  13687542.38746  10663779.64142  24163157.4064                   24163157.0904
  -6288779.66847  -4853158.50044  22573654.3524                   22573652.3364
 11  8 20 17 57 30.0000000  0  9G17G24G07G08G11G13G19G23G28
   7856206.71146   6165078.56643  24274986.7734                   24274988.8284
    -54113.12146   1670497.56343  23160915.1024                   23160916.8984
  -5750892.39548  -4464641.91446  20352863.3914                   20352861.2304
 -10181476.58647  -7895346.98445  21203311.7274                   21203309.6884
  -9547974.62947  -7377723.59845  21871377.7664                   21871376.3754
   9448785.58247   7367008.15244  22177344.7344                   22177343.6024
   6796114.60947   5302028.69145  22345163.8914                   22345160.2934
  13711701.785 6                  24167754.836
  -6410641.16447  -4948115.49244  22550464.6484                   22550463.3324
 11  8 20 17 58  0.0000000  0  9G17G24G07G08G11G13G19G23G28
   7663224.09046   6014702.61343  24238264.3984                   24238265.0474
   -211997.80546   1547470.62544  23130870.6484                   23130872.9804
  -5860149.10548  -4549777.01646  20332072.7664                   20332070.4024
 -10336195.89547  -8015907.46145  21173869.7034                   21173868.2504
  -9682418.35947  -7482484.92245  21845794.5234                   21845792.4224
   9459072.38747   7375023.77744  22179302.7504                   22179301.2384
   6791609.23447   5298517.96145  22344306.3594                   22344303.4304
  13735791.348 5                  24172338.242
  -6532446.64147  -5043028.80944  22527286.3364                   22527284.2194
 11  8 20 17 58 30.0000000  0  9G17G24G07G08G11G13G19G23G28
   7470310.60947   5864380.55543  24201553.6724                   24201554.9734
   -369768.38347   1424532.58244  23100847.8284                   23100849.8954
  -5969112.73448  -4634683.75046  20311337.5084                   20311335.0944
 -10490806.46947  -8136383.22345  21144447.9144                   21144446.1844
  -9816487.25047  -7586954.16045  21820282.2424                   21820279.9344
   9469546.77347   7383185.53544  22181295.9064                   22181294.3874
   6787372.60247   5295216.63345  22343499.6884                   22343497.8404
  13759808.586 5                  24176909.047
  -6654197.67647  -5137899.70744  22504117.9224                   22504115.8204
 11  8 20 17 59  0.0000000  0  9G17G24G07G08G11G13G19G23G28
   7277472.66047   5714117.31644  24164858.4454                   24164858.5864
   -527417.40247   1301689.22343  23070848.2114                   23070850.1374
  -6077777.44548  -4719357.55946  20290659.4774                   20290656.7974
 -10645301.80547  -8256769.18045  21115048.1644                   21115046.7074
  -9950174.82447  -7691126.27745  21794841.7664                   21794840.2074
   9480209.70747   7391494.22744  22183324.6094                   22183323.7664
   6783405.75447   5292125.52345  22342745.7664                   22342742.9884
  13783754.67245  10683327.25053  24181466.1954                   24181464.5354
  -6775890.80147  -5232725.47744  22480960.3524                   22480958.0984
 11  8 20 17 59 30.0000000  0  9G17G24G07G08G11G13G19G23G28
   7084705.78946   5563909.41443  24128175.4774                   24128175.6644
   -684948.49646   1178937.79743  23040871.1954                   23040872.4694
  -6186148.26648  -4803802.36346  20270036.9224                   20270034.5944
 -10799686.28947  -8377068.75045  21085669.7114                   21085668.3554
 -10083485.16047  -7795004.43445  21769473.7504                   21769472.1954
   9491051.98447   7399942.66444  22185388.0004                   22185387.2664
   6779699.48047   5289237.48445  22342040.4774                   22342037.7504
  13807620.28946  10701923.57442  24186009.1724                   24186008.4734
  -6897533.53947  -5327512.00044  22457812.3984                   22457810.1804
 11  8 20 18  0  0.0000000  0  9G17G24G07G08G11G13G19G23G28
   6892015.57447   5413761.35944  24091508.7504                   24091508.0204
   -842354.75447   1056283.63343  23010917.6094                   23010919.0784
  -6294219.43748  -4888013.67246  20249472.0314                   20249469.4654
 -10953953.97347  -8497277.33245  21056313.7114                   21056312.4414
 -10216412.12547  -7898583.86345  21744178.4694                   21744176.9064
   9502073.88347   7408531.05144  22187485.5474                   22187484.2234
   6776254.91447   5286553.35945  22341384.6484                   22341381.1094
  13831406.10946  10720457.71543  24190535.1804                   24190535.5784
  -7019123.32447  -5422257.25445  22434674.1954                   22434672.6174
 11  8 20 18  0 30.0000000  0  9G17G24G07G08G11G13G19G23G28
   8274825.07847   6491275.33244  24354648.2974                   24354648.9104
    575786.48046   2161328.80943  23280780.4924                   23280782.3054
  -4826571.39148  -3744391.81246  20528755.9614                   20528753.2424
  -9532683.05547  -7389793.48445  21326772.7504                   21326770.9804
  -8773534.82047  -6774263.85545  22018748.5944                   22018747.4574
  11088686.19547   8644852.26644  22489407.8674                   22489406.9494
   8348483.34047   6511666.39144  22640568.9844                   22640566.4654
  15430523.13346  11966522.68843  24494837.4304                   24494837.7154
  -5565242.57447  -4289363.13344  22711339.2194                   22711337.2384
 11  8 20 18  1  0.0000000  0  9G17G24G07G08G11G13G19G23G28
   8082285.66046   6341244.78543  24318007.7344                   24318010.2544
    418629.91846   2038869.23843  23250874.9384                   23250876.0354
  -4934047.19148  -3828139.19546  20508303.8054                   20508301.1914
  -9686719.05947  -7509821.52745  21297461.1094                   21297458.9454
  -8905697.36347  -6877247.62945  21993598.8284                   21993597.5514
  11100049.01647   8653706.30944  22491570.4534                   22491569.0944
   8345544.02347   6509375.96944  22640010.3754                   22640007.6414
  15454132.50046  11984919.32444  24499330.3524                   24499330.7544
  -5686738.21947  -4384035.05144  22688219.2734                   22688217.4534
 11  8 20 18  1 30.0000000  0  9G17G24G07G08G11G13G19G23G28
   7889819.98446   6191271.64543  24281382.4844                   24281384.2774
    261598.17647   1916506.91443  23220992.6884                   23220993.7344
  -5041227.00048  -3911655.93046  20487908.1024                   20487905.8714
  -9840640.32047  -7629760.16045  21268169.9384                   21268168.6764
  -9037478.75847  -6979934.41445  21968522.0554                   21968520.2774
  11111573.34047   8662686.20744  22493763.9384                   22493762.8404
   8342848.52747   6507275.53544  22639497.5314                   22639494.2504
  15477644.95746  12003240.45343  24503804.3914                   24503805.0634
  -5808192.78147  -4478674.94944  22665107.1804                   22665105.3444
 11  8 20 18  2  0.0000000  0  9G17G24G07G08G11G13G19G23G28
   7697435.58246   6041361.79743  24244772.1484                   24244775.2274
    104700.00847   1794248.67243  23191135.7894                   23191137.4654
  -5148103.77748  -3994936.54746  20467570.1884                   20467567.7304
  -9994439.20747  -7749603.43445  21238903.2814                   21238901.5354
  -9168871.14847  -7082318.07045  21943518.8984                   21943517.3244
  11123261.17247   8671793.52044  22495987.6414                   22495986.8594
   8340399.43447   6505367.10544  22639031.6414                   22639029.0784
  15501063.51646  12021488.42643  24508261.2504                   24508261.5434
  -5929601.40647  -4573279.03944  22642003.5314                   22642001.5944
 11  8 20 18  2 30.0000000  0  9G17G24G07G08G11G13G19G23G28
   7505130.63346   5891513.94543  24208178.4614                   24208180.0514
    -52065.29746   1672093.93843  23161304.0634                   23161305.1954
  -5254679.70748  -4077982.73046  20447289.6094                   20447286.7504
 -10148117.06647  -7869352.40245  21209659.6174                   21209657.7234
  -9299875.92647  -7184399.69145  21918589.5164                   21918587.8094
  11135106.04347   8681023.18844  22498241.7894                   22498241.0634
   8338190.08647   6503645.49245  22638610.8834                   22638608.2704
  15524381.41046  12039657.93443  24512698.3754                   24512698.7814
  -6050969.21147  -4667851.32844  22618908.4384                   22618905.9844
 11  8 20 18  3  0.0000000  0  9G17G24G07G08G11G13G19G23G28
   7312907.41846   5741729.68443  24171599.3284                   24171600.4694
   -208694.76646   1550045.05543  23131498.2814                   23131499.5514
  -5360953.00048  -4160793.09846  20427066.5554                   20427063.9614
 -10301671.37947  -7989005.08245  21180438.7344                   21180437.1724
  -9430491.16847  -7286177.77745  21893734.3984                   21893732.4304
  11147104.72347   8690372.72344  22500524.6174                   22500524.1294
   8336217.97747   6502108.73845  22638236.2584                   22638232.6804
  15547596.11346  12057747.05143  24517115.5784                   24517117.2854
  -6172297.21547  -4762392.60245  22595820.4694                   22595818.3524
 11  8 20 18  3 30.0000000  0  8G17G24G07G08G11G13G19G28
   7120771.44946   5592013.39143  24135037.6884                   24135037.9884
   -365181.49247   1428107.43443  23101720.3134                   23101721.5004
  -5466918.00448  -4243363.24246  20406902.1484                   20406899.1644
 -10455096.39847  -8108557.03145  21151243.2894                   21151241.7664
  -9560710.73447  -7387647.56245  21868954.3284                   21868952.6294
  11159257.94147   8699842.66044  22502837.8284                   22502837.1684
   8334483.78147   6500757.35945  22637905.9304                   22637902.5434
  -6293582.30147  -4856900.43744  22572740.2664                   22572738.6564
 11  8 20 18  4  0.0000000  0  8G17G24G07G08G11G13G19G28
   6928723.87146   5442366.03943  24098493.0474                   24098493.0594
   -521523.52347   1306282.56644  23071969.1024                   23071970.6334
  -5572573.87548  -4325692.50046  20386796.6724                   20386793.8634
 -10608390.77347  -8228007.17245  21122072.4844                   21122070.6684
  -9690533.10247  -7488807.82845  21844249.8754                   21844248.1174
  11171561.42647   8709429.69944  22505179.0634                   22505177.8674
   8332983.42647   6499588.16844  22637620.2734                   22637617.2734
  -6414826.40247  -4951376.36345  22549668.2114                   22549666.3634
 11  8 20 18  4 30.0000000  0  8G17G24G07G08G11G13G19G28
   6736762.67646   5292785.99643  24061962.7734                   24061963.9064
   -677721.85947   1184569.64543  23042245.3524                   23042247.3244
  -5677922.98848  -4407782.71946  20366749.3524                   20366746.0594
 -10761555.92247  -8347356.62545  21092926.1564                   21092924.1374
  -9819960.28147  -7589660.14545  21819620.6484                   21819619.1254
  11184008.11347   8719128.33244  22507547.4384                   22507546.3094
   8331710.45747   6498596.19145  22637378.1954                   22637374.6764
  -6536034.68047  -5045824.35944  22526603.4534                   22526601.2344
 11  8 20 18  5  0.0000000  0  8G17G24G07G08G11G13G19G28
   6544901.36346   5143283.78943  24025452.3594                   24025453.6684
   -833762.02046   1062979.99644  23012552.2114                   23012553.3594
  -5782952.18748  -4489623.66446  20346762.9064                   20346760.2384
 -10914578.30147  -8466594.82845  21063806.7734                   21063805.0164
  -9948978.46147  -7690193.77745  21795068.9304                   21795067.2704
  11196606.58247   8728945.21544  22509945.2034                   22509944.1604
   8330673.41047   6497788.04744  22637180.9064                   22637178.2734
  -6657196.58647  -5140236.21144  22503547.4064                   22503544.6684
 11  8 20 18  5 30.0000000  0  8G17G24G07G08G11G13G19G28
   6353143.55946   4993862.18443  23988961.8134                   23988962.9924
   -989639.00047    941517.46944  22982889.3524                   22982890.3094
  -5887658.15248  -4571212.74246  20326837.7274                   20326835.4534
 -11067453.71147  -8585718.50845  21034715.1804                   21034714.0434
 -10077584.07447  -7790405.93045  21770596.0704                   21770594.4844
  11209355.37147   8738879.24644  22512371.1484                   22512370.4414
   8329870.91847   6497162.69544  22637028.4304                   22637024.4844
  -6778311.21547  -5234611.22745  22480499.7114                   22480497.2424
 11  8 20 18  6  0.0000000  0  9G17G24G07G08G26G11G13G19G28
   6161482.51646   4844515.99644  23952490.7894                   23952491.1484
  -1145358.46946    820177.68444  22953257.3204                   22953258.2274
  -5992048.11348  -4652555.60246  20306972.8364                   20306970.4024
 -11220188.70347  -8704732.77745  21005651.2034                   21005649.4774
  12354747.99215                  24202498.945
 -10205783.44147  -7890301.52745  21746201.0864                   21746199.1374
  11222242.61347   8748921.10944  22514823.6954                   22514823.2664
   8329291.35947   6496711.03544  22636918.8984                   22636914.6994
  -6899388.19147  -5328956.89145  22457459.6724                   22457457.4264
 11  8 20 18  6 30.0000000  0  9G17G24G07G08G26G11G13G19G28
   5969926.52346   4695251.67643  23916038.8594                   23916039.4304
  -1300911.06647    698967.91044  22923656.8284                   22923657.7704
  -6096113.88348  -4733645.81646  20287170.2734                   20287167.4844
 -11372774.72347  -8823630.96145  20976614.9144                   20976612.9924
  12175990.742 5                  24168482.297
 -10333568.15247  -7989874.00845  21721884.6174                   21721882.4964
  11235271.42647   8759073.30944  22517303.2974                   22517302.4024
   8328938.37946   6496435.95344  22636850.1414                   22636847.1884
  -7020422.42247  -5423269.27045  22434426.9614                   22434425.1414
 11  8 20 18  7  0.0000000  0  9G17G24G07G08G26G11G13G19G28
   5778469.08646   4546064.14143  23879604.5004                   23879605.9304
  -1456302.32846    577883.89844  22894086.4384                   22894087.9184
  -6199862.22348  -4814488.68746  20267427.6414                   20267424.6174
 -11525217.66048  -8942417.65245  20947605.8444                   20947604.1914
  11997546.434 5                  24134523.797
 -10460944.66047  -8089128.41445  21697645.8524                   21697643.7854
  11248430.12547   8769326.74244  22519807.1564                   22519806.4964
   8328800.70747   6496328.63744  22636825.2974                   22636821.4104
  -7141423.12547  -5517555.50444  22411401.5394                   22411398.9694
 11  8 20 18  7 30.0000000  0  9G17G24G07G08G26G11G13G19G28
   5587114.08246   4396956.47343  23843190.6484                   23843192.5474
  -1611527.43447    456929.33644  22864547.9304                   22864549.6094
  -6303289.80548  -4895081.61346  20247745.6174                   20247743.2854
 -11677513.18447  -9061089.47345  20918625.1094                   20918623.1024
  11819419.426 5                  24100627.469
 -10587908.83647  -8188061.52045  21673484.6414                   21673483.2034
  11261717.77747   8779680.64544  22522336.4844                   22522335.0554
   8328876.87547   6496387.95744  22636839.3984                   22636835.9654
  -7262389.62547  -5611815.09844  22388382.4064                   22388379.9844
 11  8 20 18  8  0.0000000  0  9G17G24G07G08G26G11G13G19G28
   5395866.98446   4247932.86743  23806798.2584                   23806800.0004
  -1766579.47747    336109.60944  22835042.7194                   22835043.6804
  -6406391.19148  -4975420.37146  20228126.3054                   20228123.7734
 -11829655.21947  -9179641.69945  20889673.3364                   20889671.5594
  11641616.191 5                  24066793.188
 -10714454.98447  -8286668.88745  21649403.7734                   21649402.1684
  11275134.93447   8790135.46544  22524889.1644                   22524888.2234
   8329168.12547   6496614.85244  22636894.5554                   22636891.9774
  -7383319.07047  -5706045.81644  22365370.0944                   22365367.9454
 11  8 20 18  8 30.0000000  0  9G17G24G07G08G26G11G13G19G28
   5204732.84846   4098997.27743  23770426.7344                   23770427.5554
  -1921452.64847    215429.28544  22805571.2584                   22805572.2584
  -6509161.72348  -5055501.28946  20208569.6174                   20208567.1254
 -11981638.86747  -9298070.50845  20860751.8834                   20860750.2934
  11464142.520 5                  24033019.758
 -10840578.47347  -8384946.91045  21625403.5944                   21625401.6524
  11288681.15247   8800690.87144  22527467.3284                   22527466.3164
   8329674.50847   6497009.39844  22636990.7504                   22636988.2974
  -7504209.35547  -5800246.01645  22342366.1484                   22342363.5204
 11  8 20 18  9  0.0000000  0  9G17G24G07G08G26G11G13G19G28
   5013718.18846   3950154.80143  23734077.5314                   23734078.5004
  -2076138.98047     94894.53144  22776135.5944                   22776136.2344
  -6611595.25048  -5135319.62946  20189077.0164                   20189074.7974
 -12133456.71547  -9416370.11345  20831861.5004                   20831860.0944
  11287005.887 5                  23999312.961
 -10966271.92247  -8482889.84045  21601484.5004                   21601482.8954
  11302357.85547   8811347.89844  22530069.4694                   22530068.8754
   8330397.67646   6497572.83244  22637129.0554                   22637126.1414
  -7625056.63747  -5894412.70745  22319368.6484                   22319366.9774
 11  8 20 18  9 30.0000000  0  9G17G24G07G08G26G11G13G19G28
   6398256.32046   5029015.77044  23997546.9454                   23997547.3914
   -655205.79747   1202115.27044  23046529.9774                   23046531.1454
  -5138262.06248  -3987267.81246  20469443.2814                   20469440.8444
 -10709676.55947  -8306931.00045  21102798.1724                   21102796.6454
  12685639.34814                  24265463.289
  -9516105.00847  -7352889.63345  21877442.0474                   21877440.6024
  12891586.37547  10049707.69144  22832489.4384                   22832489.1214
   9906759.66047   7725906.78544  22937101.2734                   22937098.0354
  -6170433.28547  -4760939.95345  22596174.4144                   22596172.3554
 11  8 20 18 10  0.0000000  0  9G17G24G07G08G26G11G13G19G28
   6207490.99647   4880367.55544  23961245.6254                   23961245.8404
   -809505.53146   1081881.80143  23017166.8054                   23017168.8134
  -5240012.35948  -4066553.76646  20450080.6724                   20450078.6054
 -10861151.18047  -8424963.15645  21073973.0864                   21073971.7544
  12509188.91014                  24231885.617
  -9640929.12947  -7450155.16845  21853688.6954                   21853687.0634
  12905519.79747  10060564.77744  22835141.2734                   22835140.9844
   9907912.52347   7726805.09844  22937320.5394                   22937316.9224
  -6291193.46147  -4855038.78945  22573195.1644                   22573193.0904
 11  8 20 18 10 30.0000000  0  9G17G24G07G08G26G11G13G19G28
   6016854.58247   4731819.78144  23924968.7424                   23924968.6214
   -963605.86346    961803.67644  22987842.9694                   22987844.3054
  -5341417.25048  -4145570.57446  20430783.8674                   20430781.6334
 -11012449.26647  -8542857.73845  21045182.1884                   21045180.4574
  12333086.98815                  24198374.719
  -9765313.96547  -7547078.40645  21830019.3284                   21830017.6684
  12919578.09447  10071519.19544  22837816.7504                   22837815.9534
   9909277.05547   7727868.32044  22937579.6334                   22937576.1484
  -6411910.13747  -4949103.71545  22550222.6484                   22550221.5044
 11  8 20 18 11  0.0000000  0  9G17G24G07G08G26G11G13G19G28
   5826357.37146   4583380.46944  23888717.9304                   23888718.4384
  -1117495.34046    841889.85944  22958558.9304                   22958560.0204
  -5442466.33648  -4224310.12946  20411554.9924                   20411552.4844
 -11163560.07047  -8660606.39845  21016426.7194                   21016425.2544
  12157344.949 5                  24164931.273
  -9889248.57447  -7643650.82845  21806435.1094                   21806433.2154
  12933767.14147  10082575.45344  22840517.0864                   22840516.2734
   9910859.14847   7729101.07444  22937880.6024                   22937877.7624
  -6532575.36747  -5043128.56645  22527261.4304                   22527259.3404
 11  8 20 18 11 30.0000000  0  9G17G24G07G08G26G11G13G19G28
   5635999.52746   4435049.74643  23852494.2424                   23852495.1214
  -1271172.96146    722141.11744  22929314.4614                   22929315.8594
  -5543160.05948  -4302772.78146  20392393.5314                   20392391.3594
 -11314483.25047  -8778208.85545  20987707.0554                   20987705.2734
  11981963.457 6                  24131559.938
 -10012733.57847  -7739872.89545  21782937.2814                   21782935.2504
  12948081.46547  10093729.37944  22843241.3134                   22843240.4224
   9912654.09446   7730499.68044  22938222.2504                   22938219.7934
  -6653192.18047  -5137115.66845  22504308.6174                   22504306.6604
 11  8 20 18 12  0.0000000  0  9G17G24G07G08G26G11G13G19G28
   5445787.50846   4286832.69143  23816297.1644                   23816298.1024
  -1424631.34046    602563.20344  22900112.8524                   22900113.5004
  -5643492.89148  -4380954.21946  20373301.2504                   20373298.5744
 -11465211.66847  -8895659.55545  20959024.0944                   20959022.5394
  11806949.395 6                  24098253.953
 -10135762.85947  -7835739.86345  21759524.9774                   21759523.5204
  12962522.05947  10104981.68843  22845988.9534                   22845988.4064
   9914663.48846   7732065.35544  22938605.4064                   22938602.2704
  -6773757.41047  -5231062.57045  22481365.8674                   22481363.8914
 11  8 20 18 12 30.0000000  0  9G17G24G07G08G26G11G13G19G28
   5255722.03546   4138729.79344  23780128.3984                   23780129.6884
  -1577868.34846    483157.82044  22870952.9384                   22870953.9024
  -5743463.91848  -4458853.73046  20354277.0004                   20354274.2814
 -11615744.13747  -9012957.57045  20930379.3054                   20930377.4774
  11632304.656 6                  24065020.516
 -10258335.13747  -7931250.71545  21736200.6484                   21736198.6684
  12977085.26247  10116329.51644  22848760.2734                   22848760.2344
   9916883.16447   7733794.88344  22939027.2734                   22939024.4414
  -6894272.60547  -5324970.49244  22458433.0634                   22458430.6454
 11  8 20 18 13  0.0000000  0  9G17G24G07G08G26G11G13G19G28
   5065807.16846   3990744.28543  23743988.8284                   23743990.1954
  -1730878.79347    363928.95344  22841835.2734                   22841836.7584
  -5843069.41448  -4536468.42246  20335322.8284                   20335320.4384
 -11766075.66447  -9130099.00045  20901772.1414                   20901770.1804
  11458033.891 5                  24031857.539
 -10380446.08247  -8026402.09445  21712963.6414                   21712961.9884
  12991770.23047  10127772.23844  22851554.6484                   22851554.5204
   9919312.71147   7735687.98444  22939489.5394                   22939486.8244
  -7014736.62947  -5418838.53545  22435508.3754                   22435506.4494
 11  8 20 18 13 30.0000000  0  9G17G24G07G08G26G11G13G19G28
   4876044.57446   3842877.41443  23707878.0394                   23707879.9384
  -1883659.95747    244878.75844  22812762.0394                   22812763.1134
  -5942308.31248  -4613797.44146  20316438.4064                   20316435.7034
 -11916204.55547  -9247082.54745  20873203.2274                   20873201.4184
  11284139.309 5                  23998766.797
 -10502094.45347  -8121193.01645  21689814.8444                   21689813.2774
  13006573.43447  10139307.06643  22854372.3054                   22854371.2384
   9921948.72347   7737741.95744  22939991.7194                   22939988.1644
  -7135150.66847  -5512667.63345  22412594.6024                   22412592.5234
 11  8 20 18 14  0.0000000  0  9G17G24G07G08G26G11G13G19G28
   4686438.14146   3695132.22344  23671797.7274                   23671798.9494
  -2036207.10546    126010.89843  22783733.5474                   22783734.1884
  -6041177.12148  -4690838.08646  20297623.8834                   20297621.7074
 -12066126.32847  -9363904.69545  20844674.1804                   20844672.3794
  11110625.898 5                  23965748.219
 -10623276.58247  -8215620.63345  21666754.2344                   21666752.6094
  13021493.50047  10150932.98843  22857210.8524                   22857210.4264
   9924790.34047   7739956.15644  22940532.7504                   22940529.3554
  -7255513.75447  -5606457.01645  22389690.7034                   22389688.2774
 11  8 20 18 14 30.0000000  0  9G17G24G07G08G26G11G13G19G28
   4496986.80146   3547507.90244  23635746.2814                   23635747.2974
  -2188520.02747      7325.55944  22754749.4224                   22754750.1524
  -6139677.27748  -4767591.46946  20278880.0004                   20278877.3244
 -12215841.28947  -9480565.69545  20816184.1954                   20816182.5594
  10937492.887 5                  23932802.227
 -10743993.23047  -8309685.54345  21643782.2734                   21643781.0314
  13036524.71947  10162645.48044  22860071.4304                   22860071.3834
   9927832.11746   7742326.31644  22941110.9924                   22941108.3594
  -7375829.73847  -5700209.70345  22366794.9144                   22366793.1294
 11  8 20 18 15  0.0000000  0  9G17G24G07G08G26G11G13G19G28
   4307692.64546   3400006.05944  23599723.4774                   23599724.9574
  -2340595.35946   -111174.64144  22725810.4304                   22725810.8674
  -6237806.60248  -4844055.88346  20260206.8674                   20260204.2774
 -12365346.84047  -9597063.52045  20787733.8524                   20787732.3754
  10764743.59445  10974687.41852  23899928.2584                   23899928.8134
 -10864242.18047  -8403386.02745  21620900.1564                   21620898.5704
  13051664.38347  10174442.48844  22862952.7734                   22862952.0124
   9931071.59046   7744850.51644  22941727.0164                   22941724.9574
  -7496098.98447  -5793925.97745  22343909.1484                   22343906.4924
 11  8 20 18 15 30.0000000  0  9G17G24G07G08G26G11G13G19G28
   4118564.95746   3252633.92644  23563735.5234                   23563735.5944
  -2492423.03546   -229481.88744  22696918.7664                   22696918.7734
  -6335556.53948  -4920224.67646  20241605.7584                   20241602.9024
 -12514633.27747  -9713390.59045  20759326.0704                   20759324.5084
  10592387.62145  10840384.14542  23867129.4614                   23867131.7974
 -10984014.77347  -8496715.30145  21598108.1254                   21598106.4224
  13066916.33647  10186327.01644  22865855.1644                   22865855.1134
   9934512.88747   7747531.99244  22942382.2504                   22942379.5824
  -7616315.18447  -5887600.90644  22321032.2274                   22321029.8204
 11  8 20 18 16  0.0000000  0  9G17G24G07G08G26G11G13G19G28
   3929600.92246   3105389.31644  23527776.1414                   23527776.6414
  -2644004.97346   -347597.60944  22668073.2584                   22668073.9144
  -6432930.35948  -4996100.38746  20223076.1564                   20223073.7854
 -12663702.82847  -9829548.68045  20730958.8524                   20730956.9264
  10420422.78945  10706385.64842  23834406.8284                   23834407.9964
 -11103313.93047  -8589675.68045  21575406.4924                   21575403.9694
  13082272.73447  10198292.89544  22868777.5864                   22868777.3164
   9938148.68047   7750365.02044  22943074.2734                   22943071.3134
  -7736484.26247  -5981239.11745  22298164.9064                   22298162.8014
 11  8 20 18 16 30.0000000  0  9G17G24G07G08G26G11G13G19G28
   3740795.57046   2958268.34844  23491846.9694                   23491847.6454
  -2795344.65247   -465524.59444  22639274.7274                   22639275.0664
  -6529933.02048  -5071686.88746  20204617.0864                   20204614.7854
 -12812559.79348  -9945541.10945  20702632.5004                   20702630.7774
  10248845.30146  10572688.92242  23801756.2424                   23801758.5204
 -11222144.30547  -8682270.76245  21552793.5084                   21552791.5784
  13097724.13747  10210332.81343  22871717.8284                   22871717.5864
   9941969.01247   7753341.82044  22943801.5944                   22943798.4774
  -7856613.72347  -6074846.46944  22275304.6024                   22275302.7934
 11  8 20 18 17  0.0000000  0  9G17G24G07G08G26G11G13G19G28
   3552154.07046   2811275.04343  23455949.8444                   23455950.0514
  -2946435.79746   -583257.87944  22610522.6484                   22610523.7774
  -6626560.17647  -5146980.77746  20186229.5944                   20186227.0434
 -12961197.99648 -10061363.08245  20674347.8054                   20674345.5864
  10077660.79745  10439298.45742  23769181.0944                   23769182.9614
 -11340501.00847  -8774496.75444  21530270.5394                   21530269.0554
  13113270.78147  10222446.94143  22874676.5554                   22874676.2734
   9945974.65646   7756463.05944  22944563.5554                   22944560.7704
  -7976700.76647  -6168420.77044  22252452.4384                   22252451.0124
 11  8 20 18 17 30.0000000  0  9G17G24G07G08G26G11G13G19G28
   3363674.77046   2664408.14843  23420083.2734                   23420083.9884
  -3097279.03547   -700798.04343  22581818.6174                   22581818.9104
  -6722813.72348  -5221983.55146  20167912.9924                   20167911.0204
 -13109618.79347 -10177015.64845  20646104.1804                   20646101.6484
   9906867.95745  10306213.12942  23736680.6724                   23736682.3524
 -11458386.02347  -8866355.19945  21507838.5864                   21507835.7114
  13128905.81347  10234629.93443  22877651.9304                   22877651.3054
   9950159.39546   7759723.83644  22945359.9064                   22945357.7074
  -8096750.30147  -6261965.85545  22229608.9844                   22229606.0744
 11  8 20 18 18  0.0000000  0  9G17G24G07G08G26G11G13G19G28
   4750781.89846   3745270.87943  23684041.8204                   23684040.7624
  -1672450.68446    409457.85943  22852953.5784                   22852954.4804
  -5243273.12948  -4069094.78546  20449460.1804                   20449457.5124
 -11682399.10947  -9064896.41445  20917694.8054                   20917692.9804
  11311890.98046  11401036.38342  24004047.0944                   24004049.1174
 -10000377.84447  -7730244.91445  21785288.1804                   21785285.8324
  14720041.48847  11474475.75043  23180434.6334                   23180435.3954
  11529936.26646   8990718.71944  23245981.4924                   23245979.6054
  -6641342.82447  -5127882.08244  22506563.3834                   22506561.4844
 11  8 20 18 18 30.0000000  0  9G17G24G07G08G26G11G13G19G28
   4562627.51646   3598657.18844  23648236.0784                   23648236.6724
  -1822795.23046    292306.32443  22824344.4614                   22824345.1374
  -5338780.78548  -4143516.34046  20431285.7584                   20431283.3364
 -11830383.41047  -9180208.85945  20889534.7034                   20889532.7304
  11141883.94146  11268563.37542  23971695.4614                   23971697.7774
 -10117319.89147  -7821368.56245  21763034.9694                   21763032.7074
  14735838.49247  11486784.99243  23183440.5784                   23183440.6334
  11534465.16046   8994247.69544  23246843.0944                   23246841.2074
  -6761324.76247  -5221374.48845  22483731.6024                   22483729.6524
 11  8 20 18 19  0.0000000  0  9G17G24G07G08G26G11G13G19G28
   4374636.73846   3452170.93043  23612462.9924                   23612463.3794
  -1972886.72346    175351.98044  22795782.9614                   22795784.1254
  -5433914.34447  -4217646.38746  20413182.5004                   20413180.0394
 -11978146.75047  -9295349.10545  20861416.2584                   20861414.6134
  10972272.83246  11136398.93442  23939419.6884                   23939421.4774
 -10233788.60947  -7912123.39145  21740871.2894                   21740869.4454
  14751710.88347  11499152.93443  23186461.4774                   23186461.3094
  11539160.84847   8997906.59444  23247737.0234                   23247734.5004
  -6881275.32047  -5314842.44145  22460905.6724                   22460903.7624
 11  8 20 18 19 30.0000000  0  9G17G24G07G08G26G11G13G19G28
   4186808.55946   3305811.39844  23576720.2584                   23576720.3364
  -2122725.44546     58594.59043  22767268.8834                   22767270.4534
  -5528675.41447  -4291486.19146  20395150.1644                   20395147.7664
 -12125689.78547  -9410317.69145  20833339.8914                   20833337.8554
  10803056.80145  11004542.32842  23907219.1484                   23907220.6954
 -10349785.73447  -8002510.73845  21718797.3444                   21718795.8874
  14767652.41447  11511574.74243  23189495.3674                   23189494.8244
  11544017.20347   9001690.72344  23248661.6254                   23248658.6764
  -7001198.59047  -5408289.12945  22438085.5784                   22438082.8324
 11  8 20 18 20  0.0000000  0  9G17G24G07G08G26G11G13G19G28
   3999151.04747   3159584.85944  23541010.8984                   23541011.2854
  -2272302.36747    -57958.81644  22738805.7194                   22738806.5554
  -5623056.67647  -4365030.04346  20377190.0784                   20377187.3134
 -12273003.95748  -9525107.94946  20805306.6644                   20805304.3834
  10634244.27746  10873000.07442  23875094.7034                   23875096.8164
 -10465303.84447  -8092524.84445  21696815.3284                   21696813.4964
  14783666.19947  11524052.87943  23192542.2894                   23192542.0824
  11549037.80547   9005602.84444  23249617.4774                   23249613.8554
  -7121089.38347  -5501710.51245  22415270.5474                   22415268.6884
 11  8 20 18 20 30.0000000  0  9G17G24G07G08G26G11G13G19G28
   3811661.46147   3013489.18044  23505333.2274                   23505333.0664
  -2421619.05146   -174309.42244  22710391.7114                   22710392.8204
  -5717061.26647  -4438280.37946  20359301.7034                   20359298.8794
 -12420091.06647  -9639721.26646  20777316.7894                   20777314.6214
  10465833.59446  10741771.05142  23843048.0704                   23843048.6764
 -10580345.64547  -8182167.78945  21674923.7344                   21674921.6764
  14799744.87547  11536581.56643  23195601.9924                   23195602.3754
  11554215.27347   9009637.18444  23250601.2194                   23250599.1884
  -7240953.07447  -5595110.76645  22392461.2664                   22392459.1214
 11  8 20 18 21  0.0000000  0  9G17G24G07G08G26G11G13G19G28
   3624344.32447   2867527.87144  23469687.4454                   23469687.1954
  -2570670.11746   -290453.04344  22682028.2344                   22682029.0124
  -5810685.28548  -4511234.17246  20341485.2034                   20341483.0164
 -12566946.30548  -9754153.90246  20749371.1334                   20749369.3204
  10297829.26246  10610858.65242  23811078.2194                   23811078.3484
 -10694907.22347  -8271436.52345  21653123.4304                   21653121.4654
  14815887.60947  11549160.15643  23198674.4384                   23198674.8054
  11559549.30946   9013793.49244  23251617.2194                   23251615.0554
  -7360787.81247  -5688488.47745  22369657.5474                   22369655.4734
 11  8 20 18 21 30.0000000  0  9G17G24G07G08G26G11G13G19G28
   3437201.04747   2721702.00444  23434075.4614                   23434075.5084
  -2719452.77047   -406387.54744  22653716.1024                   22653716.4614
  -5903926.96148  -4583890.03946  20323742.1804                   20323739.7074
 -12713567.14148  -9868403.89146  20721470.3984                   20721468.4304
  10130234.27746  10480265.20742  23779185.2344                   23779185.9774
 -10808986.30947  -8360329.30145  21631415.1804                   21631412.6844
  14832091.46547  11561786.37543  23201757.6334                   23201758.3874
  11565037.25846   9018069.75444  23252661.5704                   23252659.4654
  -7480594.29747  -5781844.16445  22346858.6174                   22346857.1484
 11  8 20 18 22  0.0000000  0  9G17G24G07G08G26G11G13G19G28
   3250237.76247   2576016.40244  23398496.8284                   23398497.7894
  -2867959.91447   -522107.33644  22625455.6804                   22625456.2074
  -5996781.19548  -4656243.99646  20306072.3364                   20306070.1414
 -12859946.98448  -9982466.09845  20693615.0864                   20693613.2304
   9963054.68845  10349995.45742  23747371.3594                   23747372.8164
 -10922578.32447  -8448842.55145  21609798.6094                   21609797.5704
  14848357.59047  11574461.10943  23204853.5004                   23204854.1334
  11570680.50846   9022467.02044  23253735.6884                   23253733.1914
  -7600369.21147  -5875175.25445  22324066.1094                   22324065.0084
 11  8 20 18 22 30.0000000  0  9G17G24G07G08G26G11G13G19G28
   3063453.67647   2430470.43844  23362953.4304                   23362953.8244
  -3016191.38746   -637612.33644  22597248.0084                   22597249.6884
  -6089249.32448  -4728297.10946  20288476.8444                   20288474.2664
 -13006085.88748 -10096340.54746  20665805.8754                   20665803.8984
   9796290.50046  10220049.37542  23715636.8984                   23715638.8324
 -11035683.71547  -8536976.58645  21588275.1954                   21588273.9574
  14864680.02047  11587179.71543  23207959.8444                   23207960.1994
  11576473.64546   9026981.08244  23254837.6644                   23254835.8794
  -7720116.05547  -5968484.46544  22301279.5314                   22301277.0784
 11  8 20 18 23  0.0000000  0  9G17G24G07G08G26G11G13G19G28
   2876856.02747   2285069.76244  23327444.5394                   23327444.7154
  -3164138.51247   -752895.75044  22569094.3444                   22569095.5514
  -6181324.16448  -4800043.75046  20270955.2504                   20270953.0744
 -13151976.07848 -10210021.20746  20638043.6254                   20638041.7814
   9629949.79346  10090433.28143  23683983.4384                   23683984.7664
 -11148295.85247  -8624726.28545  21566846.3594                   21566844.6524
  14881061.70747  11599944.51643  23211077.6724                   23211077.6884
  11582419.58247   9031614.21144  23255969.2814                   23255966.7504
  -7839830.74247  -6061768.63745  22278498.6564                   22278496.8874
 11  8 20 18 23 30.0000000  0  9G17G24G07G08G26G11G13G19G28
   2690437.82047   2139808.95344  23291969.7424                   23291970.6214
  -3311807.27747   -867962.27344  22540993.7194                   22540995.2854
  -6273013.30147  -4871489.84846  20253507.9144                   20253504.8284
 -13297623.62548 -10323512.80146  20610327.4384                   20610326.0864
   9464025.79746   9961141.90642  23652409.6804                   23652410.3794
 -11260421.46947  -8712096.89545  21545509.5944                   21545507.6644
  14897490.66046  11612746.12143  23214203.6334                   23214204.1764
  11588506.62946   9036357.32444  23257128.2194                   23257125.7934
  -7959522.43047  -6155034.82845  22255721.7734                   22255719.3954
 11  8 20 18 24  0.0000000  0  9G17G24G07G08G26G11G13G19G28
   2504212.55147   1994698.42244  23256532.4224                   23256532.8954
  -3459183.63346   -982800.93044  22512949.2424                   22512950.8484
  -6364304.15648  -4942625.60546  20236135.3594                   20236132.7584
 -13443014.41848 -10436804.31646  20582660.7584                   20582659.1764
   9298532.53946   9832186.16042  23620917.2584                   23620917.8714
 -11372048.33647  -8799078.84045  21524267.5004                   21524265.7734
  14913974.96146  11625590.84843  23217340.9224                   23217340.6914
  11594743.54346   9041217.16844  23258314.5474                   23258311.9734
  -8079180.32447  -6248274.73845  22232951.6564                   22232949.3134
 11  8 20 18 24 30.0000000  0  9G17G24G07G08G26G11G13G19G28
   2318179.54347   1849737.69544  23221131.5784                   23221131.5554
  -3606266.70346  -1097411.06244  22484959.8444                   22484961.2344
  -6455197.54747  -5013451.64546  20218838.9694                   20218836.1954
 -13588148.34448 -10549895.68046  20555043.0634                   20555041.2234
   9133470.26246   9703566.26242  23589507.2664                   23589507.6644
 -11483177.00447  -8885672.59445  21503120.7344                   21503119.1094
  14930509.77347  11638474.94943  23220487.5164                   23220487.9264
  11601125.19946   9046189.85244  23259528.9534                   23259526.6054
  -8198807.31647  -6341490.56645  22210187.3984                   22210185.3444
 11  8 20 18 25  0.0000000  0  9G17G24G07G08G26G11G13G19G28
   2132343.48046   1704930.52343  23185767.7584                   23185768.1844
  -3753050.53147  -1211788.03144  22457028.6644                   22457029.2274
  -6545689.11748  -5083964.56646  20201619.3524                   20201616.4494
 -13733019.99248 -10662782.67245  20527474.3674                   20527472.4104
   8968844.35946   9575286.40242  23558179.5944                   23558181.1214
 -11593803.08248  -8971874.71945  21482069.2814                   21482067.3524
  14947095.08647  11651398.39843  23223643.8754                   23223644.2544
  11607652.05146   9051275.64144  23260770.7814                   23260768.6524
  -8318401.74247  -6434680.99245  22187429.2194                   22187426.8954
 11  8 20 18 25 30.0000000  0  9G17G24G07G08G26G11G13G19G28
   1946712.53547   1560283.09844  23150444.0554                   23150443.5864
  -3899526.27746  -1325924.93044  22429155.0314                   22429155.6994
  -6635771.39548  -5154158.57446  20184477.1804                   20184474.3754
 -13877620.12148 -10775458.07846  20499958.3054                   20499956.4384
   8804663.08246   9447352.93443  23526936.7194                   23526938.0704
 -11703918.94948  -9057679.27745  21461114.8984                   21461112.9224
  14963733.78147  11664363.44543  23226810.0004                   23226810.2664
  11614327.68446   9056477.37144  23262041.5944                   23262039.2114
  -8437957.80147  -6527841.53945  22164678.7734                   22164677.0084
 11  8 20 18 26  0.0000000  0  9G17G24G07G08G26G11G13G19G28
   1761285.40646   1415794.48044  23115158.3284                   23115157.5554
  -4045693.94146  -1439821.76244  22401339.5944                   22401341.0554
  -6725445.98047  -5224034.89546  20167412.5474                   20167409.9184
 -14021949.53148 -10887922.54746  20472493.1804                   20472491.2974
   8640926.13746   9319765.75842  23495779.3134                   23495780.2034
 -11813526.18447  -9143087.48445  21440257.1484                   21440255.4384
  14980420.39847  11677365.80943  23229984.9774                   23229986.2274
  11621146.24246   9061790.45744  23263339.1174                   23263336.9774
  -8557479.35247  -6620975.18745  22141934.8134                   22141932.3834
 11  8 20 18 26 30.0000000  0  9G17G24G07G08G26G11G13G19G28
   3151495.69547   2499075.32444  23379706.5084                   23379705.5944
  -2616120.19947   -325868.17644  22673378.5394                   22673379.3524
  -5239283.12947  -4065985.93046  20450219.7194                   20450217.0824
 -12590575.40648  -9772566.07846  20744874.5084                   20744872.8404
  10053066.87946  10420135.20342  23764500.2034                   23764501.2814
 -10347194.21147  -8000491.13745  21719290.4924                   21719288.9264
  16572576.64147  12918006.85243  23532963.0234                   23532964.0744
  13203530.31146  10294816.93344  23564456.8284                   23564454.7274
  -7101537.66847  -5486475.14845  22418990.8054                   22418988.7624
 11  8 20 18 27  0.0000000  0  9G17G24G07G08G26G11G13G19G28
   2966495.02347   2354919.02744  23344502.0394                   23344500.8094
  -2761649.61747   -439267.70744  22645685.2504                   22645685.9654
  -5328125.40647  -4135213.69146  20433313.6644                   20433311.3324
 -12734342.22348  -9884592.16846  20717516.4614                   20717514.9184
   9890239.02746  10293256.41442  23733516.0084                   23733516.6414
 -10455766.77047  -8085093.11345  21698630.0314                   21698628.5944
  16589363.10547  12931087.02043  23536156.7584                   23536157.9414
  13210640.11346  10300356.96544  23565809.3834                   23565808.2114
  -7220979.20347  -5579546.44145  22396262.0004                   22396260.2894
 11  8 20 18 27 30.0000000  0  9G17G24G07G08G26G11G13G19G28
   2781709.65247   2210930.48444  23309338.7584                   23309337.2274
  -2906856.34846   -552415.78944  22618052.9694                   22618053.7584
  -5416550.43048  -4204116.31246  20416486.6724                   20416484.7114
 -12877824.57448  -9996396.59446  20690212.7734                   20690210.8324
   9727868.22746  10166733.76242  23702616.5314                   23702617.9494
 -10563820.81647  -8169291.04745  21678068.0234                   21678066.3594
  16606194.22747  12944201.98043  23539360.8134                   23539360.5394
  13217891.16047  10306007.10244  23567189.5704                   23567187.2034
  -7340382.38747  -5672587.87945  22373540.0314                   22373537.8984
 11  8 20 18 28  0.0000000  0  9G17G24G07G08G26G11G13G19G28
   2597141.58647   2067111.29744  23274215.9454                   23274215.4884
  -3051737.14147   -665309.85544  22590483.0084                   22590484.2074
  -5504556.32448  -4272692.34846  20399740.0394                   20399737.8324
 -13021019.49648 -10107977.03946  20662963.6644                   20662962.1684
   9565957.35546  10040569.44942  23671805.9454                   23671807.3554
 -10671354.65247  -8253083.64545  21657604.7034                   21657602.8874
  16623067.79347  12957350.03143  23542571.5704                   23542572.1484
  13225281.03146  10311765.38344  23568596.2424                   23568592.9144
  -7459747.60547  -5765599.71545  22350825.5944                   22350823.7854
 11  8 20 18 28 30.0000000  0  9G17G24G07G08G26G11G13G19G28
   2412798.19147   1923467.18444  23239136.9064                   23239136.2854
  -3196283.57847   -777943.42244  22562977.2274                   22562977.9734
  -5592136.15248  -4340936.38746  20383074.2424                   20383071.7074
 -13163918.78548 -10219327.13345  20635771.0394                   20635769.3594
   9404514.21946   9914769.66442  23641084.8754                   23641085.2194
 -10778361.21547  -8336465.37145  21637242.4064                   21637240.5044
  16639986.21546  12970533.01643  23545790.5474                   23545791.3164
  13232812.38746  10317633.92644  23570028.5784                   23570027.0124
  -7579069.87947  -5858578.09845  22328118.8364                   22328117.1454
 11  8 20 18 29  0.0000000  0  9G17G24G07G08G26G11G13G19G28
   2228681.88747   1779999.99644  23204100.7664                   23204100.1414
  -3340492.35547   -890313.88744  22535535.0314                   22535535.2074
  -5679288.38747  -4408847.23046  20366489.4844                   20366487.6374
 -13306519.25048 -10330444.36346  20608635.0784                   20608633.4734
   9243541.93446   9789336.74242  23610453.2344                   23610453.1724
 -10884838.69947  -8419434.81645  21616980.2584                   21616978.6414
  16656946.82046  12983748.87943  23549019.3054                   23549019.2034
  13240483.50046  10323611.33643  23571488.6414                   23571486.3134
  -7698349.43047  -5951523.18745  22305421.4844                   22305418.8914
 11  8 20 18 29 30.0000000  0  9G17G24G07G08G26G11G13G19G28
   2044788.31647   1636706.41044  23169106.8364                   23169106.3914
  -3484366.57447  -1002423.64844  22508156.9224                   22508158.0234
  -5766017.78948  -4476428.59046  20349986.1254                   20349983.4144
 -13448824.53148 -10441331.59046  20581555.1644                   20581553.3594
   9083036.42246   9664267.52342  23579909.0864                   23579910.0274
 -10990791.73047  -8501995.62145  21596818.2734                   21596816.1764
  16673941.09046  12996990.98043  23552253.0004                   23552253.6954
  13248285.97746  10329691.12544  23572974.2274                   23572971.4454
  -7817592.68047  -6044439.99645  22282729.6024                   22282728.0394
 11  8 20 18 30  0.0000000  0  9G17G24G07G08G26G11G13G19G28
   1861121.12547   1493589.19144  23134155.4064                   23134156.2584
  -3627901.44146  -1114268.97744  22480842.4924                   22480843.6604
  -5852321.06248  -4543677.91446  20333562.3914                   20333559.8284
 -13590829.71948 -10551984.98046  20554532.0164                   20554530.3364
   8923002.14546   9539565.52342  23549456.2034                   23549456.0234
 -11096217.39548  -8584145.48845  21576756.4064                   21576754.7624
  16690968.24246  13010258.73443  23555493.5864                   23555493.5704
  13256219.02747  10335872.66844  23574483.2814                   23574481.1914
  -7936798.70347  -6137327.78945  22260046.1954                   22260043.9694
 11  8 20 18 30 30.0000000  0  9G17G24G07G08G26G11G13G19G28
   1677677.82447   1350646.44944  23099247.2194                   23099247.7584
  -3771098.71147  -1225851.26244  22453593.1884                   22453593.8054
  -5938201.86347  -4610598.03946  20317219.8754                   20317217.8914
 -13732537.15248 -10662406.34846  20527566.4224                   20527564.6884
   8763436.66446   9415228.86342  23519091.0474                   23519091.3674
 -11201118.85248  -8665886.87945  21556794.3284                   21556791.8054
  16708020.85246  13023546.23043  23558738.0084                   23558739.0824
  13264275.38747  10342150.27044  23576016.7734                   23576014.9184
  -8055972.66447  -6230190.60245  22237367.6804                   22237365.2584
 11  8 20 18 31  0.0000000  0  9G17G24G07G08G26G11G13G19G28
   1494455.70747   1207876.09844  23064381.8524                   23064381.4804
  -3913959.43746  -1337171.28544  22426407.8984                   22426408.7384
  -6023662.63348  -4677190.87546  20300957.3754                   20300955.0634
 -13873948.10948 -10772596.70746  20500656.7734                   20500655.3874
   8604337.98446   9291255.92242  23488815.8054                   23488816.0944
 -11305499.21947  -8747222.20745  21536931.4384                   21536929.8714
  16725091.56646  13036847.92643  23561986.7974                   23561987.3094
  13272448.23447  10348518.68444  23577572.8204                   23577569.6524
  -8175119.45747  -6323032.24645  22214695.0004                   22214692.7504
 11  8 20 18 31 30.0000000  0  9G17G24G07G08G26G11G13G19G28
   1311466.55147   1065287.18444  23029559.9224                   23029559.2384
  -4056471.12147  -1448219.33244  22399288.6174                   22399289.5784
  -6108692.45747  -4743447.89146  20284776.8204                   20284774.8364
 -14015049.81248 -10882546.07446  20473805.7424                   20473804.1054
   8445718.68046   9167656.52343  23458630.9384                   23458631.4224
 -11409347.26647  -8828142.76645  21517170.2034                   21517168.3324
  16742187.69546  13050169.38343  23565240.2274                   23565240.8754
  13280745.07446  10354983.68044  23579150.0394                   23579148.7734
  -8294229.53147  -6415845.27745  22192028.9844                   22192026.6524
 11  8 20 18 32  0.0000000  0  9G17G24G07G08G26G11G13G19G28
   1128707.75447    922877.82844  22994781.7584                   22994781.1054
  -4198635.50847  -1558996.75044  22372235.9614                   22372236.6214
  -6193294.80548  -4809371.82046  20268677.5084                   20268675.1484
 -14155844.67248 -10992256.35245  20447013.7734                   20447011.8364
   8287576.16446   9044428.60243  23428538.2504                   23428537.9024
 -11512666.49247  -8908651.23445  21497508.9694                   21497507.1524
  16759301.84447  13063504.86743  23568497.5704                   23568497.8094
  13289158.60546  10361539.64144  23580751.9064                   23580749.7664
  -8413307.92647  -6508633.61745  22169368.9774                   22169366.7814
 11  8 20 18 32 30.0000000  0  9G17G24G07G08G26G11G13G19G28
    946178.55147    780647.35944  22960047.9534                   22960047.1454
  -4340452.23447  -1669503.27744  22345249.3524                   22345249.8244
  -6277470.71548  -4874963.45346  20252659.8204                   20252657.4264
 -14296332.24648 -11101727.18446  20420279.8444                   20420277.5474
   8129910.10546   8921571.96143  23398535.9534                   23398534.9734
 -11615458.01647  -8988748.52345  21477947.9144                   21477946.5274
  16776428.69147  13076850.23443  23571756.9924                   23571758.1724
  13297684.62946  10368183.21143  23582374.8054                   23582371.7344
  -8532358.07847  -6601399.94945  22146714.4844                   22146712.5514
 11  8 20 18 33  0.0000000  0  9G17G24G07G08G26G11G13G19G28
    763882.46147    638598.55544  22925357.9384                   22925357.4144
  -4481916.87947  -1779735.44544  22318329.2664                   22318329.8714
  -6361217.52348  -4940220.72346  20236722.6484                   20236720.5634
 -14436508.34448 -11210955.30946  20393605.4694                   20393603.2154
   7972724.59846   8799089.80943  23368624.0164                   23368623.3134
 -11717719.36747  -9068432.68745  21458488.2974                   21458486.8554
  16793566.88346  13090204.45343  23575018.3364                   23575019.7154
  13306321.66046  10374913.34444  23584018.0004                   23584015.8594
  -8651378.91847  -6694143.44945  22124066.0634                   22124063.4344
 11  8 20 18 33 30.0000000  0  9G17G24G07G08G26G11G13G19G28
    581823.15247    496734.24244  22890713.6884                   22890712.6804
  -4623024.44947  -1889689.35944  22291476.7814                   22291478.1134
  -6444532.08648  -5005141.18446  20220868.5864                   20220866.3674
 -14576368.40247 -11319937.17246  20366990.7344                   20366988.8134
   7816023.87146   8676985.35243  23338803.7664                   23338804.3754
 -11819447.12147  -9147701.03145  21439130.5704                   21439129.0514
  16810715.80946  13103567.02343  23578281.0704                   23578282.3054
  13315069.62546  10381729.86743  23585682.6024                   23585680.4064
  -8770368.78547  -6786862.81245  22101422.9924                   22101420.2704
 11  8 20 18 34  0.0000000  0  9G17G24G07G08G26G11G13G19G28
    400002.13347    355055.58244  22856114.1884                   22856112.4574
  -4763772.45747  -1999363.07044  22264694.0634                   22264694.1214
  -6527413.30548  -5069723.96146  20205097.2194                   20205094.6994
 -14715910.06648 -11428670.92646  20340437.0004                   20340435.1024
   7659809.62146   8555260.04343  23309077.9454                   23309077.3834
 -11920640.38747  -9226552.93045  21419873.7274                   21419872.2704
  16827872.26646  13116935.42243  23581545.1414                   23581547.8754
  13323925.69646  10388630.62743  23587367.7504                   23587365.0984
  -8889328.34447  -6879558.55945  22078785.2894                   22078782.7464
 11  8 20 18 34 30.0000000  0  9G17G24G07G08G26G11G13G19G28
    218415.39547    213559.49244  22821559.5394                   22821557.8754
  -4904163.68747  -2108758.79744  22237978.3754                   22237978.8404
  -6609865.81248  -5133972.69146  20189406.8594                   20189404.5664
 -14855136.10948 -11537158.75446  20313943.0634                   20313941.4734
   7504078.50846   8433911.16443  23279442.4534                   23279442.9224
 -12021303.64547  -9304991.82445  21400717.7664                   21400716.7854
  16845028.17246  13130303.43843  23584811.0704                   23584812.1094
  13332881.63746  10395609.23043  23589071.9064                   23589069.8834
  -9008264.31247  -6972235.91445  22056152.6094                   22056150.3914
 11  8 20 18 35  0.0000000  0  9G17G24G07G08G26G11G13G19G28
   1612500.10547   1299859.34444  23086844.5554                   23086843.1334
  -3468761.50447   -990263.53944  22511126.1644                   22511126.5474
  -5116456.72347  -3970277.30546  20473592.9064                   20473590.7894
 -13418609.85948 -10417787.65246  20587304.8834                   20587302.9844
   8924267.23046   9540551.77343  23549696.1024                   23549696.3444
 -10546003.63347  -8155407.37945  21681458.1954                   21681456.7384
  18437609.32046  14371275.53943  23887869.7114                   23887870.9614
  14917363.85946  11630270.64843  23890589.3834                   23890586.9574
  -7551743.70747  -5837284.77745  22333319.4064                   22333317.2274
 11  8 20 18 35 30.0000000  0  9G17G24G07G08G26G11G13G19G28
   1431400.54347   1158742.85944  23052381.8054                   23052381.6604
  -3608417.59047  -1099086.40644  22484550.7034                   22484551.5784
  -5198035.16848  -4033844.94546  20458069.6724                   20458067.1884
 -13557183.47348 -10525767.08246  20560935.3054                   20560933.5434
   8769522.16046   9419971.25843  23520248.6724                   23520249.4024
 -10645590.86347  -8233007.78945  21662507.4844                   21662506.4104
  18454768.73046  14384646.26642  23891134.9614                   23891136.6724
  14926525.34846  11637409.37144  23892333.3984                   23892330.0944
  -7670620.16047  -5929915.75445  22310697.8754                   22310695.7424
 11  8 20 18 36  0.0000000  0  9G17G24G07G08G26G11G13G19G28
   1250549.57047   1017820.10244  23017967.5634                   23017966.9304
  -3747699.55547  -1207617.74244  22458046.4144                   22458046.7814
  -5279172.45748  -4097068.82446  20442629.3674                   20442626.7544
 -13695424.31648 -10633487.21546  20534628.8524                   20534626.7114
   8615275.72746   9299779.25043  23490896.2814                   23490896.8324
 -10744636.10547  -8310185.90245  21643659.6884                   21643658.3364
  18471928.20346  14398017.11743  23894400.3674                   23894402.2154
  14935788.55946  11644627.39544  23894095.8364                   23894093.4534
  -7789465.17647  -6022522.25045  22288082.6954                   22288079.8484
 11  8 20 18 36 30.0000000  0  9G17G24G07G08G26G11G13G19G28
   1069953.94547    877096.28144  22983601.7194                   22983600.4304
  -3886599.79747  -1315851.64844  22431614.5394                   22431615.1094
  -5359862.40648  -4159944.11746  20427274.8134                   20427272.2114
 -13833324.96148 -10740942.26246  20508387.3674                   20508385.3164
   8461534.72346   9179981.13343  23461642.2894                   23461640.7424
 -10843133.66047  -8386937.22745  21624916.6024                   21624914.5664
  18489089.95747  14411389.74243  23897666.2734                   23897667.8954
  14945155.90646  11651926.54743  23895878.8054                   23895875.2974
  -7908274.46947  -6115100.90645  22265473.5234                   22265471.1214
 11  8 20 18 37  0.0000000  0  9G17G24G07G08G26G11G13G19G28
    889609.48447    736568.21544  22949282.1724                   22949282.1764
  -4025121.25447  -1423790.40244  22405254.5234                   22405254.7034
  -5440109.68448  -4222474.48446  20412004.2734                   20412001.8794
 -13970888.34048 -10848134.51246  20482209.5554                   20482207.8164
   8308295.76246   9060574.19143  23432480.5864                   23432480.8204
 -10941087.96147  -8463265.25045  21606276.6484                   21606274.2974
  18506245.40247  14424757.38743  23900930.6954                   23900932.5594
  14954619.33646  11659300.57044  23897679.5634                   23897676.8364
  -8027054.06647  -6207656.42645  22242870.8674                   22242868.2194
 11  8 20 18 37 30.0000000  0  9G17G24G07G08G26G11G13G19G28
    709525.24647    596242.87945  22915013.8674                   22915013.4344
  -4163254.08647  -1531426.30144  22378968.5634                   22378968.9104
  -5519906.24648  -4284653.63346  20396818.9384                   20396817.0274
 -14108104.69948 -10955056.34046  20456098.3364                   20456096.8014
   8155568.24646   8941565.80143  23403417.2274                   23403417.9694
 -11038490.87547  -8539163.62145  21587741.4454                   21587739.3594
  18523399.07846  14438123.68843  23904195.7194                   23904196.9614
  14964183.62146  11666753.19144  23899498.9844                   23899497.0274
  -8145797.60947  -6300183.84045  22220274.9064                   22220272.1884
 11  8 20 18 38  0.0000000  0  9G17G24G07G08G26G11G13G19G28
    529697.92247    456117.77044  22880793.2504                   22880793.0744
  -4301000.31647  -1638760.97744  22352756.1024                   22352756.8284
  -5599255.86347  -4346484.51646  20381719.5004                   20381717.2624
 -14244976.27747 -11061709.52346  20430052.4844                   20430050.6174
   8003349.21946   8822953.64843  23374450.2194                   23374450.8054
 -11135346.66047  -8614635.64845  21569310.3834                   21569308.3554
  18540543.26646  14451482.55543  23907458.2424                   23907460.4844
  14973841.56346  11674278.77744  23901337.1644                   23901335.1454
  -8264510.36347  -6392687.27345  22197683.9224                   22197681.8554
 11  8 20 18 38 30.0000000  0  9G17G24G07G08G26G11G13G19G28
    350131.05547    316195.59844  22846622.6564                   22846622.5984
  -4438355.44947  -1745790.89844  22326618.0474                   22326618.5004
  -5678156.20747  -4407965.32446  20366704.8284                   20366702.8014
 -14381498.94948 -11168090.82846  20404073.1564                   20404070.9844
   7851642.04346   8704740.28943  23345582.0314                   23345582.0474
 -11231652.49648  -8689679.12145  21550984.0634                   21550981.4884
  18557676.98046  14464833.29743  23910718.9304                   23910720.6954
  14983592.10546  11681876.52744  23903193.0864                   23903190.4694
  -8383190.99647  -6485165.67245  22175099.6564                   22175098.2154
 11  8 20 18 39  0.0000000  0  9G17G24G07G08G26G11G13G19G28
    170829.57847    176480.27044  22812503.4144                   22812502.6414
  -4575313.77047  -1852511.60244  22300556.1414                   22300556.7504
  -5756602.69547  -4469092.48046  20351777.3984                   20351775.3444
 -14517666.59048 -11274195.49246  20378161.3594                   20378159.5634
   7700452.14146   8586930.02343  23316811.4384                   23316811.2274
 -11327404.71547  -8764291.23445  21532763.0314                   21532760.8204
  18574800.92646  14478176.36343  23913977.5704                   23913980.2384
  14993436.50446  11689547.43044  23905066.1884                   23905064.2664
  -8501837.05947  -6577617.13745  22152521.9774                   22152520.4534
 11  8 20 18 39 30.0000000  0  9G17G24G07G08G26G11G13G19G28
     -8200.51247     36976.39845  22778434.4924                   22778434.1134
  -4711868.16847  -1958917.55944  22274570.4224                   22274571.2814
  -5834589.79748  -4529861.66846  20336937.2034                   20336934.8324
 -14653472.21548 -11380018.05946  20352317.9454                   20352316.5204
   7549786.19546   8469528.01243  23288140.6804                   23288140.7274
 -11422597.38748  -8838467.33245  21514648.0234                   21514646.1294
  18591916.70746  14491513.10943  23917234.5864                   23917237.3404
  15003376.91446  11697293.10244  23906957.5084                   23906955.6914
  -8620444.26247  -6670038.32445  22129952.4454                   22129950.2894
 11  8 20 18 40  0.0000000  0  9G17G24G07G08G26G11G13G19G28
   -186957.41447   -102314.60244  22744418.5314                   22744417.6914
  -4848015.58247  -2065006.39844  22248662.7274                   22248662.7814
  -5912116.14148  -4590271.82846  20322184.5314                   20322182.1484
 -14788913.21548 -11485556.50046  20326544.6484                   20326543.2114
   7399646.38746   8352535.97743  23259570.7344                   23259569.6604
 -11517229.55147  -8912206.66445  21496640.4614                   21496638.0274
  18609022.09046  14504841.71143  23920489.2814                   23920492.9104
  15013411.04346  11705111.89843  23908867.0784                   23908864.6764
  -8739013.01647  -6762429.55145  22107389.5704                   22107387.3404
 11  8 20 18 40 30.0000000  0  9G17G24G07G08G26G11G13G19G28
   -365434.75447   -241387.79344  22710455.5084                   22710454.6914
  -4983749.06647  -2170772.68444  22222833.2034                   22222833.8874
  -5989176.51248  -4650318.88746  20307520.5864                   20307517.9574
 -14923982.04348 -11590804.95346  20300842.2814                   20300839.9964
   7250039.07046   8235958.87143  23231101.4144                   23231100.7544
 -11611296.12547  -8985505.27745  21478739.8754                   21478737.9384
  18626118.54346  14518163.36343  23923743.5234                   23923746.0004
  15023541.25846  11713005.48843  23910794.7344                   23910792.7304
  -8857539.19947  -6854787.59845  22084834.6564                   22084832.2194
 11  8 20 18 41  0.0000000  0  9G17G24G07G08G26G11G13G19G28
   -543634.87947   -380244.95744  22676544.3054                   22676544.2894
  -5119069.84847  -2276217.39544  22197082.2034                   22197082.7384
  -6065773.57848  -4710004.95346  20292944.6174                   20292941.9024
 -15058680.08248 -11695764.46546  20275209.7114                   20275207.9804
   7100962.18846   8119795.09443  23202732.0864                   23202732.0904
 -11704800.24247  -9058365.60245  21460946.9384                   21460944.9144
  18643199.60946  14531473.05543  23926993.7344                   23926995.8444
  15033761.05146  11720968.89143  23912739.0554                   23912737.2584
  -8976027.19147  -6947115.90245  22062286.6884                   22062284.8324
 11  8 20 18 41 30.0000000  0  9G17G24G07G08G26G11G13G19G28
   -721547.43747   -518878.05144  22642688.3364                   22642688.9384
  -5253966.63347  -2381331.72744  22171412.5634                   22171413.0744
  -6141898.10947  -4769322.79346  20278458.0004                   20278456.2234
 -15192995.90648 -11800426.14846  20249650.1564                   20249648.6214
   6952426.43446   8004052.98443  23174466.6724                   23174466.6094
 -11797732.46547  -9130780.30945  21443262.5554                   21443260.2584
  18660271.24646  14544775.35543  23930243.1954                   23930245.0314
  15044076.72746  11729007.02043  23914702.1954                   23914700.2384
  -9094468.75047  -7039408.01245  22039748.7034                   22039745.7424
 11  8 20 18 42  0.0000000  0  9G17G24G07G08G26G11G13G19G28
   -899173.77347   -657288.09044  22608888.0784                   22608887.2854
  -5388439.55947  -2486115.77744  22145823.1884                   22145823.3204
  -6217551.82447  -4828273.75846  20264061.9844                   20264059.6294
 -15326929.79748 -11904790.22346  20224163.8834                   20224162.3634
   6804430.87546   7888731.77743  23146303.8914                   23146303.8714
 -11890094.94947  -9202751.07445  21425685.9774                   21425684.4414
  18677328.14546  14558066.23443  23933489.1024                   23933490.8714
  15054483.57446  11737116.12143  23916681.9224                   23916680.8594
  -9212867.14547  -7131666.49645  22017218.0394                   22017215.8634
 11  8 20 18 42 30.0000000  0  9G17G24G07G08G26G11G13G19G28
  -1076508.10547   -795470.62144  22575142.1564                   22575141.2704
  -5522481.99647  -2590564.39544  22120315.6804                   22120315.3054
  -6292729.98047  -4886854.16046  20249755.9454                   20249753.5634
 -15460475.38748 -12008851.72746  20198750.6884                   20198749.0044
   6656981.18847   7773835.95343  23118245.6484                   23118245.5394
 -11981882.93747  -9274274.16045  21408219.3054                   21408217.4384
  18694371.30546  14571346.32843  23936732.1644                   23936734.1914
  15064982.67646  11745297.18043  23918680.3754                   23918678.9884
  -9331218.96147  -7223888.66045  21994696.5394                   21994694.3054
 11  8 20 18 43  0.0000000  0  9G17G24G07G08G26G11G13G19G28
    321877.42247    294180.50844  22841245.9304                   22841245.2304
  -4080666.43047  -1467071.70344  22394683.9224                   22394684.1684
  -4792008.42248  -3717460.75446  20535333.6414                   20535331.5124
 -14018204.92648 -10885004.60946  20473205.5634                   20473203.9064
   8085504.87946   8886971.32443  23390084.8284                   23390084.1684
 -10497672.12147  -8117746.24645  21690655.1954                   21690653.3164
  20286818.45746  15812214.05942  24239765.1414                   24239766.9494
  16650992.39146  12981148.82443  24220487.8134                   24220486.4184
  -7874099.89147  -6088471.19545  22271976.6954                   22271974.5784
 11  8 20 18 43 30.0000000  0  9G17G24G07G08G26G11G13G19G28
    145136.41847    156460.27345  22807613.1174                   22807613.4304
  -4213835.62147  -1570839.88344  22369342.8834                   22369342.6094
  -4866227.78548  -3775294.04746  20521210.1804                   20521207.8834
 -14150961.01648 -10988450.93046  20447942.9924                   20447941.3054
   7939157.43447   8772934.37143  23362235.7344                   23362235.1764
 -10588304.29747  -8188368.69945  21673409.2814                   21673407.0944
  20303831.51646  15825470.78542  24243003.1884                   24243005.3284
  16661674.38746  12989472.34843  24222521.2034                   24222519.0164
  -7992354.84847  -6180617.89845  22249473.8984                   22249471.4064
 11  8 20 18 44  0.0000000  0  9G17G24G07G08G26G11G13G19G28
    -31316.66447     18964.42244  22774035.3834                   22774034.9774
  -4346575.48847  -1674273.50044  22344083.1174                   22344083.1684
  -4939977.44548  -3832761.34046  20507176.4384                   20507173.6684
 -14283329.52048 -11091595.21546  20422753.8444                   20422752.2974
   7793352.83647   8659320.43843  23334490.1484                   23334489.3364
 -10678368.97747  -8258548.94945  21656270.0784                   21656268.2734
  20320814.59846  15838704.11742  24246234.5394                   24246237.8134
  16672433.59046  12997856.07843  24224569.4454                   24224565.8874
  -8110572.94947  -6272735.89845  22226977.1334                   22226975.3054
 11  8 20 18 44 30.0000000  0  9G17G24G07G08G26G11G13G19G28
   -207470.05947   -118297.89145  22740514.2974                   22740514.1294
  -4478873.16447  -1777362.56244  22318907.4064                   22318908.2234
  -5013246.47748  -3889854.10946  20493233.4534                   20493231.4534
 -14415297.80548 -11194427.65246  20397641.4304                   20397639.6954
   7648102.93047   8546138.69143  23306849.3134                   23306849.2624
 -10767855.36347  -8328278.60945  21639241.9144                   21639240.0594
  20337775.05946  15851919.86342  24249461.6954                   24249465.4104
  16683277.62946  13006305.94943  24226633.0004                   24226628.8284
  -8228744.42647  -6364817.53945  22204490.1334                   22204487.5904
 11  8 20 18 45  0.0000000  0  9G17G24G07G08G26G11G13G19G28
   -383324.76647   -255327.46945  22707050.5394                   22707049.5824
  -4610728.73447  -1880107.11744  22293816.2274                   22293816.7034
  -5086036.85948  -3946573.91046  20479382.1884                   20479379.8594
 -14546865.98848 -11296948.31646  20372604.8444                   20372603.0434
   7503406.71946   8433388.44143  23279314.8674                   23279314.8134
 -10856765.48847  -8397559.20745  21622322.2734                   21622320.4614
  20354707.59445  15865113.83242  24252684.6644                   24252688.5514
  16694201.90647  13014818.26643  24228712.1484                   24228708.5234
  -8346872.54747  -6456865.41445  22182011.1414                   22182008.5314
 11  8 20 18 45 30.0000000  0  9G17G24G07G08G26G11G13G19G28
   -558884.43447   -392127.14144  22673642.5084                   22673641.1604
  -4742144.98447  -1982509.33644  22268808.7974                   22268808.4574
  -5158352.97348  -4002924.14846  20465621.1954                   20465618.5434
 -14678036.41848 -11399159.05146  20347644.0164                   20347642.0664
   7359260.89547   8321067.02343  23251884.2894                   23251884.1804
 -10945103.73847  -8466394.21145  21605512.5314                   21605510.1174
  20371604.51245  15878279.96542  24255899.3524                   24255903.5904
  16705198.54746  13023387.00843  24230804.7584                   24230801.8444
  -8464962.63347  -6548883.64545  22159539.0634                   22159537.0124
 11  8 20 18 46  0.0000000  0  9G17G24G07G08G26G11G13G19G28
   -734146.47347   -528694.87945  22640291.1024                   22640290.1604
  -4873119.07447  -2084567.04744  22243885.1484                   22243884.5084
  -5230193.68748  -4058903.95746  20451950.1724                   20451947.4064
 -14808806.37148 -11501057.70746  20322759.1724                   20322757.7424
   7215667.63746   8209176.18443  23224559.9224                   23224559.3244
 -11032869.31247  -8534782.96545  21588810.5234                   21588808.6954
  20388463.37145  15891416.47742  24259108.3754                   24259112.1684
  16716265.78546  13032010.75443  24232910.6564                   24232907.9844
  -8583014.96947  -6640872.44945  22137074.9304                   22137072.3244
 11  8 20 18 46 30.0000000  0  9G17G24G07G08G26G11G13G19G28
   -909113.99647   -665033.13344  22606995.9454                   22606994.5904
  -5003652.00047  -2186280.97744  22219045.1724                   22219045.5634
  -5301561.27748  -4114515.08646  20438369.2344                   20438366.8674
 -14939176.28148 -11602644.66046  20297950.8134                   20297949.2074
   7072625.12146   8097714.53544  23197339.6804                   23197339.1334
 -11120065.20747  -8602727.82845  21572217.8524                   21572215.5004
  20405278.50845  15904518.85942  24262309.0704                   24262312.9654
  16727398.01646  13040685.12143  24235028.4924                   24235026.2624
  -8701033.02747  -6732834.55545  22114616.4924                   22114614.5394
 11  8 20 18 47  0.0000000  0  9G17G24G07G08G26G11G13G19G28
  -1083786.68447   -801141.65644  22573756.4844                   22573755.2664
  -5133743.22747  -2287650.72344  22194289.9304                   22194289.7774
  -5372457.07848  -4169758.59046  20424878.1334                   20424876.0704
 -15069145.28148 -11703919.20346  20273218.2734                   20273216.8444
   6930133.48446   7986682.09443  23170224.3134                   23170224.7664
 -11206692.53147  -8670229.63745  21555733.3204                   21555731.1604
  20422045.49645  15917583.84043  24265498.9304                   24265503.0744
  16738591.70346  13049407.38743  24237158.4144                   24237156.3754
  -8819019.00847  -6824771.66445  22092164.5234                   22092162.0704
 11  8 20 18 47 30.0000000  0  9G17G24G07G08G26G11G13G19G28
  -1258167.51647   -937022.74244  22540573.0704                   22540572.2894
  -5263394.67647  -2388677.78544  22169617.4924                   22169617.8674
  -5442884.94548  -4224637.47746  20411476.0634                   20411473.8554
 -15198715.94948 -11804883.37146  20248561.7194                   20248560.1294
   6788189.39546   7876076.34444  23143212.9614                   23143212.9574
 -11292755.59447  -8737291.76645  21539355.9774                   21539354.4344
  20438757.17646  15930605.67243  24268680.0784                   24268682.3054
  16749840.01246  13058172.16843  24239299.8444                   24239297.4494
  -8936978.19547  -6916687.89545  22069717.9454                   22069714.9414
 11  8 20 18 48  0.0000000  0  9G17G24G07G08G26G11G13G19G28
  -1432254.85947  -1072675.16045  22507445.4304                   22507444.2774
  -5392603.75447  -2489360.15244  22145030.6884                   22145030.4884
  -5512843.96948  -4279151.02746  20398163.2734                   20398161.3284
 -15327885.41048 -11905534.90246  20223981.8594                   20223979.9804
   6646794.89546   7765898.85944  23116307.1884                   23116306.6094
 -11378253.78147  -8803913.73045  21523086.6724                   21523084.3404
  20455410.94546  15943582.39543  24271849.0004                   24271851.6684
  16761140.33646  13066977.55143  24241449.7974                   24241448.4144
  -9054910.38347  -7008583.09445  22047276.0634                   22047273.5084
 11  8 20 18 48 30.0000000  0  9G17G24G07G08G26G11G13G19G28
  -1606054.18447  -1208103.14845  22474371.9384                   22474371.4654
  -5521374.93047  -2589701.28944  22120525.4454                   22120526.1484
  -5582340.23048  -4333303.98046  20384938.8984                   20384936.4844
 -15456657.68448 -12005876.93046  20199477.2344                   20199475.5044
   6505944.75846   7656145.54743  23089503.9774                   23089503.5554
 -11463193.61747  -8870100.62545  21506922.8364                   21506920.9344
  20471997.63746  15956506.87943  24275004.8674                   24275008.7424
  16772484.05946  13075816.73443  24243607.4534                   24243607.2814
  -9172822.89847  -7100462.96945  22024837.7814                   22024835.1454
 11  8 20 18 49  0.0000000  0  9G17G24G07G08G26G11G13G19G28
  -1779569.46547  -1343309.80945  22441353.3834                   22441352.2664
  -5649711.40647  -2689703.66844  22096104.0234                   22096104.6524
  -5651378.64548  -4387100.17646  20371801.3524                   20371799.0084
 -15585036.16048 -12105912.10946  20175047.3204                   20175045.9654
   6365634.75046   7546813.11743  23062803.8754                   23062803.7384
 -11547580.50047  -8935856.64845  21490864.5314                   21490862.4224
  20488509.19546  15969372.76643  24278147.7664                   24278150.9964
  16783863.12546  13084683.52343  24245773.6334                   24245772.5904
  -9290721.34447  -7192331.87145  22002402.4844                   22002400.2464
 11  8 20 18 49 30.0000000  0  9G17G24G07G08G26G11G13G19G28
  -1952798.22347  -1478293.19945  22408389.3204                   22408387.9454
  -5777609.87147  -2789364.75044  22071766.1254                   22071766.3634
  -5719957.70748  -4440538.42646  20358751.3524                   20358748.8984
 -15713017.04348 -12205637.46546  20150693.8914                   20150691.6914
   6225867.45346   7437903.57043  23036207.3204                   23036206.6684
 -11631412.77747  -9001180.53145  21474912.1644                   21474909.1524
  20504943.46946  15982178.48442  24281275.0394                   24281278.0784
  16795276.59046  13093577.00043  24247946.2114                   24247943.4694
  -9408605.62147  -7284189.72345  21979969.5784                   21979967.1954
 11  8 20 18 50  0.0000000  0  9G17G24G07G08G26G11G13G19G28
  -2125743.09847  -1613055.39545  22375478.8134                   22375478.3634
  -5905071.67647  -2888685.59444  22047510.2734                   22047510.8014
  -5788080.24248  -4493620.96146  20345788.1094                   20345786.1414
 -15840601.69948 -12305054.08646  20126415.2194                   20126413.4694
   6086640.82046   7329415.30944  23009712.6724                   23009712.8404
 -11714694.12147  -9066075.05945  21459063.3984                   21459061.5354
  20521294.53946  15994919.35542  24284386.4304                   24284389.9104
  16806718.31346  13102492.60943  24250123.5704                   24250120.9344
  -9526479.42247  -7376039.43045  21957539.1484                   21957536.7344
 11  8 20 18 50 30.0000000  0  9G17G24G07G08G26G11G13G19G28
  -2298403.46547  -1747595.86745  22342622.2894                   22342621.6804
  -6032095.62147  -2987665.27344  22023338.5004                   22023339.2734
  -5855747.36748  -4546348.60946  20332911.3524                   20332908.9614
 -15967788.86748 -12404160.95746  20102212.1484                   20102210.5944
   5947955.13747   7221348.57444  22983321.7424                   22983321.2194
 -11797425.10947  -9130540.75845  21443320.2504                   21443318.3014
  20537558.73846  16007592.48042  24287481.2814                   24287485.4264
  16818184.96947  13111427.60243  24252305.5784                   24252302.6804
  -9644344.38747  -7467882.24645  21935110.5784                   21935107.7544
 11  8 20 18 51  0.0000000  0  9G17G24G07G08G26G11G13G19G28
  -2470785.78947  -1881919.69545  22309818.7664                   22309818.5824
  -6158687.12547  -3086307.95744  21999249.1804                   21999248.6564
  -5922965.86348  -4598726.68446  20320120.3444                   20320117.7854
 -16094583.58648 -12502962.03546  20078084.1954                   20078082.3404
   5809804.19947   7113698.52343  22957033.0314                   22957032.2894
 -11879613.39147  -9194583.57045  21427680.7814                   21427678.4964
  20553725.93046  16020190.11342  24290558.0314                   24290563.0044
  16829667.16846  13120374.69543  24254491.2504                   24254487.7464
  -9762208.39547  -7559724.32445  21912681.7584                   21912679.4494
 11  8 20 18 51 30.0000000  0  9G17G24G07G08G26G11G13G19G28
  -1067464.66447   -788422.65645  22576861.7584                   22576861.1374
  -4709422.00447  -1957010.43044  22275034.7424                   22275034.8164
  -4414314.83248  -3423154.47746  20607206.5234                   20607204.6884
 -14645561.32848 -11373853.78146  20353823.9224                   20353821.7234
   7247611.94146   8234068.21143  23230638.0314                   23230638.1214
 -10385838.10247  -8030602.82445  21711936.7974                   21711934.8984
  22145210.96546  17260308.11742  24593408.0004                   24593412.9224
  18416580.10946  14356930.12943  24556470.6884                   24556467.9534
  -8304649.87947  -6423964.42245  22190046.0394                   22190042.8324
 11  8 20 18 52  0.0000000  0  9G17G24G07G08G26G11G13G19G28
  -1239286.24247   -922309.53945  22544165.5004                   22544164.6334
  -4835142.65647  -2054974.53944  22251111.5004                   22251111.4454
  -4480634.59847  -3474832.25046  20594586.5864                   20594584.5234
 -14771564.48848 -11472038.06246  20329846.1094                   20329844.1174
   7110534.05946   8127254.32843  23204553.4144                   23204553.2344
 -10466940.99647  -8093799.88345  21696503.6954                   21696501.4344
  22161175.66046  17272747.88342  24596445.8594                   24596451.1294
  18428086.04346  14365895.77742  24558658.7344                   24558657.1844
  -8422513.50047  -6515806.19545  22167617.1724                   22167614.5824
 11  8 20 18 52 30.0000000  0  9G17G24G07G08G26G11G13G19G28
  -1410822.61747  -1055974.16045  22511523.1334                   22511522.0234
  -4960421.07447  -2152594.06644  22227271.5784                   22227272.2344
  -4546501.22347  -3526156.90646  20582052.6564                   20582050.4144
 -14897164.92648 -11569908.53546  20305945.2664                   20305943.2894
   6973998.06346   8020862.65643  23178571.3134                   23178570.8554
 -10547497.59847  -8156571.27345  21681173.8364                   21681171.8244
  22177038.52346  17285108.39542  24599464.6724                   24599470.3984
  18439603.86745  14374870.62142  24560851.3674                   24560848.5204
  -8540374.02047  -6607645.54345  22145188.6644                   22145186.3014
 11  8 20 18 53  0.0000000  0  9G17G24G07G08G26G11G13G19G28
  -1582083.19147  -1189423.90245  22478932.9304                   22478932.3244
  -5085265.71947  -2249875.56244  22203514.5004                   22203514.7344
  -4611924.65648  -3577136.22346  20569602.6094                   20569600.8554
 -15022370.80548 -11667471.55546  20282119.7424                   20282117.5744
   6837994.91046   7914886.18843  23152690.4534                   23152690.4774
 -10627518.45747  -8218925.19145  21665945.5314                   21665944.7584
  22192786.61346  17297379.39542  24602462.3754                   24602467.0514
  18451120.50846  14383844.64143  24563042.6954                   24563041.3714
  -8658242.55547  -6699491.14545  22122759.4454                   22122756.6454
 11  8 20 18 53 30.0000000  0  9G17G24G07G08G26G11G13G19G28
  -1753061.99647  -1322654.09845  22446396.9454                   22446396.1724
  -5209670.01247  -2346813.94544  22179841.0004                   22179841.6684
  -4676900.26248  -3627766.59446  20557238.8524                   20557236.5004
 -15147175.21148 -11764721.75046  20258369.8674                   20258368.0984
   6702530.10546   7809329.21543  23126912.4694                   23126912.4184
 -10706999.07047  -8280858.11345  21650821.4304                   21650819.9104
  22208421.87146  17309562.51642  24605437.3914                   24605442.1334
  18462638.46145  14392819.54343  24565234.6484                   24565233.3164
  -8776114.86747  -6791339.68445  22100328.5864                   22100326.7704
 11  8 20 18 54  0.0000000  0  9G17G24G07G08G26G11G13G19G28
  -1923766.16047  -1455670.26645  22413913.1804                   22413912.4414
  -5333640.63347  -2443414.38744  22156250.3284                   22156250.8054
  -4741435.91848  -3678054.14146  20544957.6174                   20544955.7384
 -15271584.38348 -11861663.96546  20234695.5234                   20234693.9574
   6567596.31346   7704186.01243  23101236.0554                   23101235.4414
 -10785947.72347  -8342376.54345  21635798.4224                   21635796.4224
  22223933.07046  17321648.91842  24608389.9384                   24608393.8634
  18474147.07846  14401787.23043  24567425.5554                   24567422.7734
  -8893999.93047  -6883198.16445  22077896.0474                   22077893.8284
 11  8 20 18 54 30.0000000  0  9G17G24G07G08G26G11G13G19G28
  -2094186.87547  -1588465.57045  22381483.5394                   22381482.0164
  -5457167.71947  -2539669.22344  22132743.7504                   22132743.9804
  -4805523.78948  -3727992.77046  20532762.0394                   20532760.1294
 -15395588.51248 -11958290.57446  20211098.4534                   20211096.5704
   6433202.44147   7599463.54743  23075661.7664                   23075661.0434
 -10864357.03547  -8403474.72345  21620877.7664                   21620876.3794
  22239325.51246  17333642.84443  24611318.6174                   24611322.9344
  18485652.04546  14410752.08643  24569614.7114                   24569612.7504
  -9011890.41447  -6975060.85945  22055462.1884                   22055459.8634
 11  8 20 18 55  0.0000000  0  9G17G24G07G08G26G11G13G19G28
  -2264329.00047  -1721043.78545  22349106.0634                   22349105.5704
  -5580255.25447  -2635581.56244  22109321.2734                   22109321.2114
  -4869169.67648  -3777586.97346  20520651.0084                   20520648.5784
 -15519191.47348 -12054604.57046  20187577.4534                   20187575.6804
   6299343.48446   7495157.89144  23050189.0164                   23050188.6134
 -10942233.16047  -8464157.41445  21606058.3364                   21606056.8554
  22254589.76646  17345536.86743  24614223.6024                   24614226.9534
  18497144.68446  14419707.31343  24571801.2734                   24571800.1844
  -9129792.74247  -7066932.79345  22033025.8674                   22033023.5514
 11  8 20 18 55 30.0000000  0  9G17G24G07G08G26G11G13G19G28
  -2434189.50847  -1853402.57045  22316783.2194                   22316781.8714
  -5702899.18447  -2731148.23445  22085982.8914                   22085983.2774
  -4932371.26648  -3826834.99246  20508623.9224                   20508621.4024
 -15642388.95348 -12150602.62146  20164133.7814                   20164132.4774
   6166022.55147   7391271.44543  23024818.6254                   23024817.8984
 -11019574.21547  -8524423.18445  21591340.9384                   21591339.0704
  22269725.74246  17357330.94542  24617103.7424                   24617108.2894
  18508624.84046  14428652.81343  24573986.0704                   24573984.3984
  -9247705.27347  -7158812.66845  22010588.0704                   22010585.5554
 11  8 20 18 56  0.0000000  0  9G17G24G07G08G26G11G13G19G28
  -2603761.86747  -1985536.81645  22284514.3674                   22284513.7154
  -5825092.27347  -2826363.60944  22062729.7034                   22062730.0554
  -4995122.96947  -3875732.46146  20496683.4224                   20496680.3714
 -15765173.16448 -12246278.63346  20140768.7894                   20140766.9494
   6033246.16447   7287809.33644  22999552.1484                   22999551.8984
 -11096375.27047  -8584268.14545  21576725.5084                   21576724.1564
  22284736.17646  17369027.18842  24619960.2194                   24619964.8164
  18520095.50046  14437590.91843  24576168.9924                   24576167.0554
  -9365623.36347  -7250696.88745  21988149.3054                   21988146.5704
 11  8 20 18 56 30.0000000  0  9G17G24G07G08G26G11G13G19G28
  -2773050.28547  -2117449.80945  22252299.5084                   22252298.6994
  -5946838.04747  -2921230.40645  22039562.5704                   22039562.8404
  -5057429.88748  -3924283.33246  20484826.5394                   20484823.9494
 -15887547.63748 -12341635.36746  20117481.8914                   20117479.7934
   5901009.82047   7184768.05944  22974388.2424                   22974388.4494
 -11172641.84447  -8643696.64545  21562213.2114                   21562210.9574
  22299612.65645  17380619.03542  24622791.0784                   24622796.3404
  18531549.29746  14446515.87143  24578348.7344                   24578346.8364
  -9483552.68747  -7342589.85245  21965707.8364                   21965705.2584
 11  8 20 18 57  0.0000000  0  8G17G24G07G08G26G11G19G28
  -2942054.68747  -2249141.49645  22220138.5704                   22220138.0514
  -6068135.66447  -3015748.00444  22016479.8444                   22016480.3404
  -5119293.12947  -3972488.48446  20473053.9774                   20473051.9734
 -16009510.95748 -12436671.72746  20094272.6884                   20094271.1054
   5769313.36347   7082147.44543  22949327.3834                   22949327.0784
 -11248375.42647  -8702709.82045  21547800.9614                   21547799.4924
  18542982.94946  14455425.12943  24580524.6724                   24580522.0204
  -9601494.73047  -7434492.72345  21943264.3834                   21943261.4534
 11  8 20 18 57 30.0000000  0  8G17G24G07G08G26G11G19G28
  -3110766.91447  -2380605.53145  22188034.3984                   22188032.8834
  -6188976.29347  -3109909.51244  21993484.8754                   21993486.2504
  -5180705.52047  -4020342.32846  20461367.5394                   20461365.7704
 -16131053.76648 -12531380.40646  20071143.7114                   20071141.8364
   5638164.91047   6979953.85944  22924370.7504                   22924370.0204
 -11323568.84847  -8761302.09845  21533492.5944                   21533490.7074
  18554401.35546  14464322.49642  24582697.6644                   24582695.2304
  -9719442.62147  -7526400.15645  21920819.3364                   21920817.0594
 11  8 20 18 58  0.0000000  0  8G17G24G07G08G26G11G19G28
  -3279188.11747  -2511842.75045  22155984.6254                   22155983.4024
  -6309359.87147  -3203714.87944  21970576.6334                   21970577.1024
  -5241668.65648  -4067846.09446  20449767.2344                   20449764.9104
 -16252175.77048 -12625761.19546  20048095.0864                   20048093.5004
   5507563.54747   6878186.57044  22899518.0084                   22899517.8554
 -11398224.17247  -8819475.06645  21519285.5164                   21519283.7544
  18565800.68046  14473205.02742  24584865.3594                   24584864.2704
  -9837398.71947  -7618313.98845  21898373.0004                   21898370.9654
 11  8 20 18 58 30.0000000  0  8G17G24G07G08G26G11G19G28
  -3447307.47747  -2642844.81245  22123992.4144                   22123991.3914
  -6429275.46947  -3297155.57444  21947757.9384                   21947757.6884
  -5302173.04747  -4114992.40646  20438253.0704                   20438251.2034
 -16372865.71148 -12719805.30546  20025128.9694                   20025126.7664
   5377519.40247   6776853.51244  22874771.4144                   22874771.4734
 -11472332.77747  -8877222.04345  21505183.3284                   21505181.5044
  18577187.51646  14482077.73042  24587032.2974                   24587031.8204
  -9955354.39547  -7710227.48045  21875926.9614                   21875924.6484
 11  8 20 18 59  0.0000000  0  8G17G24G07G08G26G11G19G28
  -3615126.80947  -2773613.05145  22092057.4924                   22092056.3364
  -6548723.85246  -3390232.24644  21925027.1884                   21925027.1884
  -5362221.36747  -4161783.32446  20426825.3674                   20426823.6254
 -16493124.09048 -12813513.13346  20002244.2424                   20002242.3204
   5248030.83247   6675953.35244  22850130.8834                   22850130.8484
 -11545897.61747  -8934545.27745  21491185.0944                   21491182.8594
  18588557.30946  14490937.32042  24589197.5784                   24589195.6054
 -10073312.14847  -7802142.59845  21853480.1334                   21853477.6994
 11  8 20 18 59 30.0000000  0  8G17G24G07G08G26G11G19G28
  -3782645.19947  -2904146.80945  22060179.7734                   22060178.5824
  -6667703.59847  -3482943.71544  21902386.2274                   21902386.2704
  -5421813.91048  -4208219.09446  20415486.2344                   20415484.4104
 -16612949.11348 -12906883.28146  19979441.6884                   19979440.5824
   5119098.24647   6575486.43444  22825595.6094                   22825595.3014
 -11618919.29747  -8991445.29345  21477289.2504                   21477287.3634
  18599907.40646  14499781.52743  24591356.5554                   24591355.9304
 -10191272.93447  -7894060.07445  21831033.0234                   21831030.8014
 11  8 20 19  0  0.0000000  0  8G17G24G07G08G26G11G19G28
  -2374439.10247  -1806843.31245  22328152.7344                   22328151.3014
  -5210791.87147  -2347687.82444  22179627.1644                   22179627.8054
  -3905531.42248  -3026700.30946  20704025.4224                   20704023.2504
 -15156917.61348 -11772313.29746  20256516.2034                   20256513.6254
   6566143.98447   7703054.56344  23100959.1804                   23100959.1024
 -10115978.44947  -7820322.58245  21763289.3364                   21763287.2384
  20186652.70746  15736206.41843  24893303.4774                   24893303.6994
  -8733816.04347  -6758379.36345  22108377.9774                   22108375.2854
 11  8 20 19  0 30.0000000  0  8G17G24G07G08G26G11G19G28
  -2541354.68747  -1936907.35545  22296389.9694                   22296388.6254
  -5328830.52347  -2439665.97344  22157165.7034                   22157165.5744
  -3964213.49648  -3072426.64146  20692858.2274                   20692856.3794
 -15275871.38747 -11865004.55146  20233880.3444                   20233877.8054
   6438324.28147   7603454.81344  23076636.2894                   23076635.8834
 -10187916.62147  -7876378.28145  21749599.8364
  21749597.8204   20197955.69546  15745013.87143  24895455.1884   24895454.4574
  -8851785.42247  -6850303.53945  22085929.2194                   22085926.7734
 11  8 20 19  1  0.0000000  0  8G17G24G07G08G26G11G19G28
  -2707977.18747  -2066743.01645  22264682.0474                   22264680.6994
  -5446405.82847  -2531283.07444  22134791.5164                   22134791.6844
  -4022450.38748  -3117806.04746  20681776.1334                   20681774.3204
 -15394396.29348 -11957361.62546  20211325.2974                   20211323.4494
   6311052.48447   7504282.00844  23052416.8674                   23052416.4304
 -10259323.38747  -7932019.92245  21736011.6254                   21736009.3794
  20209222.10946                  15753792.84443  24897599.2664   24897597.6254
  -8969769.36747  -6942239.06245  22063477.5784                   22063475.0784
 11  8 20 19  1 30.0000000  0  7G17G24G07G08G26G11G28
  -2874300.24647  -2196345.34845  22233031.8914                   22233030.6254
  -5563510.71147  -2622533.60944  22112507.1334                   22112507.8874
  -4080236.53948  -3162834.25846  20670779.9844                   20670778.0314
 -15512484.69948 -12049378.57846  20188853.7194                   20188851.8954
   6184334.68847   7405540.87544  23028303.1644                   23028302.9804
 -10330193.97747  -7987243.77045  21722525.9534                   21722524.0274
  -9087763.12147  -7034182.23445  22041024.0784                   22041021.4264
 11  8 20 19  2  0.0000000  0  7G17G24G07G08G26G11G28
  -3040327.26647  -2325716.99645  22201438.1024                   22201437.1024
  -5680148.18046  -2713419.91844  22090311.3914                   22090312.2114
  -4137576.69148  -3207514.92646  20659868.7974                   20659866.4224
 -15630138.75047 -12141057.05546  20166465.0944                   20166463.3404
   6058166.92247   7307228.33244  23004293.8674                   23004293.9064
 -10400533.38347  -8042053.70345  21709140.1254                   21709138.7304
  -9205771.12947  -7126136.52045  22018567.6644                   22018565.1684
 11  8 20 19  2 30.0000000  0  7G17G24G07G08G26G11G28
  -3206049.78547  -2454851.38345  22169902.1954                   22169900.6604
  -5796309.14847  -2803934.91844  22068206.5474                   22068207.9224
  -4194463.24648  -3251842.13746  20649043.9774                   20649041.4024
 -15747349.27048 -12232389.93046  20144160.5864                   20144158.5824
   5932557.27047   7209350.69144  22980391.4774                   22980390.9384
 -10470334.91847  -8096444.51245  21695857.2034                   21695855.7274
  -9323786.55547  -7218096.57445  21996110.1024                   21996107.6094
 11  8 20 19  3  0.0000000  0  7G17G24G07G08G26G11G28
  -3371461.37947  -2583743.49245  22138425.4224                   22138424.0944
  -5911986.05547  -2894072.73444  22046194.0704                   22046194.8674
  -4250890.61347  -3295811.54346  20638305.6804                   20638303.9964
 -15864108.51248 -12323371.16046  20121942.2504                   20121939.7774
   5807512.25047   7111913.03943  22956596.5944                   22956595.8524
 -10539593.46147  -8150412.21945  21682678.1414                   21682676.1054
  -9441803.77747  -7310058.03945  21973652.0944                   21973649.6134
 11  8 20 19  3 30.0000000  0  7G17G24G07G08G26G11G28
  -3536564.19147  -2712394.96545  22107007.1644                   22107006.0204
  -6027180.61747  -2983834.71144  22024273.5864                   22024273.5124
  -4306862.03948  -3339425.68446  20627654.7814                   20627652.8054
 -15980417.79348 -12414001.76646  20099809.1884                   20099807.0784
   5683029.35546   7014913.39543  22932907.9454                   22932907.7234
 -10608312.59847  -8203959.61745  21669601.6884                   21669599.1174
  -9559826.69147  -7402023.93045  21951193.1724                   21951190.6174
 11  8 20 19  4  0.0000000  0  7G17G24G07G08G26G11G28
  -3701354.35247  -2840802.83645  22075648.4534                   22075647.3134
  -6141888.39147  -3073217.34044  22002445.4144                   22002445.6604
  -4362374.90648  -3382682.51646  20617091.3754                   20617089.2344
 -16096272.17647 -12504277.91846  20077762.7114                   20077760.6724
   5559112.02046   6918354.43843  22909326.8984                   22909326.4694
 -10676490.02747  -8257084.88745  21656627.8594                   21656625.5084
  -9677852.28547  -7493991.91845  21928734.0234                   21928731.1684
 11  8 20 19  4 30.0000000  0  7G17G24G07G08G26G11G28
  -3865842.87147  -2968975.66445  22044347.1724                   22044346.7814
  -6256119.78947  -3162228.78944  21980707.6954                   21980707.9184
  -4417441.33248  -3425591.45746  20606611.9694                   20606610.3164
 -16211681.64848 -12594207.37546  20055800.7974                   20055799.1484
   5435748.73846   6822227.22344  22885851.5314                   22885851.7854
 -10744138.44547  -8309797.93745  21643754.7664                   21643752.3164
  -9795892.97347  -7585971.66445  21906271.4064                   21906268.9384
 11  8 20 19  5  0.0000000  0  7G17G24G07G08G26G11G28
  -4030025.82847  -3096910.37145  22013104.6724                   22013103.2154
  -6369869.74247  -3250865.09844  21959062.3984                   21959061.5124
  -4472057.93748  -3468149.89146  20596219.1094                   20596217.0474
 -16326640.82848 -12683785.96546  20033924.7504                   20033922.7814
   5312943.84847   6726535.11344  22862482.7664                   22862483.0704
 -10811254.67647  -8362096.31645  21630982.7814                   21630980.6564
  -9913945.42647  -7677960.56645  21883806.6024                   21883804.0704
 11  8 20 19  5 30.0000000  0  7G17G24G07G08G26G11G28
  -4193900.63347  -3224604.98045  21981919.7974                   21981919.1564
  -6483135.79347  -3339124.33244  21937508.6174                   21937507.7894
  -4526223.58248  -3510356.91446  20585911.3594                   20585910.1254
 -16441146.30548 -12773011.01646  20012135.2114                   20012133.7304
   5190698.81647   6631279.25844  22839220.9144                   22839220.5164
 -10877838.69947  -8413979.98045  21618312.5234                   21618310.3324
 -10032008.76247  -7769957.96545  21861339.7424                   21861337.5164
 11  8 20 19  6  0.0000000  0  7G17G24G07G08G26G11G28
  -4357470.94547  -3352062.32445  21950793.3284                   21950792.2734
  -6595920.41447  -3427008.42644  21916045.9304                   21916045.8404
  -4579942.59848  -3552215.94146  20575689.6174                   20575687.2584
 -16555200.15248 -12861884.15246  19990431.5634                   19990429.9024
   5069010.12147   6536456.91444  22816064.8204                   22816063.6564
 -10943894.96147  -8465452.40645  21605742.6024                   21605740.6724
 -10150087.46547  -7861967.34045  21838870.0944                   21838867.4694
 11  8 20 19  6 30.0000000  0  7G17G24G07G08G26G11G28
  -4520737.87547  -3479283.25445  21919724.9534                   21919723.1994
  -6708224.39147  -3514517.98844  21894675.5164                   21894675.3954
  -4633217.41848  -3593728.80546  20565551.5944                   20565549.5164
 -16668802.94947 -12950405.82046  19968813.8594                   19968812.1454
   4947875.80947   6442066.56344  22793012.2814                   22793012.1094
 -11009426.73047  -8516516.13345  21593271.8984                   21593269.8054
 -10268183.91847  -7953990.53945  21816396.8594                   21816394.5004
 11  8 20 19  7  0.0000000  0  7G17G24G07G08G26G11G28
  -4683705.19947  -3606270.73045  21888713.2664                   21888711.5204
  -6820050.62947  -3601655.28944  21873395.3984                   21873394.7584
  -4686052.73848  -3634899.21946  20555497.4844                   20555495.4654
 -16781957.17248 -13038577.94946  19947281.3134                   19947279.4494
   4827292.07046   6348105.22344  22770066.1414                   22770065.5204
 -11074438.99247  -8567175.02745  21580900.7814                   21580898.6174
 -10386303.09447  -8046031.44545  21793920.2274                   21793916.9614
 11  8 20 19  7 30.0000000  0  7G17G24G07G08G26G11G28
  -4846371.68447  -3733023.78945  21857758.7034                   21857757.1294
  -6931397.50847  -3688419.07844  21852206.3754                   21852206.6214
  -4738448.56648  -3675727.16846  20545526.7894                   20545524.9734
 -16894660.51648 -13126398.73846  19925834.1484                   19925832.4574
   4707259.62947   6254573.46943  22747225.0784                   22747224.7034
 -11138932.36747  -8617429.60545  21568628.3364                   21568626.0704
 -10504444.80947  -8138089.92645  21771438.4064                   21771435.9344
 11  8 20 19  8  0.0000000  0  7G17G24G07G08G26G11G28
  -3433310.58247  -2631937.17645  22126655.6724                   22126654.0164
  -5466839.14147  -2547204.73444  22130902.4614                   22130902.2194
  -3214982.77048  -2488610.98446  20835432.9304                   20835430.9104
 -15431486.76248 -11986263.34846  20204267.3594                   20204265.4574
   6163203.28147   7389075.03144  23024281.2734                   23024281.0474
  -9627484.90647  -7439678.32045  21856246.3914                   21856244.6094
  -9047184.21947  -7002562.17645  22048745.8364                   22048742.9694
 11  8 20 19  8 30.0000000  0  7G17G24G07G08G26G11G28
  -3595379.54347  -2758224.62945  22095814.4924                   22095813.3984
  -5577229.60547  -2633223.27044  22109895.8364                   22109895.8284
  -3266507.09448  -2528759.84446  20825628.1094                   20825626.2734
 -15543289.39148 -12073382.28946  20182991.8754                   20182990.1414
   6044267.67247   7296397.93844  23001648.6564                   23001648.2774
  -9690949.45747  -7489131.23445  21844169.8914                   21844167.6844
  -9165377.50847  -7094660.83645  22026254.1414                   22026251.7464
 11  8 20 19  9  0.0000000  0  7G17G24G07G08G26G11G28
  -3757154.27747  -2884282.82845  22065029.4844                   22065028.5124
  -5687145.12947  -2718871.71144  22088979.7274                   22088979.6024
  -3317601.53948  -2568573.71546  20815905.3754                   20815902.9184
 -15654644.46548 -12160152.49246  20161801.8444                   20161800.3524
   5925875.70747   7204144.45344  22979120.3204                   22979119.2584
  -9753906.15247  -7538188.40245  21832189.7584                   21832187.7194
  -9283602.53547  -7186784.21145  22003756.6414                   22003754.0354
 11  8 20 19  9 30.0000000  0  7G17G24G07G08G26G11G28
  -3918639.25847  -3010115.24645  22034300.2504                   22034298.8444
  -5796590.12947  -2804153.51644  22068153.6094                   22068152.8874
  -3368271.73848  -2608057.02346  20806263.2034                   20806261.0824
 -15765555.67248 -12246576.81246  20140695.8674                   20140694.4454
   5808022.09847   7112310.47744  22956693.0554                   22956692.5744
  -9816361.43747  -7586854.86345  21820304.7664                   21820302.7424
  -9401865.00847  -7278936.78145  21981252.2894                   21981249.7464
 11  8 20 19 10  0.0000000  0  7G17G24G07G08G26G11G28
  -4079844.12947  -3135729.35545  22003623.7344                   22003622.3984
  -5905573.71147  -2889075.73445  22047414.2734                   22047414.4104
  -3418528.31648  -2647218.03946  20796699.7344                   20796697.5164
 -15876031.68748 -12332662.03146  20119673.0554                   20119671.7664
   5690696.73847   7020888.11743  22934366.8674                   22934366.8364
  -9878326.52047  -7635139.35945  21808513.2734                   21808510.8484
  -9520175.59847  -7371126.84845  21958738.8834                   21958735.7854
 11  8 20 19 10 30.0000000  0  7G17G24G07G08G26G11G28
  -4240769.04747  -3261125.37945  21973001.0784                   21972999.2154
  -6014095.53547  -2973638.17644  22026763.2974                   22026763.1214
  -3468373.37148  -2686058.37946  20787214.4224                   20787212.6294
 -15986071.59048 -12418407.41046  20098733.4844                   20098731.4264
   5573898.73847   6929876.67244  22912140.8984                   22912140.7114
  -9939803.58647  -7683043.55545  21796814.5944                   21796812.6884
  -9638535.48447  -7463355.31645  21936215.3054                   21936212.6954
 11  8 20 19 11  0.0000000  0  7G17G24G07G08G26G11G28
  -4401411.16047  -3386300.99645  21942431.9924                   21942430.4104
  -6122152.07447  -3057838.07045  22006201.0784                   22006200.7304
  -3517804.52348  -2724576.18746  20777807.9924                   20777805.8524
 -16095671.24648 -12503809.75846  20077877.4774                   20077875.7424
   5457630.93846   6839278.39544  22890015.3984                   22890015.3674
 -10000791.26247  -7730566.44545  21785209.1644                   21785207.0044
  -9756942.52347  -7555620.52745  21913683.4144                   21913680.8554
 11  8 20 19 11 30.0000000  0  7G17G24G07G08G26G11G28
  -4561767.32847  -3511253.80545  21911916.6334                   21911915.3244
  -6229739.65247  -3141672.55145  21985727.7894                   21985727.3954
  -3566820.00448  -2762770.11746  20768480.5944                   20768478.8364
 -16204826.73048 -12588865.98446  20057105.7194                   20057103.6914
   5341895.50447   6749094.94544  22867992.2114                   22867991.5044
 -10061288.14547  -7777706.87545  21773696.3364                   21773694.8754
  -9875394.52047  -7647920.76645  21891142.4844                   21891139.7234
 11  8 20 19 12  0.0000000  0  7G17G24G07G08G26G11G28
  -4721831.67247  -3635979.21945  21881458.1644                   21881456.0904
  -6336852.04747  -3225136.73444  21965344.5784                   21965344.9304
  -3615414.92648  -2800636.33246  20759233.0704                   20759231.4144
 -16313531.07448 -12673570.68046  20036419.3524                   20036417.9144
   5226697.86747   6659330.54344  22846070.7894                   22846070.2424
 -10121290.10947  -7824461.66845  21762278.6954                   21762276.7234
  -9993886.14547  -7740251.89145  21868594.4144                   21868591.9734
 11  8 20 19 12 30.0000000  0  7G17G24G07G08G26G11G28
  -4881600.11747  -3760474.08245  21851054.7584                   21851053.4924
  -6443484.39547  -3308226.82844  21945052.9384                   21945052.8714
  -3663585.96548  -2838172.23846  20750066.5864                   20750064.9064
 -16421778.90247 -12757919.64146  20015820.8754                   20015819.3164
   5112042.01647   6569988.30944  22824252.9304                   22824252.0744
 -10180794.28147  -7870828.53145  21750955.4614                   21750953.7584
 -10112414.42647  -7832611.57845  21846038.8524                   21846036.3594
 11  8 20 19 13  0.0000000  0  7G17G24G07G08G26G11G28
  -5041072.07847  -3884737.91445  21820707.7504                   21820706.5704
  -6549635.64547  -3390942.09044  21924853.1414                   21924852.9574
  -3711334.28148  -2875378.77346  20740980.4844                   20740978.8954
 -16529568.35548 -12841911.43746  19995309.4384                   19995307.8984
   4997927.49247   6481067.88743  22802537.0784                   22802536.5744
 -10239802.14547  -7916808.69545  21739726.2584                   21739724.6804
 -10230979.35547  -7924999.83245  21823476.6724                   21823474.1764
 11  8 20 19 13 30.0000000  0  7G17G24G07G08G26G11G28
  -5200232.66847  -4008759.10245  21790420.2664                   21790419.6884
  -6655290.57447  -3473270.60245  21904747.7584                   21904747.9024
  -3758645.98848  -2912245.06646  20731977.3364                   20731974.8014
 -16636883.89848 -12925533.94546  19974887.7584                   19974886.3364
   4884368.74247   6392580.53544  22780927.9774                   22780927.5044
 -10298300.69947  -7962391.99645  21728594.6954                   21728593.0824
 -10349566.95347  -8017405.75445  21800910.2344                   21800908.1724
 11  8 20 19 14  0.0000000  0  7G17G24G07G08G26G11G28
  -5359077.71147  -4132534.41445  21760192.8204                   21760192.2894
  -6760444.49247  -3555208.69145  21884737.5314                   21884737.8754
  -3805517.82448  -2948768.61346  20723057.5704                   20723056.2624
 -16743720.49248 -13008783.26246  19954557.3834                   19954555.7424
   4771369.13347   6304528.91044  22759424.0554                   22759424.1684
 -10356287.12547  -8007576.23845  21717560.4774                   21717558.8364
 -10468173.95747  -8109826.78145  21778340.3204                   21778337.7304
 11  8 20 19 14 30.0000000  0  7G17G24G07G08G26G11G28
  -5517599.97747  -4256058.22345  21730027.6254                   21730026.3484
  -6865089.77047  -3636750.44944  21864824.6174                   21864824.2704
  -3851943.74248  -2984944.69146  20714223.3594                   20714221.5704
 -16850069.58648 -13091652.69946  19934319.9454                   19934318.2854
   4658935.69147   6216918.44144  22738029.3134                   22738028.9924
 -10413755.90647  -8052357.12145  21706624.1954                   21706622.8914
 -10586793.71547  -8202257.75445  21755767.5634                   21755765.3524
 11  8 20 19 15  0.0000000  0  7G17G24G07G08G26G11G28
  -5675788.74247  -4379322.13345  21699925.3204                   21699924.3404
  -6969215.25847  -3717887.17645  21845009.9694                   21845009.7384
  -3897914.40248  -3020766.02346  20705475.2424                   20705473.5864
 -16955919.44548 -13174133.11746  19914177.5004                   19914175.9454
   4547078.37947   6129756.91444  22716743.5004                   22716743.0824
 -10470698.48847  -8096727.97745  21695788.9304                   21695786.8834
 -10705416.20747  -8294690.86345  21733194.9924                   21733192.1604
 11  8 20 19 15 30.0000000  0  7G17G24G07G08G26G11G28
  -5833639.68047  -4502322.80945  21669887.5394                   21669886.3674
  -7072816.34047  -3798615.28945  21825295.5864                   21825295.7544
  -3943426.63347  -3056230.16446  20696814.9844                   20696813.4804
 -17061264.73448 -13256220.35546  19894131.3134                   19894129.1054
   4435800.80947   6043047.10544  22695569.2034                   22695567.8874
 -10527112.23047  -8140686.77045  21685053.9384                   21685051.5864
 -10824037.73047  -8387123.21545  21710621.6174                   21710619.1054
 11  8 20 19 16  0.0000000  0  7G17G24G07G08G26G11G28
  -5991146.78147  -4625055.56645  21639914.9774                   21639913.7734
  -7175886.30547  -3878929.50845  21805681.6954                   21805681.9414
  -3988475.49248  -3091333.22346  20688242.4224                   20688240.6724
 -17166098.59847 -13337909.10546  19874181.6564                   19874180.1024
   4325108.10947   5956793.04744  22674504.2194                   22674503.4694
 -10582992.89147  -8184230.14545  21674420.1644                   21674418.0904
 -10942653.01647  -8479550.70745  21688050.1644                   21688047.4184
 11  8 20 19 16 30.0000000  0  7G17G24G07G08G26G11G28
  -4572882.68747  -3519914.66045  21909801.7344                   21909799.6604
  -5702999.28947  -2731225.32845  22085962.7814                   22085962.6454
  -2457638.72748  -1898473.46546  20979551.1024                   20979549.0904
 -15694994.23048 -12191594.03946  20154123.2114                   20154121.7544
   5790425.81347   7098599.06344  22953344.8134                   22953344.6254
  -9062917.94547  -6999756.17245  21963680.0164                   21963678.6604
  -9485836.66847  -7344369.13745  21965272.9144                   21965270.2934
 11  8 20 19 17  0.0000000  0  7G17G24G07G08G26G11G28
  -4729689.82047  -3642101.99645  21879961.5474                   21879960.2934
  -5804993.75847  -2810701.52045  22066554.4614                   22066553.7464
  -2501752.38748  -1932847.75446  20971156.5234                   20971154.4454
 -15798789.95348 -12272473.83646  20134371.8204                   20134370.2194
   5680913.56347   7013264.84044  22932505.3674                   22932504.6414
  -9117725.19147  -7042463.13745  21953251.0234                   21953248.7424
  -9604429.37947  -7436779.03145  21942705.8594                   21942702.7704
 11  8 20 19 17 30.0000000  0  7G17G24G07G08G26G11G28
  -4886140.79747  -3764011.83245  21850190.4614                   21850189.0944
  -5906443.60547  -2889753.32444  22047249.1094                   22047248.5234
  -2545393.93448  -1966854.18746  20962851.8284                   20962850.2384
 -15902058.73048 -12352943.01646  20114720.6334                   20114718.8954
   5571996.93447   6928394.73844  22911779.0394                   22911778.6414
  -9171991.86747  -7084748.85545  21942924.2034                   21942922.4104
  -9723005.11748  -7529175.71545  21920141.4924                   21920138.9804
 11  8 20 19 18  0.0000000  0  7G17G24G07G08G26G11G28
  -5042232.87147  -3885641.96145  21820486.7814                   21820485.0744
  -6007345.56247  -2968378.20345  22028047.9844                   22028047.3284
  -2588561.48047  -2000491.29746  20954637.4144                   20954635.7424
 -16004796.52048 -12432998.44146  20095170.0704                   20095168.3444
   5463677.77747   6843990.19144  22891166.5474                   22891165.8754
  -9225717.25447  -7126612.80145  21932700.7194                   21932698.4884
  -9841561.73448  -7621557.48045  21897580.7814                   21897578.0084
 11  8 20 19 18 30.0000000  0  7G17G24G07G08G26G11G28
  -5197965.62547  -4006992.10945  21790851.6174                   21790850.1214
  -6107699.35247  -3046575.98445  22008950.7504                   22008951.0594
  -2631256.28148  -2033760.01646  20946512.9534                   20946510.5164
 -16107002.56647 -12512639.51246  20075720.9534                   20075719.4454
   5355955.64147   6760050.86344  22870667.6954                   22870667.4964
  -9278903.09047  -7168056.33644  21922579.7814                   21922577.1294
  -9960100.01647  -7713924.96145  21875023.7344                   21875021.0704
 11  8 20 19 19  0.0000000  0  7G17G24G07G08G26G11G28
  -5353325.19147  -4128051.46945  21761287.8054                   21761286.4344
  -6207490.87947  -3124335.57444  21989960.8914                   21989961.1844
  -2673465.94548  -2066650.69546  20938480.8524                   20938479.1954
 -16208661.79748 -12591854.50046  20056375.8834                   20056374.0394
   5248843.60947   6676586.93444  22850285.6174                   22850284.5824
  -9331537.19947  -7209069.91844  21912564.2274                   21912561.4964
 -10078606.20748  -7806267.43445  21852472.5864                   21852469.7704
 11  8 20 19 19 30.0000000  0  7G17G24G07G08G26G11G28
  -5508321.99247  -4248828.16845  21731792.9694                   21731791.6764
  -6306730.21547  -3201664.90644  21971076.5234                   21971076.5274
  -2715202.08647  -2099172.40646  20930538.8524                   20930536.8204
 -16309784.25447 -12670651.23046  20037132.6954                   20037131.6214
   5142330.19947   6593589.45344  22830016.7974                   22830015.5314
  -9383632.34447  -7249663.53944  21902650.0394                   21902648.2624
 -10197091.54347  -7898593.65245  21829925.3284                   21829922.8324
 11  8 20 19 20  0.0000000  0  7G17G24G07G08G26G11G28
  -5662943.18447  -4369312.17245  21702369.2584                   21702368.5984
  -6405403.48847  -3278553.15244  21952299.7584                   21952299.2114
  -2756452.51647  -2131315.64546  20922688.7664                   20922687.4454
 -16410355.29348 -12749018.29346  20017994.9144                   20017993.2464
   5036428.28547   6511068.48044  22809863.8834                   22809863.1884
  -9435176.42247  -7289827.77044  21892841.5864                   21892840.1214
 -10315543.20748  -7990893.63745  21807384.8984                   21807382.5084
 11  8 20 19 20 30.0000000  0  7G17G24G07G08G26G11G28
  -5817193.31647  -4489507.03945  21673016.6174                   21673015.2384
  -6503515.31647  -3355003.89844  21933629.1024                   21933629.5474
  -2797223.33647  -2163085.16846  20914930.6884                   20914929.0554
 -16510378.91448 -12826958.78546  19998960.6334                   19998959.3754
   4931132.09447   6429019.49244  22789826.1954                   22789825.7704
  -9486176.23447  -7329567.89144  21883137.2114                   21883134.8874
 -10433966.26247  -8083171.32445  21784849.7734                   21784847.1804
 11  8 20 19 21  0.0000000  0  7G17G24G07G08G26G11G28
  -5971071.33247  -4609411.96145  21643734.7274                   21643733.1174
  -6601064.06647  -3431015.88345  21915066.8674                   21915066.7344
  -2837514.50047  -2194480.92646  20907263.4694                   20907261.7304
 -16609852.57848 -12904470.74646  19980031.8594                   19980030.0204
   4826442.03147   6347442.84444  22769904.4534                   22769904.4614
  -9536632.56247  -7368884.52044  21873535.3524                   21873533.9104
 -10552360.03947  -8175426.19545  21762319.9614                   21762317.8014
 11  8 20 19 21 30.0000000  0  7G17G24G07G08G26G11G28
  -6124573.89147  -4729024.30146  21614524.2344                   21614522.4734
  -6698046.31247  -3506586.44544  21896611.3054                   21896611.3284
  -2877323.94947  -2225501.33246  20899688.1644                   20899686.1524
 -16708772.68048 -12981551.34846  19961207.9144                   19961206.3014
   4722360.56347   6266340.40244  22750098.4454                   22750098.4104
  -9586544.05547  -7407776.60544  21864037.8204                   21864036.0354
 -10670721.71148  -8267656.07045  21739796.6334                   21739793.9344
 11  8 20 19 22  0.0000000  0  7G17G24G07G08G26G11G28
  -6277703.47748  -4848346.01246  21585384.5784                   21585382.9024
  -6794464.59047  -3581717.55545  21878263.6484                   21878263.5124
  -2916655.53147  -2256149.36346  20892203.8834                   20892201.6254
 -16807140.43748 -13058201.57446  19942489.3834                   19942487.5274
   4618884.48447   6185709.69144  22730408.1334                   22730407.4804
  -9635915.26247  -7446247.68744  21854643.0864                   21854640.5554
 -10789054.07847  -8359863.09445  21717279.0234                   21717275.9414
 11  8 20 19 22 30.0000000  0  7G17G24G07G08G26G11G28
  -6430457.27047  -4967374.91445  21556316.4064                   21556314.7854
  -6890315.79747  -3656406.79345  21860024.1484                   21860023.8674
  -2955507.90247  -2286423.98446  20884810.1884                   20884808.6454
 -16904952.40647 -13134418.69946  19923876.1174                   19923875.0004
   4516015.33247   6105551.89544  22710832.5474                   22710832.3754
  -9684744.92647  -7484296.78544  21845350.6644                   21845348.5274
 -10907355.15647  -8452045.74245  21694766.6174                   21694764.2384
 11  8 20 19 23  0.0000000  0  7G17G24G07G08G26G11G28
  -6582837.19947  -5086112.48845  21527319.3204                   21527317.6024
  -6985601.77047  -3730655.57845  21841891.9144                   21841891.4024
  -2993884.64147  -2316327.98846  20877507.0704                   20877505.6884
 -17002209.76648 -13210203.68046  19905368.4844                   19905366.7934
   4413750.21147   6025864.78944  22691372.1254                   22691371.4534
  -9733037.26247  -7521927.18044  21836160.4454                   21836158.7034
 -11025627.33647  -8544205.87145  21672260.4384                   21672257.7154
 11  8 20 19 23 30.0000000  0  7G17G24G07G08G26G11G28
  -6734844.37147  -5204559.60545  21498392.9694                   21498391.8834
  -7080322.41847  -3804463.86745  21823866.9614                   21823866.8714
  -3031787.02047  -2345862.35946  20870294.8204                   20870293.5124
 -17098911.88348 -13285555.98846  19886966.7894                   19886965.5044
   4312087.92647   5946647.42244  22672026.5234                   22672025.8094
  -9780794.52747  -7559140.63344  21827072.9144                   21827070.8134
 -11143871.01647  -8636343.79345  21649759.2814                   21649756.8714
 11  8 20 19 24  0.0000000  0  7G17G24G07G08G26G11G28
  -6886476.93047  -5322714.81245  21469538.3674                   21469536.9844
  -7174475.85247  -3877830.14145  21805949.9144                   21805950.1484
  -3069214.77047  -2375026.88746  20863172.4144                   20863170.7704
 -17195056.48048 -13360473.87146  19868671.1564                   19868669.7344
   4211029.22347   5867900.35944  22652795.4454                   22652795.2464
  -9828017.15647  -7595937.50844  21818086.6884                   21818084.2974
 -11262085.37947  -8728458.88345  21627263.8674                   21627261.5704
 11  8 20 19 24 30.0000000  0  7G17G24G07G08G26G11G28
  -5462315.62547  -4212978.70745  21740547.0634                   21740545.7344
  -5692644.84047  -2723156.60945  22087933.5864                   22087932.8714
  -1530753.73447  -1176226.11745  21155931.6024                   21155930.1804
 -15715225.01648 -12207358.46146  20150273.8754                   20150272.1524
   5685990.56347   7017220.87544  22933471.8444                   22933471.0314
  -8299290.96947  -6404722.30944  22108993.6724                   22108991.6454
  -9804852.05947  -7592952.40245  21904566.0234                   21904563.4654
 11  8 20 19 25  0.0000000  0  7G17G24G07G08G26G11G28
  -5613210.19947  -4330558.85945  21711832.7814                   21711831.3054
  -5785675.16047  -2795647.76244  22070229.8134                   22070229.3634
  -1567247.58247  -1204662.93045  21148987.3134                   21148985.4264
 -15810262.60947 -12281413.73446  20132188.8054                   20132187.4384
   5586124.68047   6939403.28544  22914468.0704                   22914466.7734
  -8345460.83247  -6440698.84044  22100208.3524                   22100206.0164
  -9923019.32447  -7685030.79345  21882079.8674                   21882077.1994
 11  8 20 19 25 30.0000000  0  7G17G24G07G08G26G11G28
  -5763739.11347  -4447854.07445  21683188.5554                   21683186.6684
  -5878147.16447  -2867703.84444  22052632.5394                   22052632.5474
  -1603280.11347  -1232740.27345  21142130.8594                   21142129.5904
 -15904749.18448 -12355039.66846  20114208.7734                   20114207.1994
   5486850.21147   6862046.53944  22895576.4924                   22895575.4454
  -8391111.06647  -6476270.47344  22091520.4844                   22091519.2074
 -10041167.08647  -7777093.98445  21859596.6334                   21859594.2074
 11  8 20 19 26  0.0000000  0  7G17G24G07G08G26G11G28
  -5913911.78147  -4564871.70745  21654611.4694                   21654609.6564
  -5970069.60247  -2939331.70744  22035140.5234                   22035140.2894
  -1638861.40647  -1260466.00446  21135359.7114                   21135358.2894
 -15998692.93447 -12428242.60246  20096331.8914                   20096330.1134
   5388157.32847   6785142.96944  22876795.3134                   22876794.9924
  -8436252.28947  -6511445.46144  22082930.4844                   22082928.7344
 -10159304.16847  -7869148.85245  21837115.9774                   21837113.4924
 11  8 20 19 26 30.0000000  0  7G17G24G07G08G26G11G28
  -6063720.64547  -4681605.84045  21626104.2034                   21626102.1604
  -6061435.06247  -3010525.55144  22017754.0864                   22017753.8164
  -1673985.61747  -1287835.56245  21128675.9534                   21128674.5204
 -16092085.48048 -12501016.03546  20078560.1254                   20078558.2814
   5290052.57446   6708697.70344  22858126.2814                   22858126.4804
  -8480879.23847  -6546219.70744  22074438.4534                   22074436.1374
 -10277423.88347  -7961190.19145  21814638.9454                   21814636.2774
 11  8 20 19 27  0.0000000  0  7G17G24G07G08G26G11G28
  -6213170.16047  -4798059.98845  21597664.7664                   21597663.4924
  -6152247.54347  -3081288.50844  22000473.6334                   22000473.5004
  -1708658.05947  -1314853.10946  21122078.1414                   21122076.6294
 -16184930.21948 -12573362.59446  20060891.7034                   20060890.4804
   5192530.53547   6632706.51244  22839569.1484                   22839568.8164
  -8524997.66847  -6580597.73044  22066043.0864                   22066041.0744
 -10395530.33247  -8053221.18745  21792163.9224                   21792161.2464
 11  8 20 19 27 30.0000000  0  7G17G24G07G08G26G11G28
  -6362256.28547  -4914230.94145  21569294.3284                   21569293.1884
  -6242502.98847  -3151617.39544  21983297.7974                   21983298.1054
  -1742876.25447  -1341516.67645  21115566.5004                   21115565.2304
 -16277222.47747 -12645278.65246  20043329.2344                   20043327.5234
   5095594.32847   6557171.80144  22821122.6564                   22821122.5004
  -8568605.99647  -6614578.25044  22057744.4144                   22057743.1024
 -10513619.66047  -8145238.85545  21769691.9614                   21769689.6454
 11  8 20 19 28  0.0000000  0  7G17G24G07G08G26G11G28
  -6510980.43747  -5030119.86345  21540992.6414                   21540991.7034
  -6332203.07447  -3221513.56244  21966229.0474                   21966228.6524
  -1776643.24647  -1367828.67245  21109141.0554                   21109139.9064
 -16368963.04747 -12716764.82846  20025871.6174                   20025870.1684
   4999240.93047   6482091.21544  22802787.5084                   22802786.6884
  -8611707.84847  -6648164.12944  22049543.1804                   22049540.7854
 -10631693.85947  -8237244.71945  21747223.6174                   21747220.7114
 11  8 20 19 28 30.0000000  0  7G17G24G07G08G26G11G28
  -6659344.25047  -5145728.00445  21512760.2814                   21512758.8524
  -6421348.87147  -3290977.81244  21949264.8204                   21949264.6094
  -1809961.59447  -1393791.07046  21102800.9304                   21102799.2504
 -16460152.84047 -12787821.82446  20008519.2344                   20008517.6174
   4903468.31647   6407463.20344  22784562.8444                   22784561.9494
  -8654306.59847  -6681357.97744  22041436.6334                   22041434.5904
 -10749754.34447  -8329239.89845  21724757.2114                   21724754.5204
 11  8 20 19 29  0.0000000  0  7G17G24G07G08G26G11G28
  -6807345.86347  -5261053.91046  21484596.2034                   21484595.1484
  -6509938.60547  -3360008.76245  21932407.6024                   21932406.9454
  -1842830.66447  -1419403.38746  21096546.0474                   21096544.5514
 -16550788.77047 -12858447.25446  19991271.4774                   19991269.6484
   4808277.19147   6333288.27344  22766447.9844                   22766447.7424
  -8696402.28147  -6714159.82844  22033426.3674                   22033423.6724
 -10867799.33647  -8421222.99645  21702294.1884                   21702290.9304
 11  8 20 19 29 30.0000000  0  7G17G24G07G08G26G11G28
  -6954992.57847  -5376103.25045  21456500.1174                   21456498.7894
  -6597979.79747  -3428612.27045  21915653.3524                   21915653.0164
  -1875259.59047  -1444672.73845  21090374.7194                   21090373.6524
 -16640877.65247 -12928646.41446  19974128.1254                   19974126.7464
   4713658.66046   6259559.53144  22748443.0704                   22748442.4384
  -8738004.26647  -6746576.96944  22025509.2114                   22025507.9614
 -10985836.36747  -8513199.90245  21679832.5474                   21679829.5984
 11  8 20 19 30  0.0000000  0  7G17G24G07G08G26G11G28
  -7102277.69947  -5490870.84846  21428472.7344                   21428471.0984
  -6685464.89147  -3496782.46544  21899005.3754                   21899005.4774
  -1907242.31647  -1469594.40245  21084288.9614                   21084287.7544
 -16730411.17647 -12998412.81246  19957090.5634                   19957088.8594
   4619619.39146   6186282.16444  22730547.8284                   22730548.0514
  -8779107.17247  -6778605.23844  22017687.9454                   22017685.8484
 -11103858.27047  -8605164.99645  21657373.3284                   21657370.8754
 11  8 20 19 30 30.0000000  0  7G17G24G07G08G26G11G28
  -7249207.18047  -5605361.32845  21400512.8674                   21400511.6764
  -6772400.25047  -3564524.29745  21882462.1334                   21882462.5634
  -1938786.54747  -1494174.38346  21078286.2424                   21078285.0354
 -16819395.18447 -13067751.02346  19940157.7194                   19940156.0514
   4526151.85546   6113450.29344  22712761.4694                   22712760.6054
  -8819719.31247  -6810251.07444  22009959.0634                   22009957.2974
 -11221871.39847  -8697123.26645  21634915.9844                   21634913.5784
 11  8 20 19 31  0.0000000  0  7G17G24G07G08G26G11G28
  -7395777.43047  -5719571.89846  21372621.3364                   21372619.8954
  -6858782.17647  -3631834.90244  21866023.8594                   21866024.3874
  -1969890.01647  -1518410.92246  21072368.0474                   21072365.9024
 -16907825.38748 -13136657.69546  19923329.8594                   19923328.3954
   4433258.50447   6041065.85244  22695084.4144                   22695083.6884
  -8859838.85547  -6841513.08244  22002324.8984                   22002323.4224
 -11339872.11747  -8789071.87945  21612461.7664                   21612458.6954
 11  8 20 19 31 30.0000000  0  7G17G24G07G08G26G11G28
  -7541988.84847  -5833502.84845  21344798.3594                   21344796.8204
  -6944610.64847  -3698714.23044  21849691.3674                   21849691.4734
  -2000554.16047  -1542305.10545  21066532.5004                   21066531.1524
 -16995701.16047 -13205132.34846  19906607.7584                   19906605.9304
   4340938.03547   5969127.78944  22677517.1954                   22677515.7894
  -8899468.57847  -6872393.41444  21994784.2194                   21994782.0594
 -11457860.52047  -8881010.87545  21590008.8204                   21590006.3204
 11  8 20 19 32  0.0000000  0  7G17G24G07G08G26G11G28
  -7687842.25047  -5947154.81646  21317043.5944                   21317041.5234
  -7029886.67247  -3765163.05144  21833464.1414                   21833463.6524
  -2030781.31647  -1565858.78946  21060780.4774                   21060779.2034
 -17083022.81248 -13273175.21146  19889990.8984                   19889989.2154
   4249188.32847   5897634.47744  22660057.4304                   22660056.3794
  -8938610.75447  -6902893.85544  21987335.5784                   21987333.6454
 -11575837.17647  -8972940.72345  21567558.8674                   21567556.3444
 11  8 20 19 32 30.0000000  0  7G17G24G07G08G26G11G28
  -6257908.88347  -4832921.00446  21589150.8444                   21589148.6684
  -5539183.60547  -2603576.25844  22117135.5084                   22117135.1524
   -485148.07047   -361469.30145  21354904.8054                   21354903.4574
 -15594362.72748 -12113180.35946  20173273.3674                   20173271.8284
   5733435.32447   7054190.54344  22942499.9304                   22942499.8284
  -7401842.65647  -5705412.26244  22279772.9304                   22279770.8794
 -10118374.62547  -7837255.62145  21844904.9384                   21844901.6764
 11  8 20 19 33  0.0000000  0  7G17G24G07G08G26G11G28
  -6403040.47747  -4946010.49645  21561532.9304                   21561531.2974
  -5623348.91447  -2669159.57845  22101119.5784                   22101119.7154
   -514499.56247   -384340.63745  21349319.5004                   21349318.1254
 -15680567.55948 -12180352.97346  20156869.2424                   20156867.6024
   5642829.90247   6983588.90644  22925258.6174                   22925257.6724
  -7440010.33247  -5735153.32044  22272509.4384                   22272507.8204
 -10236322.21547  -7929162.82045  21822459.9064                   21822457.3054
 11  8 20 19 33 30.0000000  0  7G17G24G07G08G26G11G28
  -6547809.85947  -5058817.78946  21533984.3204                   21533982.2814
  -5706957.62947  -2734309.22345  22085208.8444                   22085208.6484
   -543414.03947   -406871.45745  21343817.1564                   21343815.7304
 -15766211.93048 -12247088.89546  20140571.7034                   20140570.0474
   5552795.97347   6913432.57844  22908126.1644                   22908124.9844
  -7477692.63347  -5764516.18444  22265339.5864                   22265336.9414
 -10354253.97747  -8021057.71545  21800018.4534                   21800015.6764
 11  8 20 19 34  0.0000000  0  7G17G24G07G08G26G11G28
  -6692212.28947  -5171339.14545  21506505.4534                   21506503.7504
  -5790005.05547  -2799021.50844  22069406.3054                   22069405.8134
   -571887.99647   -429059.01245  21338398.9534                   21338397.1294
 -15851289.90247 -12313383.41846  20124381.9144                   20124380.0164
   5463337.34447   6843724.53144  22891102.0314                   22891102.1724
  -7514886.62947  -5793498.54744  22258261.5634                   22258259.3404
 -10472164.75447  -8112936.23445  21777580.5944                   21777577.9734
 11  8 20 19 34 30.0000000  0  7G17G24G07G08G26G11G28
  -6836248.52747  -5283575.12546  21479096.6024                   21479094.6094
  -5872491.88347  -2863296.94545  22053709.0004                   22053708.8634
   -599923.63347   -450905.02045  21333064.0084                   21333062.2034
 -15935802.00848 -12379237.02746  20108299.4144                   20108298.1914
   5374451.93047   6774463.16444  22874187.6254                   22874187.1804
  -7551594.75847  -5822102.29344  22251276.0554                   22251273.9104
 -10590054.99647  -8204798.77045  21755146.8284                   21755144.1214
 11  8 20 19 35  0.0000000  0  7G17G24G07G08G26G11G28
  -6979921.22747  -5395527.84845  21451755.8674                   21451754.6214
  -5954420.76647  -2927137.60944  22038118.5234                   22038118.2664
   -627524.99647   -472412.64145  21327811.6804                   21327810.1844
 -16019750.18448 -12444651.19946  20092324.9534                   20092323.6884
   5286135.92647   6705645.47744  22857382.2894                   22857381.6644
  -7587822.03147  -5850331.36344  22244381.9694                   22244379.8594
 -10707927.32847  -8296647.34445  21732716.6254                   21732713.5274
 11  8 20 19 35 30.0000000  0  7G17G24G07G08G26G11G28
  -7123228.43047  -5507195.78146  21424485.1564                   21424483.8674
  -6035789.98447  -2990542.18045  22022634.2974                   22022634.1334
   -654691.20747   -493581.18045  21322642.1094                   21322640.8834
 -16103131.54347 -12509623.70346  20076458.4064                   20076456.3404
   5198390.10547   6637272.12944  22840683.8754                   22840684.5204
  -7623568.36347  -5878185.65644  22237579.8754                   22237577.7894
 -10825779.52747  -8388480.22345  21710289.7034                   21710287.0474
 11  8 20 19 36  0.0000000  0  7G17G24G07G08G26G11G28
  -7266165.37147  -5618575.18045  21397285.4534                   21397284.0314
  -6116594.34847  -3053506.62544  22007257.5314                   22007257.3484
   -681419.02347   -514408.10945  21317556.1954                   21317554.1134
 -16185940.30148 -12574150.01646  20060699.8984                   20060698.6294
   5111218.28146   6569346.04344  22824095.7974                   22824096.1914
  -7658830.68447  -5905662.82444  22230869.7584                   22230868.4184
 -10943606.05947  -8480293.11745  21687868.3284                   21687865.5204
 11  8 20 19 36 30.0000000  0  7G17G24G07G08G26G11G28
  -7408727.24647  -5729662.32445  21370156.7734                   21370155.3364
  -6196829.44547  -3116027.47344  21991989.6414                   21991989.3754
   -707705.14847   -534890.86745  21312553.7114                   21312552.2274
 -16268171.34448 -12638226.17646  20045052.0554                   20045050.2584
   5024623.91047   6501869.88344  22807617.4534                   22807617.3164
  -7693606.57447  -5932760.94544  22224251.9774                   22224250.2304
 -11061402.29347  -8572082.38345  21665452.6094                   21665449.3874
 11  8 20 19 37  0.0000000  0  7G17G24G07G08G26G11G28
  -7550914.97747  -5840457.93046  21343099.3834                   21343097.8244
  -6276496.37547  -3178105.58645  21976829.3834                   21976829.2624
   -733551.85947   -555031.22745  21307635.6024                   21307634.1294
 -16349825.16448 -12701852.55946  20029514.0704                   20029512.4144
   4938604.67247   6434841.88744  22791248.8674                   22791247.9884
  -7727899.05547  -5959482.37944  22217726.0944                   22217724.6294
 -11179169.08247  -8663848.69545  21643042.3594                   21643039.8714
 11  8 20 19 37 30.0000000  0  7G17G24G07G08G26G11G28
  -7692729.12547  -5950962.44946  21316112.7504                   21316111.4224
  -6355595.46547  -3239741.22745  21961777.3204                   21961776.6024
   -758960.64147   -574830.34045  21302800.6884                   21302799.0474
 -16430901.20748 -12765028.71946  20014085.5084                   20014084.1644
   4853159.03147   6368260.83644  22774988.8834                   22774988.7384
  -7761710.07847  -5985828.64844  22211293.0164                   22211290.9414
 -11296905.96147  -8755591.72345  21620637.6094                   21620634.8834
 11  8 20 19 38  0.0000000  0  7G17G24G07G08G26G11G28
  -7834168.14547  -6061174.64145  21289198.0784                   21289196.5274
  -6434125.21147  -3300933.23445  21946833.4844                   21946833.4534
   -783931.43447   -594288.16846  21298048.7114                   21298047.6604
 -16511397.43448 -12827753.07046  19998768.4454                   19998766.0124
   4768287.34847   6302127.02744  22758838.9144                   22758838.1564
  -7795040.09047  -6011800.11744  22204949.9534                   22204948.8134
 -11414611.23047  -8847310.10245  21598239.1644                   21598236.1604
 11  8 20 19 38 30.0000000  0  7G17G24G07G08G26G11G28
  -7975231.40647  -6171094.03545  21262354.6174                   21262353.0904
  -6512085.76247  -3361681.71145  21931997.8134                   21931998.3674
   -808465.76647   -613405.89845  21293380.1484                   21293378.8244
 -16591313.22748 -12890025.12546  19983560.2734                   19983558.6564
   4683988.47747   6236439.57444  22742797.0084                   22742796.3094
  -7827891.17247  -6037398.39844  22198698.5704                   22198696.6134
 -11532284.49647  -8939003.55545  21575846.7974                   21575844.2234
 11  8 20 19 39  0.0000000  0  7G17G24G07G08G26G11G28
  -8115914.85547  -6280717.47746  21235583.5554                   21235581.5744
  -6589472.69947  -3421983.22345  21917271.8284                   21917271.8014
   -832560.39547   -632180.99245  21288795.2424                   21288793.9184
 -16670643.16047 -12951840.68046  19968464.2034                   19968462.5824
   4600265.53546   6171200.87544  22726864.9924                   22726864.3554
  -7860260.45747  -6062621.23044  22192539.1174                   22192537.3834
 -11649920.73447  -9030668.14845  21553460.6254                   21553458.4804
 11  8 20 19 39 30.0000000  0  7G17G24G07G08G26G11G28
  -8256224.96947  -6390049.99646  21208883.5784                   21208881.6024
  -6666292.44147  -3481842.76245  21902653.5084                   21902653.7774
   -856222.82848   -650619.31245  21284292.2814                   21284290.6214
 -16749393.01648 -13013204.22746  19953478.6804                   19953477.0234
   4517110.99646   6106405.10944  22711041.4064                   22711040.4494
  -7892156.75847  -6087475.49644  22186469.8204                   22186467.7774
 -11767525.52047  -9122308.23045  21531081.5004                   21531078.5314
 11  8 20 19 40  0.0000000  0  7G17G24G07G08G26G11G28
  -8396160.32047  -6499090.50445  21182254.7734                   21182252.8914
  -6742544.14547  -3541259.65645  21888143.3444                   21888143.5164
   -879453.55147   -668721.22745  21279871.9304                   21279870.0354
 -16827561.18048 -13074114.51246  19938603.7034                   19938602.1804
   4434524.73847   6042052.14844  22695326.0004                   22695325.1134
  -7923580.94547  -6111961.93044  22180489.3054                   22180487.7664
 -11885097.51647  -9213922.77345  21508708.0634                   21508705.6484
 11  8 20 19 40 30.0000000  0  7G17G24G07G08G26G11G28
  -8535723.27047  -6607840.83646  21155696.3204                   21155694.7544
  -6818230.23847  -3600235.84445  21873740.6334                   21873740.8404
   -902256.05947   -686489.47745  21275532.6484                   21275531.4614
 -16905149.08248 -13134572.64546  19923839.3834                   19923837.9384
   4352503.02347   5978139.11344  22679717.2814                   22679716.7704
  -7954536.66047  -6136083.29344  22174598.2194                   22174596.8954
 -12002638.39547  -9305513.07045  21486341.4844                   21486338.6764
 11  8 20 19 41  0.0000000  0  7G17G24G07G08G26G11G28
  -7099487.03947  -5488695.69946  21429003.1564                   21429001.3284
  -5317926.30547  -2431167.84445  22159238.9614                   22159238.9804
    650790.89147    523676.89845  21571066.9384                   21571066.5234
 -15406731.74248 -11966974.74246  20208978.9844                   20208977.1454
   5846469.43047   7142268.75044  22964009.8204                   22964009.0944
  -6409603.28547  -4932239.12144  22468588.8914                   22468588.3364
 -10544721.96947  -8169474.29345  21763773.6024                   21763770.6804
 11  8 20 19 41 30.0000000  0  7G17G24G07G08G26G11G28
  -7238303.47347  -5596864.34045  21402587.3674                   21402585.5864
  -5392479.90647  -2489261.57045  22145051.9304                   22145052.6684
    628841.91447    506573.73845  21566890.4694                   21566889.7894
 -15483156.16448 -12026526.26246  20194435.9064                   20194434.1994
   5765574.60547   7079233.81344  22948616.5634                   22948615.9184
  -6439627.40247  -4955634.57044  22462877.2114                   22462874.7504
 -10662197.82047  -8261013.91845  21741418.3914                   21741415.7234
 11  8 20 19 42  0.0000000  0  7G17G24G07G08G26G11G28
  -7376738.75047  -5704735.96146  21376243.7274                   21376242.2584
  -5466459.61747  -2546908.07844  22130974.1644                   22130974.0164
    607325.61347    489807.71545  21562796.3754                   21562795.1294
 -15558990.17648 -12085617.71546  20180004.7974                   20180003.6024
   5685249.12147   7016642.50044  22933330.6644                   22933330.1564
  -6469180.68447  -4978663.17644  22457253.2664                   22457250.5944
 -10779632.38748  -8352521.36745  21719071.7504                   21719068.7584
 11  8 20 19 42 30.0000000  0  7G17G24G07G08G26G11G28
  -7514804.23047  -5812319.42646  21349970.6804                   21349969.3554
  -5539876.98047  -2604116.41044  22117003.4454                   22117003.2934
    586229.46947    473369.09045  21558782.3204                   21558780.9224
 -15634244.62948 -12144257.58246  20165684.6254                   20165682.9694
   5605480.38747   6954485.02044  22918151.1094                   22918150.9694
  -6498276.39847  -5001335.16044  22451716.7424                   22451713.9184
 -10897036.31647  -8444004.96145  21696730.6644                   21696727.5514
 11  8 20 19 43  0.0000000  0  7G17G24G07G08G26G11G28
  -7652494.24247  -5919610.32446  21323769.7344                   21323768.2114
  -5612726.52747  -2660882.30144  22103141.0634                   22103140.5784
    565557.47747    457260.96945  21554848.5944                   21554847.2854
 -15708913.50048 -12202441.13346  20151475.6024                   20151473.7344
   5526272.34846   6892764.47744  22903078.3134                   22903078.9384
  -6526911.13747  -5023647.97344  22446267.2584                   22446264.9884
 -11014403.41848  -8535459.83645  21674396.2424                   21674393.4574
 11  8 20 19 43 30.0000000  0  7G17G24G07G08G26G11G28
  -7789806.77347  -6026607.06646  21297639.3834                   21297638.1174
  -5685006.32447  -2717204.19944  22089386.0864                   22089385.6724
    545310.02747    441483.66845  21550995.4774                   21550994.3244
 -15782994.10247 -12260166.30546  20137378.3204                   20137376.8204
   5447626.00447   6831481.58244  22888112.5704                   22888112.5164
  -6555084.35247  -5045601.16044  22440905.5164                   22440904.1604
 -11131731.12147  -8626884.02045  21652069.4454                   21652066.4844
 11  8 20 19 44  0.0000000  0  7G17G24G07G08G26G11G28
  -7926744.78147  -6133311.98446  21271581.5234                   21271579.3204
  -5756719.87147  -2773084.88744  22075739.6884                   22075739.3014
    525483.00047    426033.96545  21547222.7664                   21547221.7074
 -15856488.78948 -12317434.91846  20123392.8834                   20123391.3284
   5369536.89847   6770632.91844  22873252.4454                   22873252.8244
  -6582801.26647  -5067198.80544  22435630.8984                   22435629.6134
 -11249021.47748  -8718279.10545  21629749.4844                   21629746.8404
 11  8 20 19 44 30.0000000  0  7G17G24G07G08G26G11G28
  -8063304.16047  -6239721.86746  21245595.2504                   21245592.6724
  -5827863.55147  -2828521.52344  22062201.5634                   22062201.3634
    506078.77747    410913.72345  21543529.8674                   21543529.0944
 -15929393.11748 -12374243.50846  20109519.8134                   20109518.0944
   5292007.66447   6710220.51644  22858499.7344                   22858499.5234
  -6610059.93447  -5088439.35244  22430444.5554                   22430442.6644
 -11366270.08648  -8809641.65245  21607438.3674                   21607435.1094
 11  8 20 19 45  0.0000000  0  7G17G24G07G08G26G11G28
  -8199487.68747  -6345838.87146  21219679.5944                   21219677.7894
  -5898439.94947  -2883516.12144  22048770.9224                   22048770.3484
    487093.80147    396120.14145  21539917.0474                   21539916.1804
 -16001709.34848 -12430593.84046  20095758.5864                   20095757.2504
   5215034.28147   6650241.23044  22843852.7274                   22843851.7154
  -6636864.98847  -5109326.44544  22425343.5944                   22425341.5904
 -11483478.80147  -8900973.11345  21585133.9614                   21585131.3134
 11  8 20 19 45 30.0000000  0  7G17G24G07G08G26G11G28
  -8335291.66047  -6451660.11745  21193837.5704                   21193835.2664
  -5968445.81647  -2938066.14544  22035449.4064                   22035449.1484
    468529.89847    381654.71145  21536385.1644                   21536383.5634
 -16073433.65648 -12486482.94546  20082109.5634                   20082108.3714
   5138618.69947   6590696.59444  22829310.0634                   22829310.2974
  -6663214.97747  -5129858.91844  22420329.4694                   22420327.3444
 -11600643.39148  -8992270.19945  21562838.4534                   21562835.3594
 11  8 20 19 46  0.0000000  0  7G17G24G07G08G26G11G28
  -8470719.09847  -6557187.96145  21168066.0784                   21168063.6414
  -6037884.53147  -2992174.23844  22022235.5234                   22022234.5864
    450382.62147    367513.90245  21532931.5634                   21532930.4494
 -16144568.07448 -12541912.39546  20068573.4844                   20068572.0274
   5062756.59847   6531583.25844  22814874.3914                   22814874.2504
  -6689114.72347  -5150040.54744  22415401.0234                   22415399.0204
 -11717765.92647  -9083534.51245  21540550.9844                   21540547.6724
 11  8 20 19 46 30.0000000  0  7G17G24G07G08G26G11G28
  -8605777.11347  -6662427.96145  21142365.5554                   21142363.5904
  -6106763.25447  -3045845.97344  22009129.0164                   22009127.7274
    432644.03947    353691.52745  21529556.4224                   21529554.9384
 -16215119.34848 -12596887.44146  20055147.7584                   20055145.8554
   4987439.57847   6472894.61743  22800541.8754                   22800541.2624
  -6714573.08647  -5169878.23044  22410556.4144                   22410554.2504
 -11834852.55948  -9174770.85245  21518269.5164                   21518267.1134
 11  8 20 19 47  0.0000000  0  7G17G24G07G08G26G11G28
  -8740462.16448  -6767377.32445  21116736.2894                   21116733.8284
  -6175078.90647  -3099078.94144  21996128.5004                   21996127.3524
    415315.38747    340188.64145  21526258.7194                   21526257.6374
 -16285083.82448 -12651405.23846  20041833.8364                   20041832.3404
   4912669.91447   6414632.52344  22786313.5634                   22786313.6604
  -6739588.62947  -5189370.87544  22405795.9384                   22405794.0084
 -11951899.19947  -9265976.02745  21495996.1414                   21495993.8094
 11  8 20 19 47 30.0000000  0  8G17G24G07G08G26G11G04G28
  -8874775.66447  -6872037.17246  21091176.9064                   21091175.1214
  -6242833.54347  -3151874.75844  21983235.4224                   21983234.7814
    398394.39547    327003.37545  21523038.4694                   21523037.9734
 -16354462.51648 -12705466.58646  20028632.3054                   20028630.4614
   4838444.24246   6356794.31344  22772189.0234                   22772189.0124
  -6764164.78547  -5208521.14844  22401119.1644                   22401117.9574
  31218969.53156  24376353.76252  24471816.6334                   24471822.2344
 -12068906.63347  -9357150.65245  21473730.1484                   21473727.6024
 11  8 20 19 48  0.0000000  0  8G17G24G07G08G26G11G04G28
  -9008723.03147  -6976411.71946  21065687.5164                   21065685.6374
  -6310032.59047  -3204237.66444  21970447.8984                   21970447.1054
    381874.10247    314130.34845  21519895.2664                   21519894.1684
 -16423260.08248 -12759075.11346  20015539.9064                   20015538.4654
   4764756.02747   6299374.88344  22758167.2584                   22758166.5784
  -6788308.85247  -5227334.73844  22396525.1564                   22396523.6764
  31010092.21546  24213592.39843  24432068.7584                   24432074.3404
 -12185879.12148  -9448298.04345  21451471.6724                   21451469.3554
 11  8 20 19 48 30.0000000  0  8G17G24G07G08G26G11G04G28
  -9142310.00448  -7080505.43746  21040266.9454                   21040264.6094
  -6376682.30947  -3256172.49644  21957764.9384                   21957764.4144
    365747.17247    301563.81645  21516826.3594                   21516825.4064
 -16491482.27048 -12812235.27746  20002557.9534                   20002556.0084
   4691597.84447   6242368.48044  22744245.1954                   22744244.9184
  -6812028.71947  -5245817.81244  22392011.0554                   22392009.7934
  30801142.50046  24050774.62543  24392307.1724                   24392312.3284
 -12302821.62947  -9539422.07445  21429218.0084                   21429215.1484
 11  8 20 19 49  0.0000000  0  8G17G24G07G08G26G11G04G28
  -7700114.17647  -5956716.46146  21314707.6254                   21314705.8014
  -4867362.98047  -2080079.51244  22244978.9224                   22244978.3634
   1925430.50447   1516901.39545  21813624.1724                   21813623.4884
 -14983708.42648 -11637346.59846  20289477.5704                   20289476.2624
   6194388.28947   7413373.98844  23030217.0554                   23030217.1684
  -5259907.93747  -4036373.08244  22687370.3834                   22687368.9344
  32167547.76247  25115506.17243  24652326.5164                   24652330.7034
 -10844311.61747  -8402920.77045  21706763.5164                   21706760.8524
 11  8 20 19 49 30.0000000  0  8G17G24G07G08G26G11G04G28
  -7832986.59048  -6060253.38346  21289422.4844                   21289420.9844
  -4932921.02747  -2131163.71144  22232503.6954                   22232503.2974
   1910080.20347   1504940.05145  21810703.5314                   21810702.6134
 -15050784.46148 -11689613.66446  20276713.6884                   20276711.8914
   6122279.51646   7357185.29744  23016494.7274                   23016495.1724
  -5282791.64147  -4054204.58644  22683015.1094                   22683014.0514
  31958455.77046                  24952577.50843  24612537.0164   24612541.2194
 -10961197.67647  -8494000.81645  21684520.3524                   21684518.5784
 11  8 20 19 50  0.0000000  0  8G17G24G07G08G26G11G04G28
  -7965495.45348  -6163507.01246  21264206.7894                   21264205.0044
  -4997927.56647  -2181818.15244  22220132.8754                   22220132.5204
   1895122.18847   1493284.38745  21807856.5864                   21807856.0984
 -15117280.77048 -11741429.00446  20264059.8834                   20264058.1134
   6050699.53947   7301408.68044  23002873.9534                   23002873.9924
  -5305253.79347  -4071707.58644  22678741.7344                   22678738.8874
  31749303.11746                  24789601.60543  24572736.5554   24572741.4534
 -11078047.97347  -8585053.00045  21662285.0004                   21662282.4964
 11  8 20 19 50 30.0000000  0  8G17G24G07G08G26G11G04G28
  -8097639.12548  -6266476.08246  21239061.0634                   21239058.9734
  -5062381.66047  -2232042.10944  22207867.5704                   22207867.3954
   1880556.57047   1481934.46945  21805085.6564                   21805084.5274
 -15183195.56648 -11792791.20746  20251516.5634                   20251515.3444
   5979648.05946   7246043.86744  22989353.3364                   22989353.0594
  -5327294.96947  -4088882.53544  22674547.1024                   22674543.8444
  31540094.23046                  24626581.85943  24532924.0394   24532929.3164
 -11194860.00048  -8676075.36345  21640056.4614                   21640053.7504
 11  8 20 19 51  0.0000000  0  8G17G24G07G08G26G11G04G28
  -8229409.89548  -6369154.58646  21213985.8054                   21213984.0554
  -5126275.64547  -2281829.63744  22195708.9924                   22195709.0704
   1866390.00847   1470895.50845  21802389.0394                   21802388.5044
 -15248520.47348 -11843693.76646  20239085.7034                   20239084.1254
   5909132.00047   7191096.26644  22975935.2194                   22975934.3164
  -5348909.16047  -4105724.78943  22670433.6334                   22670431.0164
  31330840.01246                  24463526.79343  24493104.2584   24493109.6414
 -11311624.82847  -8767060.95345  21617836.4844                   21617834.0984
 11  8 20 19 51 30.0000000  0  8G17G24G07G08G26G11G04G28
  -8360810.89547  -6471544.95746  21188980.9924                   21188979.2704
  -5189612.93047  -2331183.36744  22183656.3984                   22183656.5984
   1852617.93447   1460163.93045  21799768.3914                   21799767.8014
 -15313258.27347 -11894138.83246  20226766.3054                   20226765.1644
   5839146.25847   7136561.86344  22962616.9384                   22962616.2734
  -5370101.48847  -4122238.32844  22666400.2194                   22666399.2704
  31121540.59046                  24300436.55142  24453274.8594   24453281.0394
 -11428344.61748  -8858011.43045  21595625.9064                   21595623.4064
 11  8 20 19 52  0.0000000  0  8G17G24G07G08G26G11G04G28
  -8491835.91447  -6573642.35946  21164047.6884                   21164045.7304
  -5252387.93747  -2380098.97744  22171710.5944                   22171710.3444
   1839244.78147   1449743.21945  21797224.1414                   21797223.6174
 -15377402.94148 -11944121.72746  20214560.3674                   20214558.6214
   5769695.59847   7082444.43444  22949401.1024                   22949400.3984
  -5390867.83647  -4138419.94143  22662449.2664                   22662447.8284
  30912204.83245                  24137317.84042  24413440.1484   24413445.7234
 -11545012.64148  -8948921.57845  21573424.6724                   21573421.9694
 11  8 20 19 52 30.0000000  0  8G17G24G07G08G26G11G04G28
  -8622488.97347  -6675449.92246  21139185.7034                   21139183.1024
  -5314605.30547  -2428580.03144  22159870.9064                   22159870.8164
   1826265.09847   1439629.08645  21794754.3984                   21794753.0634
 -15440957.78948 -11993645.02046  20202465.6564                   20202464.5594
   5700773.84847   7028739.14144  22936286.0394                   22936285.6564
  -5411214.30547  -4154274.37144  22658576.8524                   22658575.8794
  30702831.95345                  23974170.32042  24373597.9614   24373603.8014
 -11661631.49648  -9039793.42645  21551233.0004                   21551230.1334
 11  8 20 19 53  0.0000000  0  8G17G24G07G08G26G11G04G28
  -8752768.79347  -6776966.63746  21114393.7194                   21114391.7344
  -5376263.96947  -2476625.74644  22148137.7974                   22148137.5004
   1813678.98047   1429821.62945  21792359.1644                   21792358.7584
 -15503921.55548 -12042707.73046  20190484.7584                   20190483.0744
   5632381.66847   6975446.49244  22923270.8524                   22923270.3954
  -5431141.32447  -4169801.96943  22654785.5554                   22654783.9344
  30493425.96145                  23810997.04342  24333748.7344   24333755.7154
 -11778198.71148  -9130625.01645  21529050.7584                   21529048.2194
 11  8 20 19 53 30.0000000  0  8G17G24G07G08G26G11G04G28
  -8882672.27047  -6878190.11346  21089674.1174                   21089671.7034
  -5437361.64547  -2524234.31644  22136510.8594                   22136511.1254
   1801487.67647   1420321.82045  21790039.0234                   21790037.9494
 -15566291.04348 -12091307.36746  20178616.3444                   20178615.0274
   5564519.95747   6922567.19544  22910357.3914                   22910357.1174
  -5450647.95747  -4185001.98844  22651073.1094                   22651072.0554
  30283993.10945                  23647802.75842  24293894.2974   24293901.3554
 -11894710.18748  -9221413.18045  21506879.2734                   21506876.8094
 11  8 20 19 54  0.0000000  0  8G17G24G07G08G26G11G04G28
  -9012198.79347  -6979119.85546  21065025.7814                   21065023.6414
  -5497898.01647  -2571405.50844  22124991.5164                   22124991.1214
   1789690.79347   1411129.35945  21787794.0004                   21787793.9964
 -15628065.50848 -12139443.34446  20166860.8284                   20166859.4384
   5497187.55946   6870100.38344  22897543.8134                   22897544.7384
  -5469735.60947  -4199875.52044  22647442.0314                   22647439.5944
  30074537.12146                  23484590.56342  24254036.8364   24254042.3164
 -12011164.35248  -9312156.69145  21484718.5084                   21484716.4064
 11  8 20 19 54 30.0000000  0  8G17G24G07G08G26G11G04G28
  -9141350.57847  -7079757.57846  21040449.4384                   21040447.0124
  -5557875.50047  -2618141.21944  22113578.6174                   22113578.0824
   1778284.43047   1402241.19145  21785623.9844                   21785623.3094
 -15689246.47748 -12187116.85946  20155218.6334                   20155216.9654
   5430381.10246   6818043.37544  22884830.7734                   22884831.1414
  -5488408.11747  -4214425.54343  22643888.1174                   22643886.5824
  29865058.84446                  23321360.95343  24214173.4304   24214179.9144
 -12127562.24647  -9402856.35245  21462569.2974                   21462566.4024
 11  8 20 19 55  0.0000000  0  8G17G24G07G08G26G11G04G28
  -9270123.22347  -7180099.88746  21015944.6804                   21015942.5634
  -5617290.00847  -2664438.24244  22102272.1564                   22102271.9454
   1767271.95747   1393659.94545  21783528.2274                   21783527.9884
 -15749829.37948 -12234324.35246  20143690.0784                   20143688.3444
   5364103.53946   6766398.47744  22872218.7814                   22872219.4654
  -5506663.01247  -4228650.16044  22640414.1414                   22640412.7114
  29655566.07046                  23158119.99643  24174309.7734   24174314.1334
 -12243898.03147  -9493507.61345  21440431.3914                   21440427.9804
 11  8 20 19 55 30.0000000  0  8G17G24G07G08G26G11G04G28
  -9398518.42647  -7280148.06646  20991511.7664                   20991509.5164
  -5676144.22747  -2710298.69544  22091072.3364                   22091072.8754
   1756649.69547   1385382.76245  21781506.6564                   21781506.9344
 -15809816.02748 -12281067.23446  20132275.1644                   20132273.9344
   5298351.02746   6715162.70744  22859706.9454                   22859706.9534
  -5524504.30547  -4242552.47343  22637019.3054                   22637017.2974
  29446059.93846                  22994868.67243  24134442.0634   24134446.0664
 -12360172.75047  -9584111.29345  21418304.8914                   21418302.1684
 11  8 20 19 56  0.0000000  0  8G17G24G07G08G26G11G04G28
  -9526536.99647  -7379902.79746  20967150.2424                   20967148.5514
  -5734439.38347  -2755723.49644  22079979.4534                   22079979.1684
   1746415.60247   1377408.05145  21779559.7584                   21779558.9924
 -15869206.88748 -12327345.85246  20120973.1484                   20120971.6954
   5233121.51247   6664334.51644  22847294.0004                   22847294.3554
  -5541934.41047  -4256134.39543  22633701.7114                   22633700.0044
  29236542.78146                  22831608.77343  24094571.0234   24094576.1214
 -12476385.84047  -9674666.94145  21396189.8054                   21396187.5234
 11  8 20 19 56 30.0000000  0  8G17G24G07G08G26G11G04G28
  -9654183.58248  -7479367.65246  20942860.3444                   20942858.3204
  -5792180.78547  -2800716.79744  22068991.8284                   22068991.3444
   1736563.58647   1369731.06645  21777685.2344                   21777684.5274
 -15928006.68048 -12373163.91446  20109784.1174                   20109782.8874
   5168408.36347   6613908.63743  22834979.8364                   22834979.2734
  -5558960.15247  -4269401.23843  22630462.2344                   22630461.0274
  29027013.18046                  22668339.15243  24054698.5944   24054704.1524
 -12592540.73447  -9765177.25845  21374086.4384                   21374083.8134
 11  8 20 19 57  0.0000000  0  8G17G24G07G08G26G11G04G28
  -8206031.72748  -6350937.61746  21218434.1254                   21218432.5664
  -4273944.57447  -1617675.62544  22357902.6024                   22357902.0514
   3302514.87947   2589952.76645  22075675.3754                   22075674.5664
 -14410790.75048 -11190917.78146  20398500.2194                   20398499.4614
   6679634.61347   7791487.48044  23122556.7274                   23122556.2974
  -4000160.45347  -3054752.14844  22927092.4224                   22927091.1094
  30392903.56646                  23732669.58643  24314619.1484   24314624.8954
 -11133209.77047  -8628036.24645  21651788.1174                   21651784.9264
 11  8 20 19 57 30.0000000  0  8G17G24G07G08G26G11G04G28
  -8332926.69947  -6449816.79346  21194287.2424                   21194285.2894
  -4330572.32047  -1661801.14144  22347126.9454                   22347126.2854
   3293430.53947   2582873.96145  22073947.1954                   22073946.5984
 -14468399.88348 -11235808.04346  20387537.9614                   20387536.6764
   6615957.54747   7741868.93444  23110439.6174                   23110439.8484
  -4016375.48447  -3067387.27744  22924007.1334                   22924005.8524
  30183366.19946                  23569393.95743  24274745.8054   24274750.6174
 -11249236.57448  -8718446.74645  21629708.6414                   21629706.3054
 11  8 20 19 58  0.0000000  0  8G17G24G07G08G26G11G04G28
  -8459448.64547  -6548405.30546  21170210.9064                   21170208.7814
  -4386647.08247  -1705495.77044  22336455.7584                   22336455.0434
   3284724.71947   2576090.10545  22072290.7114                   22072290.1174
 -14525416.65248 -11280236.73446  20376688.3914                   20376687.0274
   6552792.74246   7692649.56644  23098419.4534                   23098419.3444
  -4032190.96947  -3079711.08643  22920997.0634                   22920995.7894
  29973826.89546                  23406116.75843  24234871.7734   24234876.0274
 -11365200.53947  -8808808.27745  21607641.3914                   21607638.8524
 11  8 20 19 58 30.0000000  0  8G17G24G07G08G26G11G04G28
  -8585594.66047  -6646700.89146  21146205.9064                   21146203.9384
  -4442165.94947  -1748757.24244  22325891.2584                   22325891.2624
   3276399.41047   2569602.74245  22070706.4384                   22070705.7774
 -14581837.37148 -11324200.96946  20365951.6804                   20365950.4344
   6490142.16046   7643830.91844  23086497.3524                   23086497.7304
  -4047605.56247  -3091722.49244  22918064.1254                   22918062.2114
  29764292.18446                  23242843.14542  24194997.1254   24195002.6994
 -11481096.99248  -8899117.20745  21585587.0704                   21585584.7624
 11  8 20 19 59  0.0000000  0  8G17G24G07G08G26G11G04G28
  -8711363.46947  -6744702.53146  21122272.8914                   21122270.4884
  -4497128.64547  -1791585.32444  22315431.9304                   22315431.9414
   3268453.99647   2563411.41045  22069195.1024                   22069194.0594
 -14637661.09448 -11367700.01246  20355328.5784                   20355327.6334
   6428005.08646   7595412.39144  23074672.6884                   23074673.4534
  -4062620.27747  -3103422.29744  22915207.0634                   22915205.5234
  29554766.30146                  23079576.43842  24155124.7664   24155131.0084
 -11596923.77747  -8989371.83645  21563545.9534                   21563543.8444
 11  8 20 19 59 30.0000000  0  8G17G24G07G08G26G11G04G28
  -8836754.68748  -6842409.95346  21098411.8524                   21098409.4144
  -4551535.34847  -1833980.16044  22305079.1024                   22305078.6174
   3260887.64547   2557515.45745  22067755.0634                   22067754.2154
 -14692887.45348 -11410733.57446  20344819.5474                   20344818.2464
   6366380.24247   7547392.99644  23062946.7424                   23062946.6764
  -4077236.25847  -3114811.39143  22912425.4614                   22912423.8984
  29345252.82046                  22916319.43843  24115257.8284   24115262.1644
 -11712678.89147  -9079570.63745  21541518.5944                   21541516.1914
 11  8 20 20  0  0.0000000  0  8G17G24G07G08G26G11G04G28
  -8961770.82847  -6939825.11346  21074621.7974                   21074620.1134
  -4605389.24247  -1875944.25844  22294830.5634                   22294830.0234
   3253696.33247   2551911.72345  22066386.9534                   22066385.8484
 -14747518.74648 -11453303.45346  20334424.0084                   20334422.5984
   6305263.20347   7499769.29744  23051316.3054                   23051316.2544
  -4091457.96546  -3125893.30143  22909718.9144                   22909717.9774
  29135752.94946                  22753072.91843  24075389.8204   24075395.5474
 -11828363.75847  -9169714.68045  21519504.3754                   21519502.1094
 11  8 20 20  0 30.0000000  0  8G17G24G07G08G26G11G04G28
  -9086415.12547  -7036950.52746  21050902.7734                   21050900.5394
  -4658694.29747  -1917480.67244  22284686.7114                   22284687.0514
   3246875.39547   2546596.60945  22065088.6804                   22065087.7894
 -14801558.52348 -11495412.41046  20324140.2974                   20324138.3914
   6244649.14147   7452537.51644  23039781.3914                   23039781.3484
  -4105291.03947  -3136672.37543  22907087.0704                   22907085.7304
  28926266.25446                  22589836.78943  24035526.6884   24035530.3754
 -11943979.94147  -9259805.22745  21497504.1334                   21497500.7464
 11  8 20 20  1  0.0000000  0  8G17G24G07G08G26G11G04G28
  -9210692.30147  -7133789.87146  21027253.6804                   21027251.4694
  -4711455.54347  -1958593.32844  22274646.4774                   22274646.9344
   3240418.88747   2541565.46945  22063859.8364                   22063859.1334
 -14855011.14148 -11537063.84446  20313968.6484                   20313967.2974
   6184531.79747   7405692.77343  23028342.1334                   23028341.0554
  -4118741.70747  -3147153.43744  22904527.7894                   22904525.8364
  28716791.68446                  22426610.07043  23995665.3284   23995668.3484
 -12059530.82047  -9349844.87145  21475515.0004                   21475512.3244
 11  8 20 20  1 30.0000000  0  8G17G24G07G08G26G11G04G28
  -9334599.84047  -7230341.18046  21003674.8364                   21003672.7074
  -4763671.35247  -1999280.99244  22264710.5864                   22264710.1454
   3234327.35547   2536818.72345  22062700.8914                   22062700.7424
 -14907874.46148 -11578256.08646  20303909.0864                   20303907.9574
   6124911.76647   7359235.55544  23016996.3834                   23016996.5274
  -4131809.55547  -3157336.19143  22902040.5704                   22902038.5944
  28507334.68446                  22263397.01243  23955804.6644   23955810.3594
 -12175012.58647  -9439830.66445  21453539.5084                   21453537.0514
 11  8 20 20  2  0.0000000  0  8G17G24G07G08G26G11G04G28
  -9458141.78147  -7326607.60946  20980165.5234                   20980163.3284
  -4815346.17647  -2039547.09844  22254876.9454                   22254876.8364
   3228595.70347   2532352.39145  22061610.5234                   22061609.8094
 -14960152.10948 -11618991.96146  20293960.8364                   20293959.7234
   6065783.52347   7313161.57044  23005744.5474                   23005744.9924
  -4144500.25447  -3167225.07043  22899626.0164                   22899624.2344
  28297894.97346                  22100197.44943  23915950.8914   23915954.4614
 -12290427.95347  -9529764.71945  21431576.5944                   21431574.2544
 11  8 20 20  2 30.0000000  0  8G17G24G07G08G26G11G04G28
  -9581332.82848  -7422600.61746  20956722.7734                   20956720.8404
  -4866495.25447  -2079403.53544  22245143.4144                   22245143.8754
   3223208.04747   2528154.08645  22060584.9384                   22060584.3554
 -15011858.66848 -11659282.82446  20284121.4614                   20284119.9614
   6007130.67247   7267457.99644  22994582.6644                   22994583.3324
  -4156830.41847  -3176833.04744  22897279.6564                   22897278.5634
  28088461.11746                  21937002.45343  23876096.8284   23876101.0744
 -12405790.08247  -9619657.28945  21409624.2424                   21409621.2074
 11  8 20 20  3  0.0000000  0  8G17G24G07G08G26G11G04G28
  -9704161.25848  -7518311.06646  20933349.8364                   20933347.7934
  -4917107.98047  -2118842.02344  22235513.1094                   22235512.3244
   3218173.79347   2524231.20345  22059627.7504                   22059626.6334
 -15062982.96948 -11699119.99246  20274393.0784                   20274391.4774
   5948962.87547   7222132.39144  22983514.3674                   22983514.9184
  -4168790.29347  -3186152.46144  22895004.0314                   22895002.7774
  27879048.08646                  21773823.69143  23836245.8524   23836250.9264
 -12521085.68747  -9709498.02045  21387684.0554                   21387681.6134
 11  8 20 20  3 30.0000000  0  8G17G24G07G08G26G11G04G28
  -9826635.23847  -7613745.32046  20910043.4304                   20910041.5824
  -4967192.69547  -2157869.09045  22225981.5634                   22225981.9574
   3213483.88747   2520576.62145  22058734.3134                   22058733.9654
 -15113532.68048 -11738509.42646  20264773.5704                   20264772.2974
   5891270.54547   7177177.28944  22972536.7504                   22972536.8754
  -4180390.04747  -3195191.30943  22892797.0554                   22892795.3554
  27669651.47346                  21610657.71543  23796398.7344   23796403.6764
 -12636320.98848  -9799291.76245  21365755.3984                   21365752.7234
 11  8 20 20  4  0.0000000  0  8G17G24G07G08G26G11G04G28
  -9948765.86747  -7708912.02746  20886802.6094                   20886801.1134
  -5016761.35247  -2196494.03944  22216549.2734                   22216549.2544
   3209125.88347   2517180.65645  22057905.5634                   22057904.9494
 -15163519.27348 -11777460.07446  20255262.1644                   20255260.5474
   5834040.67246   7132582.55144  22961645.8524                   22961646.0594
  -4191642.34447  -3203959.35943  22890655.1254                   22890653.7154
  27460263.44146                  21447498.47343  23756553.2504   23756558.9264
 -12751505.97348  -9889046.29745  21343836.2814                   21343833.9344
 11  8 20 20  4 30.0000000  0  8G17G24G07G08G26G11G04G28
 -10070553.99647  -7803811.86346  20863627.3444                   20863624.9844
  -5065815.58647  -2234718.12944  22207214.3134                   22207214.7424
   3205097.52747   2514041.56345  22057138.9924                   22057138.7664
 -15212943.66448 -11815972.62546  20245856.3754                   20245855.3244
   5777270.70347   7088346.17644  22950842.8284                   22950842.6294
  -4202550.07447  -3212458.93743  22888579.3134                   22888577.7934
  27250886.73046                  21284348.00843  23716710.4844   23716714.9844
 -12866640.03947  -9978761.15245  21321926.6804                   21321924.7194
 11  8 20 20  5  0.0000000  0  8G17G24G07G08G26G11G04G28
 -10191997.63347  -7898443.25046  20840517.3054                   20840515.3594
  -5114354.28547  -2272540.50444  22197978.2664                   22197978.3134
   3201398.96147   2511159.45345  22056435.0164                   22056434.5904
 -15261804.12948 -11854045.76246  20236558.5394                   20236557.2584
   5720960.70347   7044468.18844  22940127.1884                   22940127.8954
  -4213113.11347  -3220689.91443  22886568.8914                   22886567.6134
  27041526.16846                  21121210.12143  23676871.7584   23676874.9654
 -12981719.73848 -10068433.65245  21300028.1484                   21300025.5354
 11  8 20 20  5 30.0000000  0  8G17G24G07G08G26G11G04G28
  -8737680.20347  -6765208.89146  21117264.6254                   21117263.0474
  -3586963.85247  -1082366.13344  22488630.9924                   22488630.4184
   4773441.39547   3736127.46145  22355585.5164                   22355584.9534
 -13734686.50848 -10664084.02746  20527159.7034                   20527158.5354
   7240523.25047   8228542.85944  23229290.4844                   23229290.8244
  -2647920.67647  -2001059.49243  23184415.7034                   23184413.8914
  28407605.35946                  22185687.61343  23936827.6094   23936830.8984
 -11521326.92248  -8930465.22345  21577932.1334                   21577928.9344
 11  8 20 20  6  0.0000000  0  8G17G24G07G08G26G11G04G28
  -8858451.73447  -6859316.57046  21094282.7114                   21094280.6374
  -3634489.95347  -1119399.46944  22479587.1024                   22479586.6374
   4770381.71147   3733743.17645  22355002.4144                   22355002.5664
 -13782436.07048 -10701291.53546  20518073.2664                   20518071.9734
   7185111.28947   8185364.64144  23218745.7664                   23218746.5594
  -2657817.06646  -2008771.00443  23182532.7194                   23182530.2234
  28198271.51246                  22022570.52043  23896991.7664   23896994.9534
 -11636309.90647  -9020062.37145  21556051.1724                   21556048.4384
 11  8 20 20  6 30.0000000  0  8G17G24G07G08G26G11G04G28
  -8978894.75848  -6953168.25846  21071363.2034                   21071361.2774
  -3681518.55547  -1156045.14844  22470637.3284                   22470637.8094
   4767631.96147   3731600.39145  22354480.0164                   22354479.9224
 -13829637.75448 -10738072.12546  20509090.8134                   20509090.0704
   7130138.12947   8142528.38744  23208284.9384                   23208285.4304
  -2667390.15246  -2016230.59443  23180710.7814                   23180709.0474
  27988949.10546                  21859462.33643  23857159.3754   23857162.5864
 -11751249.38348  -9109625.60246  21534179.2344                   21534176.4924
 11  8 20 20  7  0.0000000  0  8G17G24G07G08G26G11G04G28
  -9099008.43748  -7046763.30546  21048506.0004                   21048504.5394
  -3728049.32047  -1192302.91844  22461782.4144                   22461782.4804
   4765190.89847   3729698.14545  22354015.1174                   22354015.1884
 -13876291.27748 -10774425.56246  20500213.2114                   20500211.9844
   7075602.81346   8100033.25044  23197907.8914                   23197907.9224
  -2676640.98046  -2023439.11743  23178950.1484                   23178948.6484
  27779642.05546                  21696366.07843  23817329.2894   23817331.9924
 -11866142.90648  -9199153.03545  21512315.3674                   21512312.9494
 11  8 20 20  7 30.0000000  0  8G17G24G07G08G26G11G04G28
  -9218790.09448  -7140099.66046  21025712.2814                   21025710.7154
  -3774080.71547  -1228171.56644  22453023.7894                   22453022.9414
   4763060.08647   3728037.64844  22353609.9064                   22353609.5824
 -13922393.85548 -10810349.70346  20491440.2194                   20491438.8284
   7021506.09047   8057879.93444  23187613.3674                   23187613.1524
  -2685568.58247  -2030395.68043  23177251.4924                   23177249.6884
  27570356.61746                  21533286.66443  23777502.9614   23777506.4344
 -11980986.35548  -9288641.41445  21490461.6334                   21490458.9804
 11  8 20 20  8  0.0000000  0  8G17G24G07G08G26G11G04G28
  -9338237.84048  -7233175.80946  21002982.1254                   21002979.8914
  -3819611.66447  -1263650.22344  22444359.5004                   22444359.0124
   4761240.21547   3726619.43844  22353263.6644                   22353263.4454
 -13967943.91848 -10845843.31246  20482772.2114                   20482770.7854
   6967848.21547   8016068.55944  23177402.6644                   23177402.8484
  -2694173.41447  -2037100.77743  23175614.5864                   23175612.7114
  27361098.36346                  21370228.43443  23737681.8284   23737685.1644
 -12095776.02748  -9378087.91845  21468618.0784                   21468615.1094
 11  8 20 20  8 30.0000000  0  8G17G24G07G08G26G11G04G28
  -9457357.28948  -7325996.13346  20980314.8284                   20980312.4494
  -3864648.50847  -1298743.92244  22435788.8834                   22435789.0354
   4759723.87947   3725437.74245  22352975.2894                   22352975.3594
 -14012946.85948 -10880910.58646  20474208.7194                   20474207.9804
   6914621.68847   7974593.27344  23167274.1484                   23167274.1764
  -2702462.40246  -2043559.81243  23174037.0314                   23174035.5354
  27151865.12146                  21207189.68043  23697866.2424   23697869.2734
 -12210515.99648  -9467495.69546  21446783.6334                   21446780.5164
 11  8 20 20  9  0.0000000  0  8G17G24G07G08G26G11G04G28
  -9576140.34048  -7418554.34846  20957711.2504                   20957709.1844
  -3909183.60247  -1333446.58244  22427314.9694                   22427314.1994
   4758517.98047   3724497.94945  22352746.0784                   22352745.9104
 -14057395.08648 -10915545.63746  20465750.6804                   20465749.5474
   6861832.91046   7933459.09043  23157228.7974                   23157228.5124
  -2710429.83247  -2049768.23844  23172520.3674                   23172519.3014
  26942668.50846                  21044179.55543  23658057.1954   23658060.7464
 -12325196.48048  -9556857.10545  21424960.6804                   21424957.8444
 11  8 20 20  9 30.0000000  0  8G17G24G07G08G26G11G04G28
  -9694586.85948  -7510850.31246  20935171.2974                   20935169.3324
  -3953217.75847  -1367758.92644  22418935.0864                   22418934.7274
   4757621.21147   3723799.03945  22352575.5234                   22352575.6374
 -14101288.91848 -10949748.67646  20457397.9614                   20457396.7384
   6809480.01247   7892664.55144  23147266.2034                   23147266.7854
  -2718076.62947  -2055726.84043  23171065.5004                   23171064.7384
  26733512.61346                  20881201.12543  23618255.0944   23618259.5984
 -12439815.32448  -9646170.49645  21403149.2034                   21403146.3634
 11  8 20 20 10  0.0000000  0  8G17G24G07G08G26G11G04G28
  -9812695.93748  -7602883.34846  20912695.7894                   20912693.8634
  -3996751.06247  -1401681.00444  22410651.7034                   22410650.4884
   4757032.92247   3723340.49245  22352463.6484                   22352463.4804
 -14144627.47348 -10983519.03546  20449151.1094                   20449149.6884
   6757562.12147   7852209.00444  23137386.7894                   23137387.0354
  -2725404.22647  -2061436.67743  23169670.7344                   23169670.2074
  26524401.49246                  20718257.57043  23578463.0394   23578467.0434
 -12554370.29348  -9735434.12545  21381349.9384                   21381347.3364
 11  8 20 20 10 30.0000000  0  8G17G24G07G08G26G11G04G28
  -9930470.53148  -7694655.74646  20890284.0704                   20890282.0044
  -4039787.26247  -1435215.71144  22402461.6884                   22402461.2304
   4756748.53947   3723118.77744  22352409.6644                   22352409.7894
 -14187414.04348 -11016859.26646  20441008.9454                   20441007.7234
   6706074.40247   7812088.65644  23127589.1254                   23127589.1414
  -2732417.27047  -2066901.43743  23168336.4384                   23168334.7544
  26315336.23846                  20555349.78543  23538679.5864   23538683.5824
 -12668862.23448  -9824648.63345  21359563.0554                   21359560.8204
 11  8 20 20 11  0.0000000  0  8G17G24G07G08G26G11G04G28
 -10047904.24648  -7786162.52346  20867937.0234                   20867935.4804
  -4082320.60947  -1468358.61344  22394368.0394                   22394367.5784
   4756773.38347   3723137.98045  22352414.6484                   22352414.5044
 -14229642.67648 -11049764.74646  20432973.3204                   20432972.0314
   6655021.46547   7772307.08244  23117873.7504                   23117873.9614
  -2739110.89547  -2072117.30143  23167063.5084                   23167061.5944
  26106326.50446                  20392485.23843  23498906.9144   23498909.3554
 -12783282.93748  -9913807.63746  21337789.8524                   21337787.0164
 11  8 20 20 11 30.0000000  0  8G17G24G07G08G26G11G04G28
 -10164997.87547  -7877404.30946  20845654.9614                   20845653.0274
  -4124352.91847  -1501111.07844  22386369.2344                   22386369.2304
   4757104.90247   3723396.16845  22352477.1564                   22352477.8794
 -14271314.34848 -11082236.23445  20425043.0084                   20425041.8834
   6604400.82847   7732862.39144  23108241.6414                   23108241.6764
  -2745488.03947  -2077086.55143  23165849.5704                   23165848.2854
  25897375.60946                  20229666.57043  23459144.6254   23459146.9574
 -12897631.62548 -10002910.51245  21316029.7114                   21316027.9144
 11  8 20 20 12  0.0000000  0  8G17G24G07G08G26G11G04G28
 -10281762.36747  -7968389.60946  20823435.7974                   20823432.9844
  -4165895.79347  -1533482.20344  22378463.4614                   22378463.7624
   4757730.85947   3723883.78544  22352596.8444                   22352596.9734
 -14312440.41448 -11114282.57045  20417217.5234                   20417215.8914
   6554199.55547   7693744.45744  23098688.2344                   23098688.0314
  -2751561.37546  -2081819.08243  23164694.1724                   23164692.5984
  25688475.73847                  20066887.62944  23419392.6644   23419394.7814
 -13011917.50848 -10091964.45745  21294281.8134                   21294279.4734
 11  8 20 20 12 30.0000000  0  8G17G24G07G08G26G11G04G28
 -10398193.63347  -8059115.26646  20801279.3754                   20801277.1564
  -4206945.96547  -1565469.39144  22370651.6174                   22370652.1604
   4758654.05547   3724603.01645  22352772.6804                   22352772.8284
 -14353016.45348 -11145900.30945  20409495.5394                   20409494.7894
   6504420.09047   7654955.19944  23089215.4924                   23089215.7114
  -2757328.19546  -2086312.78943  23163595.6724                   23163594.3244
  25479635.31346                  19904155.00043  23379650.9304   23379654.0594
 -13126134.13747 -10180964.44146  21272547.3524                   21272544.7774
 11  8 20 20 13  0.0000000  0  8G17G24G07G08G26G11G04G28
 -10514297.66848  -8149585.94146  20779185.4694                   20779183.4884
  -4247510.46547  -1597078.12544  22362932.5944                   22362933.4964
   4759866.82447   3725547.87545  22353003.3834                   22353003.7624
 -14393049.22748 -11177094.74245  20401877.7814                   20401876.7974
   6455054.44946   7616488.42244  23079821.8364                   23079821.8524
  -2762796.60246  -2090573.91443  23162556.1094                   23162554.4064
  25270851.43847                  19741466.43444  23339920.5474   23339923.7384
 -13240286.04748 -10269913.98446  21250824.8754                   21250821.8204
 11  8 20 20 13 30.0000000  0  8G17G24G07G08G26G11G04G28
  -9054651.09447  -7012198.99646  21056947.0784                   21056945.0554
  -2712169.06247   -400708.16844  22655098.1724                   22655098.4844
   6336787.36347   4954316.98845  22653081.9454                   22653082.3524
 -12857118.62548  -9980265.74245  20694155.5234                   20694154.6764
   7981521.81347   8805943.41444  23370298.7274                   23370299.1804
  -1192548.35547   -867003.91044  23461365.0634                   23461363.0664
  26637554.72346                  20806430.18043  23599995.3134   23599998.5824
 -11778947.68748  -9131208.78146  21528908.5864                   21528905.7274
 11  8 20 20 14  0.0000000  0  8G17G24G07G08G26G11G04G28
  -9170109.46548  -7102166.54746  21034976.0634                   21034974.1414
  -2751772.94147   -431568.37144  22647562.9614                   22647562.4224
   6338566.52047   4955703.20745  22653420.3914                   22653420.5084
 -12896074.89148 -10010621.33645  20686742.6804                   20686742.0474
   7932969.54346   8768110.44944  23361059.6804                   23361059.8324
  -1197433.65247   -870810.68443  23460434.7344                   23460433.4574
  26428887.17246                  20643832.28143  23560287.2664   23560290.4844
 -11892972.91448  -9220059.60946  21507209.8754                   21507207.1094
 11  8 20 20 14 30.0000000  0  8G17G24G07G08G26G11G04G28
  -9285244.95348  -7191882.50846  21013066.7114                   21013064.5234
  -2790898.29347   -462055.68044  22640117.4064                   22640117.0314
   6340626.57847   4957308.30145  22653812.3674                   22653812.8404
 -12934493.59447 -10040558.04745  20679431.8674                   20679430.8444
   7884821.03147   8730592.05544  23351896.6954                   23351897.8204
  -1202030.38346   -874392.59843  23459560.7034                   23459558.6884
  26220282.97346                  20481283.68843  23520589.9224   23520593.8874
 -12006932.22748  -9308859.07846  21485524.2034                   21485521.7624
 11  8 20 20 15  0.0000000  0  8G17G24G07G08G26G11G04G28
  -9400061.18448  -7281349.69146  20991217.6174                   20991215.2894
  -2829549.28147   -492173.37144  22632762.4144                   22632762.5394
   6342962.93847   4959128.69544  22654257.4774                   22654257.6954
 -12972378.57447 -10070078.87145  20672222.8594                   20672221.6884
   7837070.92647   8693384.11744  23342810.8364                   23342811.1564
  -1206343.35547   -877753.40643  23458739.6724                   23458738.2704
  26011742.72746                  20318784.95743  23480906.5084   23480909.6334
 -12120827.09848  -9397608.34045  21463850.7424                   21463848.0594
 11  8 20 20 15 30.0000000  0  8G17G24G07G08G26G11G04G28
  -9514554.70748  -7370565.41046  20969429.9304                   20969428.3914
  -2867723.53547   -521919.56244  22625497.6484                   22625497.1844
   6345577.00847   4961165.47344  22654755.0004                   22654755.2304
 -13009726.65247 -10099181.32846  20665115.6804                   20665114.5594
   7789720.71147   8656487.72344  23333800.7584                   23333799.6764
  -1210371.12946   -880891.92243  23457972.1174                   23457971.2544
  25803273.26646                  20156341.39843  23441236.2274   23441238.4734
 -12234652.10548  -9486303.15645  21442190.8834                   21442187.5124
 11  8 20 20 16  0.0000000  0  8G17G24G07G08G26G11G04G28
  -9628725.09048  -7459529.33646  20947704.2194                   20947702.6524
  -2905421.48447   -551294.59444  22618324.1644                   22618323.9924
   6348467.76647   4963417.84844  22655304.6024                   22655305.2074
 -13046538.09447 -10127865.62945  20658110.6724                   20658109.7664
   7742769.10946   8619902.00443  23324865.8204                   23324865.6334
  -1214114.83246   -883809.19143  23457261.1954                   23457260.0004
  25594879.12546                  19993956.52743  23401578.9454   23401582.3984
 -12348404.89848  -9574941.70746  21420544.2664                   21420541.7624
